Wetterdaten: Montag, 15.05.2023
Datum Zeit Temp. 2m Temp +5 cm Feuchte A. Luftdruck Regen Wind Richtung Richtung Sonnenschein UV Solar Taupunkt Windchill Windben
15.05.2023 00:00 9,7 C 8,3 C 86 % 1017,0 hPa 0,0 l/m 0,0 km/h (0 Bft) N-NW 337 0 min 0,0 UV-I 0 W/m 7,5 C 9,7 C 1,6 km/h (1 Bft)
15.05.2023 00:01 9,7 C 8,3 C 86 % 1017,0 hPa 0,0 l/m 1,6 km/h (1 Bft) N-NW 337 0 min 0,0 UV-I 0 W/m 7,5 C 9,7 C 1,6 km/h (1 Bft)
15.05.2023 00:02 9,7 C 8,3 C 86 % 1017,0 hPa 0,0 l/m 0,0 km/h (0 Bft) N-NW 337 0 min 0,0 UV-I 0 W/m 7,5 C 9,7 C 1,6 km/h (1 Bft)
15.05.2023 00:03 9,7 C 8,3 C 86 % 1017,0 hPa 0,0 l/m 1,6 km/h (1 Bft) N-NW 337 0 min 0,0 UV-I 0 W/m 7,5 C 9,7 C 3,2 km/h (1 Bft)
15.05.2023 00:04 9,6 C 8,3 C 86 % 1017,0 hPa 0,0 l/m 1,6 km/h (1 Bft) N-NW 337 0 min 0,0 UV-I 0 W/m 7,4 C 9,6 C 4,8 km/h (1 Bft)
15.05.2023 00:05 9,6 C 8,3 C 86 % 1017,0 hPa 0,0 l/m 3,2 km/h (1 Bft) N-NW 337 0 min 0,0 UV-I 0 W/m 7,4 C 9,6 C 4,8 km/h (1 Bft)
15.05.2023 00:06 9,6 C 8,3 C 86 % 1017,0 hPa 0,0 l/m 0,0 km/h (0 Bft) N-NW 337 0 min 0,0 UV-I 0 W/m 7,4 C 9,6 C 1,6 km/h (1 Bft)
15.05.2023 00:07 9,6 C 8,3 C 86 % 1016,9 hPa 0,0 l/m 0,0 km/h (0 Bft) N-NW 337 0 min 0,0 UV-I 0 W/m 7,4 C 9,6 C 1,6 km/h (1 Bft)
15.05.2023 00:08 9,6 C 8,3 C 87 % 1016,9 hPa 0,0 l/m 0,0 km/h (0 Bft) N-NW 337 0 min 0,0 UV-I 0 W/m 7,5 C 9,6 C 1,6 km/h (1 Bft)
15.05.2023 00:09 9,7 C 8,3 C 87 % 1016,9 hPa 0,0 l/m 0,0 km/h (0 Bft) N-NW 337 0 min 0,0 UV-I 0 W/m 7,6 C 9,7 C 1,6 km/h (1 Bft)
15.05.2023 00:10 9,8 C 8,3 C 87 % 1016,9 hPa 0,0 l/m 1,6 km/h (1 Bft) N-NW 337 0 min 0,0 UV-I 0 W/m 7,7 C 9,8 C 4,8 km/h (1 Bft)
15.05.2023 00:11 9,8 C 8,3 C 87 % 1016,8 hPa 0,0 l/m 1,6 km/h (1 Bft) N-NW 337 0 min 0,0 UV-I 0 W/m 7,7 C 9,8 C 3,2 km/h (1 Bft)
15.05.2023 00:12 9,9 C 8,3 C 86 % 1016,8 hPa 0,0 l/m 3,2 km/h (1 Bft) N-NW 337 0 min 0,0 UV-I 0 W/m 7,7 C 9,9 C 4,8 km/h (1 Bft)
15.05.2023 00:13 10,0 C 8,3 C 86 % 1016,9 hPa 0,0 l/m 1,6 km/h (1 Bft) N-NW 337 0 min 0,0 UV-I 0 W/m 7,8 C 10,0 C 1,6 km/h (1 Bft)
15.05.2023 00:14 10,1 C 8,9 C 86 % 1016,9 hPa 0,0 l/m 3,2 km/h (1 Bft) NW 315 0 min 0,0 UV-I 0 W/m 7,9 C 10,1 C 6,4 km/h (2 Bft)
15.05.2023 00:15 10,2 C 8,9 C 86 % 1016,8 hPa 0,0 l/m 4,8 km/h (1 Bft) NW 315 0 min 0,0 UV-I 0 W/m 8,0 C 10,2 C 9,7 km/h (2 Bft)
15.05.2023 00:16 10,2 C 8,9 C 86 % 1016,8 hPa 0,0 l/m 3,2 km/h (1 Bft) NW 315 0 min 0,0 UV-I 0 W/m 8,0 C 10,2 C 8,0 km/h (2 Bft)
15.05.2023 00:17 10,3 C 8,9 C 85 % 1016,8 hPa 0,0 l/m 1,6 km/h (1 Bft) W-NW 292 0 min 0,0 UV-I 0 W/m 7,9 C 10,3 C 4,8 km/h (1 Bft)
15.05.2023 00:18 10,4 C 8,9 C 85 % 1016,8 hPa 0,0 l/m 1,6 km/h (1 Bft) W-NW 292 0 min 0,0 UV-I 0 W/m 8,0 C 10,4 C 4,8 km/h (1 Bft)
15.05.2023 00:19 10,4 C 8,9 C 84 % 1016,9 hPa 0,0 l/m 0,0 km/h (0 Bft) W-NW 292 0 min 0,0 UV-I 0 W/m 7,8 C 10,4 C 1,6 km/h (1 Bft)
15.05.2023 00:20 10,4 C 8,9 C 84 % 1016,9 hPa 0,0 l/m 1,6 km/h (1 Bft) W-NW 292 0 min 0,0 UV-I 0 W/m 7,8 C 10,4 C 4,8 km/h (1 Bft)
15.05.2023 00:21 10,5 C 8,9 C 84 % 1016,9 hPa 0,0 l/m 0,0 km/h (0 Bft) W-NW 292 0 min 0,0 UV-I 0 W/m 7,9 C 10,5 C 1,6 km/h (1 Bft)
15.05.2023 00:22 10,5 C 9,4 C 84 % 1016,8 hPa 0,0 l/m 0,0 km/h (0 Bft) W-NW 292 0 min 0,0 UV-I 0 W/m 7,9 C 10,5 C 1,6 km/h (1 Bft)
15.05.2023 00:23 10,6 C 9,4 C 84 % 1017,0 hPa 0,0 l/m 4,8 km/h (1 Bft) W-NW 292 0 min 0,0 UV-I 0 W/m 8,0 C 10,6 C 11,3 km/h (2 Bft)
15.05.2023 00:24 10,7 C 9,4 C 83 % 1016,8 hPa 0,0 l/m 1,6 km/h (1 Bft) W-NW 292 0 min 0,0 UV-I 0 W/m 7,9 C 10,7 C 9,7 km/h (2 Bft)
15.05.2023 00:25 10,7 C 9,4 C 83 % 1016,8 hPa 0,0 l/m 1,6 km/h (1 Bft) W-NW 292 0 min 0,0 UV-I 0 W/m 7,9 C 10,7 C 3,2 km/h (1 Bft)
15.05.2023 00:26 10,7 C 9,4 C 83 % 1016,9 hPa 0,0 l/m 1,6 km/h (1 Bft) W-NW 292 0 min 0,0 UV-I 0 W/m 7,9 C 10,7 C 1,6 km/h (1 Bft)
15.05.2023 00:27 10,8 C 9,4 C 83 % 1016,8 hPa 0,0 l/m 1,6 km/h (1 Bft) W-NW 292 0 min 0,0 UV-I 0 W/m 8,0 C 10,8 C 3,2 km/h (1 Bft)
15.05.2023 00:28 10,8 C 9,4 C 83 % 1016,9 hPa 0,0 l/m 0,0 km/h (0 Bft) W-NW 292 0 min 0,0 UV-I 0 W/m 8,0 C 10,8 C 1,6 km/h (1 Bft)
15.05.2023 00:29 10,8 C 9,4 C 83 % 1016,9 hPa 0,0 l/m 0,0 km/h (0 Bft) W-NW 292 0 min 0,0 UV-I 0 W/m 8,0 C 10,8 C 1,6 km/h (1 Bft)
15.05.2023 00:30 10,8 C 9,4 C 83 % 1016,8 hPa 0,0 l/m 1,6 km/h (1 Bft) W-NW 292 0 min 0,0 UV-I 0 W/m 8,0 C 10,8 C 3,2 km/h (1 Bft)
15.05.2023 00:31 10,8 C 9,4 C 83 % 1016,8 hPa 0,0 l/m 0,0 km/h (0 Bft) W-NW 292 0 min 0,0 UV-I 0 W/m 8,0 C 10,8 C 1,6 km/h (1 Bft)
15.05.2023 00:32 10,9 C 9,4 C 83 % 1016,8 hPa 0,0 l/m 0,0 km/h (0 Bft) W-NW 292 0 min 0,0 UV-I 0 W/m 8,1 C 10,9 C 1,6 km/h (1 Bft)
15.05.2023 00:33 10,9 C 9,4 C 82 % 1016,8 hPa 0,0 l/m 0,0 km/h (0 Bft) N 0 0 min 0,0 UV-I 0 W/m 7,9 C 10,9 C 0,0 km/h (0 Bft)
15.05.2023 00:34 11,0 C 9,4 C 82 % 1016,7 hPa 0,0 l/m 1,6 km/h (1 Bft) W-NW 292 0 min 0,0 UV-I 0 W/m 8,0 C 11,0 C 3,2 km/h (1 Bft)
15.05.2023 00:35 11,0 C 9,4 C 82 % 1016,7 hPa 0,0 l/m 0,0 km/h (0 Bft) W-NW 292 0 min 0,0 UV-I 0 W/m 8,0 C 11,0 C 1,6 km/h (1 Bft)
15.05.2023 00:36 10,9 C 9,4 C 82 % 1016,6 hPa 0,0 l/m 1,6 km/h (1 Bft) W-NW 292 0 min 0,0 UV-I 0 W/m 7,9 C 10,9 C 1,6 km/h (1 Bft)
15.05.2023 00:37 10,7 C 9,4 C 82 % 1016,7 hPa 0,0 l/m 0,0 km/h (0 Bft) N 0 0 min 0,0 UV-I 0 W/m 7,8 C 10,7 C 0,0 km/h (0 Bft)
15.05.2023 00:38 10,6 C 9,4 C 82 % 1016,6 hPa 0,0 l/m 0,0 km/h (0 Bft) N 0 0 min 0,0 UV-I 0 W/m 7,7 C 10,6 C 0,0 km/h (0 Bft)
15.05.2023 00:39 10,4 C 9,4 C 82 % 1016,7 hPa 0,0 l/m 0,0 km/h (0 Bft) N 0 0 min 0,0 UV-I 0 W/m 7,5 C 10,4 C 0,0 km/h (0 Bft)
15.05.2023 00:40 10,3 C 9,4 C 83 % 1016,6 hPa 0,0 l/m 0,0 km/h (0 Bft) N 0 0 min 0,0 UV-I 0 W/m 7,5 C 10,3 C 0,0 km/h (0 Bft)
15.05.2023 00:41 10,2 C 9,4 C 83 % 1016,6 hPa 0,0 l/m 1,6 km/h (1 Bft) W-NW 292 0 min 0,0 UV-I 0 W/m 7,4 C 10,2 C 3,2 km/h (1 Bft)
15.05.2023 00:42 10,1 C 9,4 C 84 % 1016,6 hPa 0,0 l/m 1,6 km/h (1 Bft) W-NW 292 0 min 0,0 UV-I 0 W/m 7,5 C 10,1 C 3,2 km/h (1 Bft)
15.05.2023 00:43 10,1 C 9,4 C 84 % 1016,6 hPa 0,0 l/m 3,2 km/h (1 Bft) W-NW 292 0 min 0,0 UV-I 0 W/m 7,5 C 10,1 C 8,0 km/h (2 Bft)
15.05.2023 00:44 10,0 C 9,4 C 84 % 1016,6 hPa 0,0 l/m 1,6 km/h (1 Bft) N-NW 337 0 min 0,0 UV-I 0 W/m 7,4 C 10,0 C 3,2 km/h (1 Bft)
15.05.2023 00:45 10,0 C 9,4 C 84 % 1016,7 hPa 0,0 l/m 0,0 km/h (0 Bft) N 0 0 min 0,0 UV-I 0 W/m 7,4 C 10,0 C 0,0 km/h (0 Bft)
15.05.2023 00:46 10,0 C 9,4 C 84 % 1016,5 hPa 0,0 l/m 0,0 km/h (0 Bft) N 0 0 min 0,0 UV-I 0 W/m 7,4 C 10,0 C 0,0 km/h (0 Bft)
15.05.2023 00:47 9,9 C 8,9 C 85 % 1016,5 hPa 0,0 l/m 0,0 km/h (0 Bft) N 0 0 min 0,0 UV-I 0 W/m 7,5 C 9,9 C 0,0 km/h (0 Bft)
15.05.2023 00:48 9,9 C 8,9 C 85 % 1016,5 hPa 0,0 l/m 0,0 km/h (0 Bft) N 0 0 min 0,0 UV-I 0 W/m 7,5 C 9,9 C 0,0 km/h (0 Bft)
15.05.2023 00:49 10,0 C 8,9 C 85 % 1016,5 hPa 0,0 l/m 0,0 km/h (0 Bft) N 0 0 min 0,0 UV-I 0 W/m 7,6 C 10,0 C 0,0 km/h (0 Bft)
15.05.2023 00:50 9,9 C 8,9 C 85 % 1016,5 hPa 0,0 l/m 0,0 km/h (0 Bft) N 0 0 min 0,0 UV-I 0 W/m 7,5 C 9,9 C 0,0 km/h (0 Bft)
15.05.2023 00:51 10,0 C 8,9 C 85 % 1016,5 hPa 0,0 l/m 0,0 km/h (0 Bft) N 0 0 min 0,0 UV-I 0 W/m 7,6 C 10,0 C 0,0 km/h (0 Bft)
15.05.2023 00:52 10,0 C 8,9 C 85 % 1016,5 hPa 0,0 l/m 0,0 km/h (0 Bft) N 0 0 min 0,0 UV-I 0 W/m 7,6 C 10,0 C 0,0 km/h (0 Bft)
15.05.2023 00:53 10,1 C 8,9 C 85 % 1016,5 hPa 0,0 l/m 0,0 km/h (0 Bft) N 0 0 min 0,0 UV-I 0 W/m 7,7 C 10,1 C 0,0 km/h (0 Bft)
15.05.2023 00:54 10,1 C 8,9 C 85 % 1016,5 hPa 0,0 l/m 0,0 km/h (0 Bft) N 0 0 min 0,0 UV-I 0 W/m 7,7 C 10,1 C 0,0 km/h (0 Bft)
15.05.2023 00:55 10,1 C 9,4 C 85 % 1016,5 hPa 0,0 l/m 0,0 km/h (0 Bft) N 0 0 min 0,0 UV-I 0 W/m 7,7 C 10,1 C 0,0 km/h (0 Bft)
15.05.2023 00:56 10,1 C 9,4 C 85 % 1016,5 hPa 0,0 l/m 0,0 km/h (0 Bft) N-NW 337 0 min 0,0 UV-I 0 W/m 7,7 C 10,1 C 1,6 km/h (1 Bft)
15.05.2023 00:57 10,1 C 9,4 C 85 % 1016,4 hPa 0,0 l/m 1,6 km/h (1 Bft) N-NW 337 0 min 0,0 UV-I 0 W/m 7,7 C 10,1 C 3,2 km/h (1 Bft)
15.05.2023 00:58 10,0 C 9,4 C 85 % 1016,5 hPa 0,0 l/m 1,6 km/h (1 Bft) N-NW 337 0 min 0,0 UV-I 0 W/m 7,6 C 10,0 C 3,2 km/h (1 Bft)
15.05.2023 00:59 10,0 C 9,4 C 85 % 1016,4 hPa 0,0 l/m 1,6 km/h (1 Bft) N-NW 337 0 min 0,0 UV-I 0 W/m 7,6 C 10,0 C 3,2 km/h (1 Bft)
15.05.2023 01:00 10,0 C 9,4 C 85 % 1016,5 hPa 0,0 l/m 3,2 km/h (1 Bft) N-NW 337 0 min 0,0 UV-I 0 W/m 7,6 C 10,0 C 3,2 km/h (1 Bft)
15.05.2023 01:01 9,9 C 8,9 C 85 % 1016,4 hPa 0,0 l/m 3,2 km/h (1 Bft) N-NW 337 0 min 0,0 UV-I 0 W/m 7,5 C 9,9 C 3,2 km/h (1 Bft)
15.05.2023 01:02 9,9 C 8,9 C 85 % 1016,4 hPa 0,0 l/m 1,6 km/h (1 Bft) N-NW 337 0 min 0,0 UV-I 0 W/m 7,5 C 9,9 C 3,2 km/h (1 Bft)
15.05.2023 01:03 9,9 C 8,9 C 86 % 1016,4 hPa 0,0 l/m 0,0 km/h (0 Bft) N-NW 337 0 min 0,0 UV-I 0 W/m 7,7 C 9,9 C 1,6 km/h (1 Bft)
15.05.2023 01:04 9,9 C 8,9 C 85 % 1016,4 hPa 0,0 l/m 3,2 km/h (1 Bft) N-NW 337 0 min 0,0 UV-I 0 W/m 7,5 C 9,9 C 3,2 km/h (1 Bft)
15.05.2023 01:05 9,9 C 8,9 C 86 % 1016,4 hPa 0,0 l/m 3,2 km/h (1 Bft) N-NW 337 0 min 0,0 UV-I 0 W/m 7,7 C 9,9 C 3,2 km/h (1 Bft)
15.05.2023 01:06 9,9 C 8,9 C 86 % 1016,4 hPa 0,0 l/m 1,6 km/h (1 Bft) N-NW 337 0 min 0,0 UV-I 0 W/m 7,7 C 9,9 C 3,2 km/h (1 Bft)
15.05.2023 01:07 10,0 C 8,9 C 86 % 1016,4 hPa 0,0 l/m 1,6 km/h (1 Bft) N-NW 337 0 min 0,0 UV-I 0 W/m 7,8 C 10,0 C 3,2 km/h (1 Bft)
15.05.2023 01:08 10,1 C 8,9 C 86 % 1016,5 hPa 0,0 l/m 1,6 km/h (1 Bft) N-NW 337 0 min 0,0 UV-I 0 W/m 7,9 C 10,1 C 1,6 km/h (1 Bft)
15.05.2023 01:09 10,1 C 8,9 C 86 % 1016,4 hPa 0,0 l/m 0,0 km/h (0 Bft) N-NW 337 0 min 0,0 UV-I 0 W/m 7,9 C 10,1 C 1,6 km/h (1 Bft)
15.05.2023 01:10 10,2 C 8,9 C 85 % 1016,4 hPa 0,0 l/m 0,0 km/h (0 Bft) N-NW 337 0 min 0,0 UV-I 0 W/m 7,8 C 10,2 C 1,6 km/h (1 Bft)
15.05.2023 01:11 10,2 C 8,9 C 85 % 1016,4 hPa 0,0 l/m 0,0 km/h (0 Bft) N 0 0 min 0,0 UV-I 0 W/m 7,8 C 10,2 C 0,0 km/h (0 Bft)
15.05.2023 01:12 10,2 C 8,9 C 85 % 1016,4 hPa 0,0 l/m 0,0 km/h (0 Bft) N 0 0 min 0,0 UV-I 0 W/m 7,8 C 10,2 C 0,0 km/h (0 Bft)
15.05.2023 01:13 10,3 C 8,9 C 85 % 1016,3 hPa 0,0 l/m 0,0 km/h (0 Bft) N-NW 337 0 min 0,0 UV-I 0 W/m 7,9 C 10,3 C 1,6 km/h (1 Bft)
15.05.2023 01:14 10,3 C 8,9 C 85 % 1016,4 hPa 0,0 l/m 0,0 km/h (0 Bft) N-NW 337 0 min 0,0 UV-I 0 W/m 7,9 C 10,3 C 1,6 km/h (1 Bft)
15.05.2023 01:15 10,3 C 8,9 C 85 % 1016,4 hPa 0,0 l/m 0,0 km/h (0 Bft) N-NW 337 0 min 0,0 UV-I 0 W/m 7,9 C 10,3 C 1,6 km/h (1 Bft)
15.05.2023 01:16 10,4 C 8,9 C 85 % 1016,4 hPa 0,0 l/m 1,6 km/h (1 Bft) N-NW 337 0 min 0,0 UV-I 0 W/m 8,0 C 10,4 C 1,6 km/h (1 Bft)
15.05.2023 01:17 10,4 C 8,9 C 85 % 1016,3 hPa 0,0 l/m 1,6 km/h (1 Bft) N-NW 337 0 min 0,0 UV-I 0 W/m 8,0 C 10,4 C 3,2 km/h (1 Bft)
15.05.2023 01:18 10,5 C 8,9 C 85 % 1016,4 hPa 0,0 l/m 1,6 km/h (1 Bft) N-NW 337 0 min 0,0 UV-I 0 W/m 8,1 C 10,5 C 3,2 km/h (1 Bft)
15.05.2023 01:19 10,5 C 8,9 C 85 % 1016,3 hPa 0,0 l/m 1,6 km/h (1 Bft) N-NW 337 0 min 0,0 UV-I 0 W/m 8,1 C 10,5 C 3,2 km/h (1 Bft)
15.05.2023 01:20 10,6 C 9,4 C 85 % 1016,2 hPa 0,0 l/m 1,6 km/h (1 Bft) N-NW 337 0 min 0,0 UV-I 0 W/m 8,2 C 10,6 C 3,2 km/h (1 Bft)
15.05.2023 01:21 10,6 C 9,4 C 85 % 1016,3 hPa 0,0 l/m 1,6 km/h (1 Bft) N-NW 337 0 min 0,0 UV-I 0 W/m 8,2 C 10,6 C 3,2 km/h (1 Bft)
15.05.2023 01:22 10,6 C 9,4 C 85 % 1016,2 hPa 0,0 l/m 3,2 km/h (1 Bft) N-NW 337 0 min 0,0 UV-I 0 W/m 8,2 C 10,6 C 4,8 km/h (1 Bft)
15.05.2023 01:23 10,7 C 9,4 C 85 % 1016,3 hPa 0,0 l/m 0,0 km/h (0 Bft) N-NW 337 0 min 0,0 UV-I 0 W/m 8,3 C 10,7 C 1,6 km/h (1 Bft)
15.05.2023 01:24 10,7 C 9,4 C 85 % 1016,2 hPa 0,0 l/m 1,6 km/h (1 Bft) N-NW 337 0 min 0,0 UV-I 0 W/m 8,3 C 10,7 C 3,2 km/h (1 Bft)
15.05.2023 01:25 10,7 C 9,4 C 85 % 1016,1 hPa 0,0 l/m 1,6 km/h (1 Bft) N-NW 337 0 min 0,0 UV-I 0 W/m 8,3 C 10,7 C 3,2 km/h (1 Bft)
15.05.2023 01:26 10,7 C 9,4 C 84 % 1016,1 hPa 0,0 l/m 0,0 km/h (0 Bft) N-NW 337 0 min 0,0 UV-I 0 W/m 8,1 C 10,7 C 1,6 km/h (1 Bft)
15.05.2023 01:27 10,7 C 9,4 C 84 % 1016,2 hPa 0,0 l/m 1,6 km/h (1 Bft) N-NW 337 0 min 0,0 UV-I 0 W/m 8,1 C 10,7 C 1,6 km/h (1 Bft)
15.05.2023 01:28 10,7 C 9,4 C 85 % 1016,2 hPa 0,0 l/m 1,6 km/h (1 Bft) N-NW 337 0 min 0,0 UV-I 0 W/m 8,3 C 10,7 C 3,2 km/h (1 Bft)
15.05.2023 01:29 10,7 C 9,4 C 85 % 1016,2 hPa 0,0 l/m 0,0 km/h (0 Bft) N-NW 337 0 min 0,0 UV-I 0 W/m 8,3 C 10,7 C 1,6 km/h (1 Bft)
15.05.2023 01:30 10,7 C 9,4 C 85 % 1016,2 hPa 0,0 l/m 1,6 km/h (1 Bft) N-NW 337 0 min 0,0 UV-I 0 W/m 8,3 C 10,7 C 4,8 km/h (1 Bft)
15.05.2023 01:31 10,7 C 8,9 C 85 % 1016,2 hPa 0,0 l/m 1,6 km/h (1 Bft) N-NW 337 0 min 0,0 UV-I 0 W/m 8,3 C 10,7 C 1,6 km/h (1 Bft)
15.05.2023 01:32 10,7 C 8,9 C 85 % 1016,2 hPa 0,0 l/m 0,0 km/h (0 Bft) N-NW 337 0 min 0,0 UV-I 0 W/m 8,3 C 10,7 C 1,6 km/h (1 Bft)
15.05.2023 01:33 10,7 C 8,9 C 85 % 1016,2 hPa 0,0 l/m 0,0 km/h (0 Bft) N 0 0 min 0,0 UV-I 0 W/m 8,3 C 10,7 C 0,0 km/h (0 Bft)
15.05.2023 01:34 10,7 C 8,9 C 85 % 1016,2 hPa 0,0 l/m 0,0 km/h (0 Bft) N 0 0 min 0,0 UV-I 0 W/m 8,3 C 10,7 C 0,0 km/h (0 Bft)
15.05.2023 01:35 10,6 C 8,9 C 85 % 1016,1 hPa 0,0 l/m 0,0 km/h (0 Bft) N 0 0 min 0,0 UV-I 0 W/m 8,2 C 10,6 C 0,0 km/h (0 Bft)
15.05.2023 01:36 10,6 C 8,9 C 85 % 1016,1 hPa 0,0 l/m 0,0 km/h (0 Bft) N 0 0 min 0,0 UV-I 0 W/m 8,2 C 10,6 C 0,0 km/h (0 Bft)
15.05.2023 01:37 10,6 C 8,9 C 85 % 1016,1 hPa 0,0 l/m 0,0 km/h (0 Bft) N-NW 337 0 min 0,0 UV-I 0 W/m 8,2 C 10,6 C 1,6 km/h (1 Bft)
15.05.2023 01:38 10,6 C 8,9 C 85 % 1016,1 hPa 0,0 l/m 0,0 km/h (0 Bft) N-NW 337 0 min 0,0 UV-I 0 W/m 8,2 C 10,6 C 1,6 km/h (1 Bft)
15.05.2023 01:39 10,5 C 8,9 C 85 % 1016,1 hPa 0,0 l/m 0,0 km/h (0 Bft) N 0 0 min 0,0 UV-I 0 W/m 8,1 C 10,5 C 0,0 km/h (0 Bft)
15.05.2023 01:40 10,4 C 8,9 C 85 % 1016,1 hPa 0,0 l/m 0,0 km/h (0 Bft) N 0 0 min 0,0 UV-I 0 W/m 8,0 C 10,4 C 0,0 km/h (0 Bft)
15.05.2023 01:41 10,4 C 8,9 C 85 % 1016,0 hPa 0,0 l/m 0,0 km/h (0 Bft) N-NW 337 0 min 0,0 UV-I 0 W/m 8,0 C 10,4 C 1,6 km/h (1 Bft)
15.05.2023 01:42 10,4 C 8,9 C 86 % 1016,0 hPa 0,0 l/m 0,0 km/h (0 Bft) N-NW 337 0 min 0,0 UV-I 0 W/m 8,2 C 10,4 C 1,6 km/h (1 Bft)
15.05.2023 01:43 10,3 C 8,3 C 86 % 1016,0 hPa 0,0 l/m 0,0 km/h (0 Bft) N 0 0 min 0,0 UV-I 0 W/m 8,1 C 10,3 C 0,0 km/h (0 Bft)
15.05.2023 01:44 10,3 C 8,3 C 86 % 1016,1 hPa 0,0 l/m 0,0 km/h (0 Bft) N-NW 337 0 min 0,0 UV-I 0 W/m 8,1 C 10,3 C 1,6 km/h (1 Bft)
15.05.2023 01:45 10,3 C 8,3 C 86 % 1016,1 hPa 0,0 l/m 0,0 km/h (0 Bft) N-NW 337 0 min 0,0 UV-I 0 W/m 8,1 C 10,3 C 1,6 km/h (1 Bft)
15.05.2023 01:46 10,3 C 8,3 C 86 % 1016,1 hPa 0,0 l/m 1,6 km/h (1 Bft) N-NW 337 0 min 0,0 UV-I 0 W/m 8,1 C 10,3 C 3,2 km/h (1 Bft)
15.05.2023 01:47 10,3 C 8,3 C 86 % 1016,0 hPa 0,0 l/m 1,6 km/h (1 Bft) N-NW 337 0 min 0,0 UV-I 0 W/m 8,1 C 10,3 C 3,2 km/h (1 Bft)
15.05.2023 01:48 10,3 C 8,3 C 86 % 1016,1 hPa 0,0 l/m 3,2 km/h (1 Bft) N-NW 337 0 min 0,0 UV-I 0 W/m 8,1 C 10,3 C 3,2 km/h (1 Bft)
15.05.2023 01:49 10,3 C 8,3 C 86 % 1016,0 hPa 0,0 l/m 3,2 km/h (1 Bft) N-NW 337 0 min 0,0 UV-I 0 W/m 8,1 C 10,3 C 4,8 km/h (1 Bft)
15.05.2023 01:50 10,4 C 8,3 C 86 % 1016,1 hPa 0,0 l/m 3,2 km/h (1 Bft) N-NW 337 0 min 0,0 UV-I 0 W/m 8,2 C 10,4 C 4,8 km/h (1 Bft)
15.05.2023 01:51 10,4 C 8,3 C 86 % 1016,1 hPa 0,0 l/m 3,2 km/h (1 Bft) N-NW 337 0 min 0,0 UV-I 0 W/m 8,2 C 10,4 C 4,8 km/h (1 Bft)
15.05.2023 01:52 10,4 C 8,3 C 86 % 1016,0 hPa 0,0 l/m 3,2 km/h (1 Bft) N-NW 337 0 min 0,0 UV-I 0 W/m 8,2 C 10,4 C 4,8 km/h (1 Bft)
15.05.2023 01:53 10,4 C 8,3 C 86 % 1016,0 hPa 0,0 l/m 4,8 km/h (1 Bft) W-SW 247 0 min 0,0 UV-I 0 W/m 8,2 C 10,4 C 8,0 km/h (2 Bft)
15.05.2023 01:54 10,4 C 8,3 C 86 % 1016,0 hPa 0,0 l/m 4,8 km/h (1 Bft) W 270 0 min 0,0 UV-I 0 W/m 8,2 C 10,4 C 9,7 km/h (2 Bft)
15.05.2023 01:55 10,4 C 8,3 C 86 % 1016,0 hPa 0,0 l/m 4,8 km/h (1 Bft) W 270 0 min 0,0 UV-I 0 W/m 8,2 C 10,4 C 6,4 km/h (2 Bft)
15.05.2023 01:56 10,4 C 8,3 C 86 % 1016,0 hPa 0,0 l/m 3,2 km/h (1 Bft) W 270 0 min 0,0 UV-I 0 W/m 8,2 C 10,4 C 4,8 km/h (1 Bft)
15.05.2023 01:57 10,4 C 8,3 C 87 % 1016,0 hPa 0,0 l/m 3,2 km/h (1 Bft) W-SW 247 0 min 0,0 UV-I 0 W/m 8,3 C 10,4 C 6,4 km/h (2 Bft)
15.05.2023 01:58 10,4 C 8,3 C 87 % 1016,0 hPa 0,0 l/m 1,6 km/h (1 Bft) W-SW 247 0 min 0,0 UV-I 0 W/m 8,3 C 10,4 C 3,2 km/h (1 Bft)
15.05.2023 01:59 10,4 C 8,3 C 86 % 1015,9 hPa 0,0 l/m 1,6 km/h (1 Bft) W-SW 247 0 min 0,0 UV-I 0 W/m 8,2 C 10,4 C 3,2 km/h (1 Bft)
15.05.2023 02:00 10,4 C 8,3 C 86 % 1015,8 hPa 0,0 l/m 1,6 km/h (1 Bft) W-SW 247 0 min 0,0 UV-I 0 W/m 8,2 C 10,4 C 3,2 km/h (1 Bft)
15.05.2023 02:01 10,3 C 8,3 C 86 % 1016,0 hPa 0,0 l/m 1,6 km/h (1 Bft) W-SW 247 0 min 0,0 UV-I 0 W/m 8,1 C 10,3 C 3,2 km/h (1 Bft)
15.05.2023 02:02 10,3 C 8,3 C 87 % 1015,8 hPa 0,0 l/m 1,6 km/h (1 Bft) W-SW 247 0 min 0,0 UV-I 0 W/m 8,2 C 10,3 C 3,2 km/h (1 Bft)
15.05.2023 02:03 10,3 C 8,3 C 87 % 1015,9 hPa 0,0 l/m 0,0 km/h (0 Bft) W-SW 247 0 min 0,0 UV-I 0 W/m 8,2 C 10,3 C 1,6 km/h (1 Bft)
15.05.2023 02:04 10,2 C 8,3 C 87 % 1015,9 hPa 0,0 l/m 0,0 km/h (0 Bft) W-SW 247 0 min 0,0 UV-I 0 W/m 8,1 C 10,2 C 1,6 km/h (1 Bft)
15.05.2023 02:05 10,2 C 7,8 C 87 % 1016,0 hPa 0,0 l/m 0,0 km/h (0 Bft) W-SW 247 0 min 0,0 UV-I 0 W/m 8,1 C 10,2 C 1,6 km/h (1 Bft)
15.05.2023 02:06 10,2 C 7,8 C 87 % 1016,0 hPa 0,0 l/m 0,0 km/h (0 Bft) W-SW 247 0 min 0,0 UV-I 0 W/m 8,1 C 10,2 C 1,6 km/h (1 Bft)
15.05.2023 02:07 10,2 C 7,8 C 87 % 1015,8 hPa 0,0 l/m 0,0 km/h (0 Bft) W-SW 247 0 min 0,0 UV-I 0 W/m 8,1 C 10,2 C 1,6 km/h (1 Bft)
15.05.2023 02:08 10,2 C 7,8 C 87 % 1016,0 hPa 0,0 l/m 0,0 km/h (0 Bft) W-SW 247 0 min 0,0 UV-I 0 W/m 8,1 C 10,2 C 1,6 km/h (1 Bft)
15.05.2023 02:09 10,1 C 7,8 C 87 % 1016,0 hPa 0,0 l/m 1,6 km/h (1 Bft) W-SW 247 0 min 0,0 UV-I 0 W/m 8,0 C 10,1 C 3,2 km/h (1 Bft)
15.05.2023 02:10 10,1 C 7,8 C 88 % 1015,9 hPa 0,0 l/m 1,6 km/h (1 Bft) W-SW 247 0 min 0,0 UV-I 0 W/m 8,2 C 10,1 C 4,8 km/h (1 Bft)
15.05.2023 02:11 10,1 C 7,8 C 88 % 1015,8 hPa 0,0 l/m 1,6 km/h (1 Bft) W-SW 247 0 min 0,0 UV-I 0 W/m 8,2 C 10,1 C 4,8 km/h (1 Bft)
15.05.2023 02:12 10,1 C 7,8 C 88 % 1015,9 hPa 0,0 l/m 1,6 km/h (1 Bft) W 270 0 min 0,0 UV-I 0 W/m 8,2 C 10,1 C 3,2 km/h (1 Bft)
15.05.2023 02:13 10,1 C 7,8 C 88 % 1015,8 hPa 0,0 l/m 0,0 km/h (0 Bft) W 270 0 min 0,0 UV-I 0 W/m 8,2 C 10,1 C 1,6 km/h (1 Bft)
15.05.2023 02:14 10,2 C 7,2 C 88 % 1015,8 hPa 0,0 l/m 0,0 km/h (0 Bft) N 0 0 min 0,0 UV-I 0 W/m 8,3 C 10,2 C 0,0 km/h (0 Bft)
15.05.2023 02:15 10,1 C 7,8 C 88 % 1015,8 hPa 0,0 l/m 3,2 km/h (1 Bft) W 270 0 min 0,0 UV-I 0 W/m 8,2 C 10,1 C 4,8 km/h (1 Bft)
15.05.2023 02:16 10,2 C 7,8 C 89 % 1015,8 hPa 0,0 l/m 1,6 km/h (1 Bft) W 270 0 min 0,0 UV-I 0 W/m 8,5 C 10,2 C 3,2 km/h (1 Bft)
15.05.2023 02:17 10,1 C 7,8 C 89 % 1015,8 hPa 0,0 l/m 1,6 km/h (1 Bft) W 270 0 min 0,0 UV-I 0 W/m 8,4 C 10,1 C 3,2 km/h (1 Bft)
15.05.2023 02:18 10,0 C 7,8 C 88 % 1015,9 hPa 0,0 l/m 1,6 km/h (1 Bft) W 270 0 min 0,0 UV-I 0 W/m 8,1 C 10,0 C 3,2 km/h (1 Bft)
15.05.2023 02:19 10,0 C 7,8 C 88 % 1015,8 hPa 0,0 l/m 3,2 km/h (1 Bft) W 270 0 min 0,0 UV-I 0 W/m 8,1 C 10,0 C 8,0 km/h (2 Bft)
15.05.2023 02:20 10,1 C 7,2 C 89 % 1015,8 hPa 0,0 l/m 4,8 km/h (1 Bft) W 270 0 min 0,0 UV-I 0 W/m 8,4 C 10,1 C 6,4 km/h (2 Bft)
15.05.2023 02:21 10,1 C 7,8 C 89 % 1015,9 hPa 0,0 l/m 3,2 km/h (1 Bft) W 270 0 min 0,0 UV-I 0 W/m 8,4 C 10,1 C 4,8 km/h (1 Bft)
15.05.2023 02:22 10,1 C 7,8 C 89 % 1015,8 hPa 0,0 l/m 1,6 km/h (1 Bft) W 270 0 min 0,0 UV-I 0 W/m 8,4 C 10,1 C 3,2 km/h (1 Bft)
15.05.2023 02:23 10,1 C 7,8 C 89 % 1015,8 hPa 0,0 l/m 0,0 km/h (0 Bft) W 270 0 min 0,0 UV-I 0 W/m 8,4 C 10,1 C 1,6 km/h (1 Bft)
15.05.2023 02:24 10,0 C 7,2 C 89 % 1015,8 hPa 0,0 l/m 0,0 km/h (0 Bft) W 270 0 min 0,0 UV-I 0 W/m 8,3 C 10,0 C 1,6 km/h (1 Bft)
15.05.2023 02:25 10,0 C 7,8 C 89 % 1015,9 hPa 0,0 l/m 0,0 km/h (0 Bft) W 270 0 min 0,0 UV-I 0 W/m 8,3 C 10,0 C 1,6 km/h (1 Bft)
15.05.2023 02:26 9,9 C 7,8 C 89 % 1015,8 hPa 0,0 l/m 1,6 km/h (1 Bft) W 270 0 min 0,0 UV-I 0 W/m 8,2 C 9,9 C 1,6 km/h (1 Bft)
15.05.2023 02:27 10,0 C 7,8 C 89 % 1016,0 hPa 0,0 l/m 3,2 km/h (1 Bft) W 270 0 min 0,0 UV-I 0 W/m 8,3 C 10,0 C 6,4 km/h (2 Bft)
15.05.2023 02:28 10,1 C 7,8 C 90 % 1015,8 hPa 0,0 l/m 1,6 km/h (1 Bft) W 270 0 min 0,0 UV-I 0 W/m 8,5 C 10,1 C 4,8 km/h (1 Bft)
15.05.2023 02:29 10,0 C 7,8 C 89 % 1015,8 hPa 0,0 l/m 0,0 km/h (0 Bft) N 0 0 min 0,0 UV-I 0 W/m 8,3 C 10,0 C 0,0 km/h (0 Bft)
15.05.2023 02:30 9,9 C 7,8 C 89 % 1015,8 hPa 0,0 l/m 0,0 km/h (0 Bft) N 0 0 min 0,0 UV-I 0 W/m 8,2 C 9,9 C 0,0 km/h (0 Bft)
15.05.2023 02:31 9,9 C 7,8 C 89 % 1015,8 hPa 0,0 l/m 0,0 km/h (0 Bft) W 270 0 min 0,0 UV-I 0 W/m 8,2 C 9,9 C 1,6 km/h (1 Bft)
15.05.2023 02:32 9,9 C 7,8 C 89 % 1015,8 hPa 0,0 l/m 0,0 km/h (0 Bft) W 270 0 min 0,0 UV-I 0 W/m 8,2 C 9,9 C 1,6 km/h (1 Bft)
15.05.2023 02:33 9,8 C 7,8 C 89 % 1015,8 hPa 0,0 l/m 0,0 km/h (0 Bft) W 270 0 min 0,0 UV-I 0 W/m 8,1 C 9,8 C 1,6 km/h (1 Bft)
15.05.2023 02:34 9,8 C 7,2 C 89 % 1015,9 hPa 0,0 l/m 0,0 km/h (0 Bft) W 270 0 min 0,0 UV-I 0 W/m 8,1 C 9,8 C 1,6 km/h (1 Bft)
15.05.2023 02:35 9,8 C 7,8 C 89 % 1015,9 hPa 0,0 l/m 0,0 km/h (0 Bft) N 0 0 min 0,0 UV-I 0 W/m 8,1 C 9,8 C 0,0 km/h (0 Bft)
15.05.2023 02:36 9,7 C 7,2 C 89 % 1015,8 hPa 0,0 l/m 0,0 km/h (0 Bft) N 0 0 min 0,0 UV-I 0 W/m 8,0 C 9,7 C 0,0 km/h (0 Bft)
15.05.2023 02:37 9,8 C 7,2 C 89 % 1015,8 hPa 0,0 l/m 0,0 km/h (0 Bft) N 0 0 min 0,0 UV-I 0 W/m 8,1 C 9,8 C 0,0 km/h (0 Bft)
15.05.2023 02:38 9,8 C 7,8 C 90 % 1015,8 hPa 0,0 l/m 0,0 km/h (0 Bft) W 270 0 min 0,0 UV-I 0 W/m 8,2 C 9,8 C 1,6 km/h (1 Bft)
15.05.2023 02:39 9,8 C 7,8 C 90 % 1015,7 hPa 0,0 l/m 1,6 km/h (1 Bft) W 270 0 min 0,0 UV-I 0 W/m 8,2 C 9,8 C 3,2 km/h (1 Bft)
15.05.2023 02:40 9,8 C 7,2 C 90 % 1015,7 hPa 0,0 l/m 3,2 km/h (1 Bft) W 270 0 min 0,0 UV-I 0 W/m 8,2 C 9,8 C 4,8 km/h (1 Bft)
15.05.2023 02:41 9,8 C 7,2 C 90 % 1015,8 hPa 0,0 l/m 3,2 km/h (1 Bft) W 270 0 min 0,0 UV-I 0 W/m 8,2 C 9,8 C 4,8 km/h (1 Bft)
15.05.2023 02:42 9,8 C 7,2 C 90 % 1015,8 hPa 0,0 l/m 1,6 km/h (1 Bft) W 270 0 min 0,0 UV-I 0 W/m 8,2 C 9,8 C 3,2 km/h (1 Bft)
15.05.2023 02:43 9,8 C 7,8 C 90 % 1015,8 hPa 0,0 l/m 3,2 km/h (1 Bft) W 270 0 min 0,0 UV-I 0 W/m 8,2 C 9,8 C 4,8 km/h (1 Bft)
15.05.2023 02:44 9,8 C 7,8 C 90 % 1015,8 hPa 0,0 l/m 3,2 km/h (1 Bft) W 270 0 min 0,0 UV-I 0 W/m 8,2 C 9,8 C 6,4 km/h (2 Bft)
15.05.2023 02:45 9,9 C 7,8 C 90 % 1015,8 hPa 0,0 l/m 1,6 km/h (1 Bft) W 270 0 min 0,0 UV-I 0 W/m 8,3 C 9,9 C 4,8 km/h (1 Bft)
15.05.2023 02:46 9,8 C 7,8 C 90 % 1015,8 hPa 0,0 l/m 3,2 km/h (1 Bft) W 270 0 min 0,0 UV-I 0 W/m 8,2 C 9,8 C 4,8 km/h (1 Bft)
15.05.2023 02:47 9,8 C 7,8 C 90 % 1015,8 hPa 0,0 l/m 4,8 km/h (1 Bft) W 270 0 min 0,0 UV-I 0 W/m 8,2 C 9,8 C 4,8 km/h (1 Bft)
15.05.2023 02:48 9,8 C 7,8 C 90 % 1015,7 hPa 0,0 l/m 3,2 km/h (1 Bft) W 270 0 min 0,0 UV-I 0 W/m 8,2 C 9,8 C 4,8 km/h (1 Bft)
15.05.2023 02:49 9,7 C 7,8 C 90 % 1015,8 hPa 0,0 l/m 3,2 km/h (1 Bft) W 270 0 min 0,0 UV-I 0 W/m 8,1 C 9,7 C 4,8 km/h (1 Bft)
15.05.2023 02:50 9,7 C 7,8 C 90 % 1015,8 hPa 0,0 l/m 3,2 km/h (1 Bft) W 270 0 min 0,0 UV-I 0 W/m 8,1 C 9,7 C 4,8 km/h (1 Bft)
15.05.2023 02:51 9,7 C 7,8 C 90 % 1015,9 hPa 0,0 l/m 4,8 km/h (1 Bft) W 270 0 min 0,0 UV-I 0 W/m 8,1 C 9,7 C 9,7 km/h (2 Bft)
15.05.2023 02:52 9,7 C 7,8 C 90 % 1015,8 hPa 0,0 l/m 4,8 km/h (1 Bft) W 270 0 min 0,0 UV-I 0 W/m 8,1 C 9,7 C 6,4 km/h (2 Bft)
15.05.2023 02:53 9,7 C 7,8 C 90 % 1015,7 hPa 0,0 l/m 3,2 km/h (1 Bft) W 270 0 min 0,0 UV-I 0 W/m 8,1 C 9,7 C 4,8 km/h (1 Bft)
15.05.2023 02:54 9,7 C 7,8 C 90 % 1015,8 hPa 0,0 l/m 4,8 km/h (1 Bft) W 270 0 min 0,0 UV-I 0 W/m 8,1 C 9,7 C 6,4 km/h (2 Bft)
15.05.2023 02:55 9,7 C 7,8 C 90 % 1015,7 hPa 0,0 l/m 4,8 km/h (1 Bft) W-SW 247 0 min 0,0 UV-I 0 W/m 8,1 C 9,7 C 6,4 km/h (2 Bft)
15.05.2023 02:56 9,7 C 7,8 C 90 % 1015,7 hPa 0,0 l/m 4,8 km/h (1 Bft) W-SW 247 0 min 0,0 UV-I 0 W/m 8,1 C 9,7 C 6,4 km/h (2 Bft)
15.05.2023 02:57 9,7 C 7,8 C 90 % 1015,7 hPa 0,0 l/m 4,8 km/h (1 Bft) W-SW 247 0 min 0,0 UV-I 0 W/m 8,1 C 9,7 C 6,4 km/h (2 Bft)
15.05.2023 02:58 9,7 C 7,8 C 90 % 1015,7 hPa 0,0 l/m 4,8 km/h (1 Bft) W-SW 247 0 min 0,0 UV-I 0 W/m 8,1 C 9,7 C 6,4 km/h (2 Bft)
15.05.2023 02:59 9,7 C 7,8 C 90 % 1015,7 hPa 0,0 l/m 4,8 km/h (1 Bft) W-SW 247 0 min 0,0 UV-I 0 W/m 8,1 C 9,7 C 6,4 km/h (2 Bft)
15.05.2023 03:00 9,7 C 7,8 C 90 % 1015,7 hPa 0,0 l/m 4,8 km/h (1 Bft) W-SW 247 0 min 0,0 UV-I 0 W/m 8,1 C 9,7 C 6,4 km/h (2 Bft)
15.05.2023 03:01 9,7 C 7,8 C 90 % 1015,7 hPa 0,0 l/m 3,2 km/h (1 Bft) W-SW 247 0 min 0,0 UV-I 0 W/m 8,1 C 9,7 C 6,4 km/h (2 Bft)
15.05.2023 03:02 9,7 C 7,8 C 90 % 1015,7 hPa 0,0 l/m 3,2 km/h (1 Bft) W-SW 247 0 min 0,0 UV-I 0 W/m 8,1 C 9,7 C 4,8 km/h (1 Bft)
15.05.2023 03:03 9,7 C 7,8 C 90 % 1015,6 hPa 0,0 l/m 6,4 km/h (2 Bft) W-SW 247 0 min 0,0 UV-I 0 W/m 8,1 C 9,7 C 6,4 km/h (2 Bft)
15.05.2023 03:04 9,7 C 7,8 C 90 % 1015,7 hPa 0,0 l/m 4,8 km/h (1 Bft) W 270 0 min 0,0 UV-I 0 W/m 8,1 C 9,7 C 6,4 km/h (2 Bft)
15.05.2023 03:05 9,7 C 7,8 C 90 % 1015,7 hPa 0,0 l/m 6,4 km/h (2 Bft) W-SW 247 0 min 0,0 UV-I 0 W/m 8,1 C 9,7 C 9,7 km/h (2 Bft)
15.05.2023 03:06 9,7 C 7,8 C 90 % 1015,7 hPa 0,0 l/m 4,8 km/h (1 Bft) W 270 0 min 0,0 UV-I 0 W/m 8,1 C 9,7 C 9,7 km/h (2 Bft)
15.05.2023 03:07 9,7 C 7,8 C 91 % 1015,6 hPa 0,0 l/m 4,8 km/h (1 Bft) W 270 0 min 0,0 UV-I 0 W/m 8,3 C 9,7 C 6,4 km/h (2 Bft)
15.05.2023 03:08 9,7 C 8,3 C 91 % 1015,7 hPa 0,0 l/m 4,8 km/h (1 Bft) W 270 0 min 0,0 UV-I 0 W/m 8,3 C 9,7 C 6,4 km/h (2 Bft)
15.05.2023 03:09 9,7 C 8,3 C 91 % 1015,7 hPa 0,0 l/m 3,2 km/h (1 Bft) W 270 0 min 0,0 UV-I 0 W/m 8,3 C 9,7 C 6,4 km/h (2 Bft)
15.05.2023 03:10 9,7 C 8,3 C 91 % 1015,7 hPa 0,0 l/m 3,2 km/h (1 Bft) W 270 0 min 0,0 UV-I 0 W/m 8,3 C 9,7 C 4,8 km/h (1 Bft)
15.05.2023 03:11 9,7 C 7,8 C 90 % 1015,6 hPa 0,0 l/m 3,2 km/h (1 Bft) W 270 0 min 0,0 UV-I 0 W/m 8,1 C 9,7 C 4,8 km/h (1 Bft)
15.05.2023 03:12 9,7 C 8,3 C 91 % 1015,7 hPa 0,0 l/m 4,8 km/h (1 Bft) W 270 0 min 0,0 UV-I 0 W/m 8,3 C 9,7 C 6,4 km/h (2 Bft)
15.05.2023 03:13 9,7 C 8,3 C 91 % 1015,7 hPa 0,0 l/m 3,2 km/h (1 Bft) W 270 0 min 0,0 UV-I 0 W/m 8,3 C 9,7 C 4,8 km/h (1 Bft)
15.05.2023 03:14 9,6 C 8,3 C 91 % 1015,7 hPa 0,0 l/m 1,6 km/h (1 Bft) W 270 0 min 0,0 UV-I 0 W/m 8,2 C 9,6 C 3,2 km/h (1 Bft)
15.05.2023 03:15 9,7 C 7,8 C 91 % 1015,7 hPa 0,0 l/m 3,2 km/h (1 Bft) W 270 0 min 0,0 UV-I 0 W/m 8,3 C 9,7 C 4,8 km/h (1 Bft)
15.05.2023 03:16 9,7 C 7,8 C 91 % 1015,7 hPa 0,0 l/m 0,0 km/h (0 Bft) W 270 0 min 0,0 UV-I 0 W/m 8,3 C 9,7 C 1,6 km/h (1 Bft)
15.05.2023 03:17 9,7 C 7,8 C 91 % 1015,7 hPa 0,0 l/m 0,0 km/h (0 Bft) W 270 0 min 0,0 UV-I 0 W/m 8,3 C 9,7 C 1,6 km/h (1 Bft)
15.05.2023 03:18 9,7 C 7,8 C 91 % 1015,7 hPa 0,0 l/m 1,6 km/h (1 Bft) W 270 0 min 0,0 UV-I 0 W/m 8,3 C 9,7 C 3,2 km/h (1 Bft)
15.05.2023 03:19 9,7 C 7,8 C 91 % 1015,7 hPa 0,0 l/m 1,6 km/h (1 Bft) W 270 0 min 0,0 UV-I 0 W/m 8,3 C 9,7 C 3,2 km/h (1 Bft)
15.05.2023 03:20 9,7 C 7,8 C 91 % 1015,7 hPa 0,0 l/m 3,2 km/h (1 Bft) W 270 0 min 0,0 UV-I 0 W/m 8,3 C 9,7 C 6,4 km/h (2 Bft)
15.05.2023 03:21 9,7 C 7,8 C 91 % 1015,7 hPa 0,0 l/m 3,2 km/h (1 Bft) W 270 0 min 0,0 UV-I 0 W/m 8,3 C 9,7 C 6,4 km/h (2 Bft)
15.05.2023 03:22 9,6 C 7,8 C 91 % 1015,7 hPa 0,0 l/m 1,6 km/h (1 Bft) W 270 0 min 0,0 UV-I 0 W/m 8,2 C 9,6 C 3,2 km/h (1 Bft)
15.05.2023 03:23 9,6 C 7,8 C 91 % 1015,7 hPa 0,0 l/m 1,6 km/h (1 Bft) W 270 0 min 0,0 UV-I 0 W/m 8,2 C 9,6 C 3,2 km/h (1 Bft)
15.05.2023 03:24 9,4 C 7,8 C 90 % 1015,7 hPa 0,0 l/m 1,6 km/h (1 Bft) W 270 0 min 0,0 UV-I 0 W/m 7,8 C 9,4 C 3,2 km/h (1 Bft)
15.05.2023 03:25 9,5 C 7,8 C 91 % 1015,7 hPa 0,0 l/m 1,6 km/h (1 Bft) W 270 0 min 0,0 UV-I 0 W/m 8,1 C 9,5 C 1,6 km/h (1 Bft)
15.05.2023 03:26 9,5 C 7,8 C 91 % 1015,7 hPa 0,0 l/m 0,0 km/h (0 Bft) W 270 0 min 0,0 UV-I 0 W/m 8,1 C 9,5 C 1,6 km/h (1 Bft)
15.05.2023 03:27 9,5 C 7,8 C 91 % 1015,8 hPa 0,0 l/m 0,0 km/h (0 Bft) N 0 0 min 0,0 UV-I 0 W/m 8,1 C 9,5 C 0,0 km/h (0 Bft)
15.05.2023 03:28 9,4 C 7,8 C 91 % 1015,7 hPa 0,0 l/m 0,0 km/h (0 Bft) N 0 0 min 0,0 UV-I 0 W/m 8,0 C 9,4 C 0,0 km/h (0 Bft)
15.05.2023 03:29 9,4 C 7,8 C 91 % 1015,7 hPa 0,0 l/m 0,0 km/h (0 Bft) W 270 0 min 0,0 UV-I 0 W/m 8,0 C 9,4 C 3,2 km/h (1 Bft)
15.05.2023 03:30 9,4 C 7,8 C 91 % 1015,7 hPa 0,0 l/m 1,6 km/h (1 Bft) W 270 0 min 0,0 UV-I 0 W/m 8,0 C 9,4 C 3,2 km/h (1 Bft)
15.05.2023 03:31 9,3 C 7,8 C 91 % 1015,8 hPa 0,0 l/m 0,0 km/h (0 Bft) W 270 0 min 0,0 UV-I 0 W/m 7,9 C 9,3 C 1,6 km/h (1 Bft)
15.05.2023 03:32 9,3 C 7,8 C 91 % 1015,7 hPa 0,0 l/m 0,0 km/h (0 Bft) N 0 0 min 0,0 UV-I 0 W/m 7,9 C 9,3 C 0,0 km/h (0 Bft)
15.05.2023 03:33 9,3 C 7,8 C 91 % 1015,7 hPa 0,0 l/m 1,6 km/h (1 Bft) W 270 0 min 0,0 UV-I 0 W/m 7,9 C 9,3 C 1,6 km/h (1 Bft)
15.05.2023 03:34 9,3 C 7,8 C 91 % 1015,7 hPa 0,0 l/m 1,6 km/h (1 Bft) W 270 0 min 0,0 UV-I 0 W/m 7,9 C 9,3 C 3,2 km/h (1 Bft)
15.05.2023 03:35 9,3 C 7,8 C 91 % 1015,7 hPa 0,0 l/m 1,6 km/h (1 Bft) W 270 0 min 0,0 UV-I 0 W/m 7,9 C 9,3 C 3,2 km/h (1 Bft)
15.05.2023 03:36 9,3 C 7,8 C 91 % 1015,6 hPa 0,0 l/m 1,6 km/h (1 Bft) W 270 0 min 0,0 UV-I 0 W/m 7,9 C 9,3 C 3,2 km/h (1 Bft)
15.05.2023 03:37 9,3 C 7,2 C 91 % 1015,6 hPa 0,0 l/m 1,6 km/h (1 Bft) W 270 0 min 0,0 UV-I 0 W/m 7,9 C 9,3 C 3,2 km/h (1 Bft)
15.05.2023 03:38 9,2 C 7,2 C 91 % 1015,6 hPa 0,0 l/m 1,6 km/h (1 Bft) W 270 0 min 0,0 UV-I 0 W/m 7,8 C 9,2 C 3,2 km/h (1 Bft)
15.05.2023 03:39 9,2 C 7,2 C 91 % 1015,6 hPa 0,0 l/m 3,2 km/h (1 Bft) W 270 0 min 0,0 UV-I 0 W/m 7,8 C 9,2 C 4,8 km/h (1 Bft)
15.05.2023 03:40 9,2 C 7,2 C 91 % 1015,6 hPa 0,0 l/m 3,2 km/h (1 Bft) W 270 0 min 0,0 UV-I 0 W/m 7,8 C 9,2 C 4,8 km/h (1 Bft)
15.05.2023 03:41 9,2 C 7,2 C 91 % 1015,5 hPa 0,0 l/m 1,6 km/h (1 Bft) W 270 0 min 0,0 UV-I 0 W/m 7,8 C 9,2 C 3,2 km/h (1 Bft)
15.05.2023 03:42 9,1 C 7,2 C 91 % 1015,5 hPa 0,0 l/m 0,0 km/h (0 Bft) W 270 0 min 0,0 UV-I 0 W/m 7,7 C 9,1 C 1,6 km/h (1 Bft)
15.05.2023 03:43 9,1 C 7,2 C 91 % 1015,5 hPa 0,0 l/m 0,0 km/h (0 Bft) W 270 0 min 0,0 UV-I 0 W/m 7,7 C 9,1 C 1,6 km/h (1 Bft)
15.05.2023 03:44 9,1 C 7,2 C 91 % 1015,5 hPa 0,0 l/m 1,6 km/h (1 Bft) W 270 0 min 0,0 UV-I 0 W/m 7,7 C 9,1 C 3,2 km/h (1 Bft)
15.05.2023 03:45 9,1 C 7,2 C 91 % 1015,4 hPa 0,0 l/m 1,6 km/h (1 Bft) W 270 0 min 0,0 UV-I 0 W/m 7,7 C 9,1 C 3,2 km/h (1 Bft)
15.05.2023 03:46 9,2 C 7,2 C 91 % 1015,5 hPa 0,0 l/m 1,6 km/h (1 Bft) W 270 0 min 0,0 UV-I 0 W/m 7,8 C 9,2 C 3,2 km/h (1 Bft)
15.05.2023 03:47 9,2 C 7,2 C 91 % 1015,4 hPa 0,0 l/m 1,6 km/h (1 Bft) W 270 0 min 0,0 UV-I 0 W/m 7,8 C 9,2 C 3,2 km/h (1 Bft)
15.05.2023 03:48 9,2 C 7,2 C 91 % 1015,5 hPa 0,0 l/m 3,2 km/h (1 Bft) W 270 0 min 0,0 UV-I 0 W/m 7,8 C 9,2 C 3,2 km/h (1 Bft)
15.05.2023 03:49 9,2 C 7,2 C 92 % 1015,4 hPa 0,0 l/m 3,2 km/h (1 Bft) W 270 0 min 0,0 UV-I 0 W/m 8,0 C 9,2 C 4,8 km/h (1 Bft)
15.05.2023 03:50 9,3 C 7,2 C 92 % 1015,4 hPa 0,0 l/m 3,2 km/h (1 Bft) W 270 0 min 0,0 UV-I 0 W/m 8,1 C 9,3 C 4,8 km/h (1 Bft)
15.05.2023 03:51 9,3 C 7,8 C 92 % 1015,5 hPa 0,0 l/m 3,2 km/h (1 Bft) W 270 0 min 0,0 UV-I 0 W/m 8,1 C 9,3 C 4,8 km/h (1 Bft)
15.05.2023 03:52 9,3 C 7,8 C 92 % 1015,4 hPa 0,0 l/m 3,2 km/h (1 Bft) W 270 0 min 0,0 UV-I 0 W/m 8,1 C 9,3 C 4,8 km/h (1 Bft)
15.05.2023 03:53 9,3 C 7,8 C 92 % 1015,4 hPa 0,0 l/m 3,2 km/h (1 Bft) W 270 0 min 0,0 UV-I 0 W/m 8,1 C 9,3 C 4,8 km/h (1 Bft)
15.05.2023 03:54 9,3 C 7,8 C 91 % 1015,4 hPa 0,0 l/m 3,2 km/h (1 Bft) W 270 0 min 0,0 UV-I 0 W/m 7,9 C 9,3 C 4,8 km/h (1 Bft)
15.05.2023 03:55 9,3 C 7,8 C 91 % 1015,5 hPa 0,0 l/m 3,2 km/h (1 Bft) W 270 0 min 0,0 UV-I 0 W/m 7,9 C 9,3 C 4,8 km/h (1 Bft)
15.05.2023 03:56 9,3 C 7,2 C 91 % 1015,4 hPa 0,0 l/m 3,2 km/h (1 Bft) W 270 0 min 0,0 UV-I 0 W/m 7,9 C 9,3 C 4,8 km/h (1 Bft)
15.05.2023 03:57 9,3 C 7,8 C 92 % 1015,5 hPa 0,0 l/m 4,8 km/h (1 Bft) W-SW 247 0 min 0,0 UV-I 0 W/m 8,1 C 9,3 C 6,4 km/h (2 Bft)
15.05.2023 03:58 9,3 C 7,8 C 91 % 1015,5 hPa 0,0 l/m 3,2 km/h (1 Bft) W-SW 247 0 min 0,0 UV-I 0 W/m 7,9 C 9,3 C 4,8 km/h (1 Bft)
15.05.2023 03:59 9,3 C 7,8 C 92 % 1015,5 hPa 0,0 l/m 3,2 km/h (1 Bft) W-SW 247 0 min 0,0 UV-I 0 W/m 8,1 C 9,3 C 4,8 km/h (1 Bft)
15.05.2023 04:00 9,3 C 7,8 C 92 % 1015,4 hPa 0,0 l/m 3,2 km/h (1 Bft) W-SW 247 0 min 0,0 UV-I 0 W/m 8,1 C 9,3 C 4,8 km/h (1 Bft)
15.05.2023 04:01 9,3 C 7,8 C 92 % 1015,4 hPa 0,0 l/m 3,2 km/h (1 Bft) W-SW 247 0 min 0,0 UV-I 0 W/m 8,1 C 9,3 C 3,2 km/h (1 Bft)
15.05.2023 04:02 9,3 C 7,2 C 92 % 1015,4 hPa 0,0 l/m 3,2 km/h (1 Bft) W-SW 247 0 min 0,0 UV-I 0 W/m 8,1 C 9,3 C 3,2 km/h (1 Bft)
15.05.2023 04:03 9,3 C 7,2 C 92 % 1015,4 hPa 0,0 l/m 4,8 km/h (1 Bft) W-SW 247 0 min 0,0 UV-I 0 W/m 8,1 C 9,3 C 4,8 km/h (1 Bft)
15.05.2023 04:04 9,3 C 7,2 C 92 % 1015,4 hPa 0,0 l/m 4,8 km/h (1 Bft) W-SW 247 0 min 0,0 UV-I 0 W/m 8,1 C 9,3 C 4,8 km/h (1 Bft)
15.05.2023 04:05 9,3 C 7,2 C 92 % 1015,4 hPa 0,0 l/m 4,8 km/h (1 Bft) W-SW 247 0 min 0,0 UV-I 0 W/m 8,1 C 9,3 C 6,4 km/h (2 Bft)
15.05.2023 04:06 9,3 C 7,2 C 92 % 1015,5 hPa 0,0 l/m 4,8 km/h (1 Bft) W-SW 247 0 min 0,0 UV-I 0 W/m 8,1 C 9,3 C 4,8 km/h (1 Bft)
15.05.2023 04:07 9,3 C 7,2 C 92 % 1015,5 hPa 0,0 l/m 3,2 km/h (1 Bft) W-SW 247 0 min 0,0 UV-I 0 W/m 8,1 C 9,3 C 4,8 km/h (1 Bft)
15.05.2023 04:08 9,3 C 7,2 C 92 % 1015,4 hPa 0,0 l/m 3,2 km/h (1 Bft) W-SW 247 0 min 0,0 UV-I 0 W/m 8,1 C 9,3 C 4,8 km/h (1 Bft)
15.05.2023 04:09 9,3 C 7,8 C 92 % 1015,4 hPa 0,0 l/m 3,2 km/h (1 Bft) W-SW 247 0 min 0,0 UV-I 0 W/m 8,1 C 9,3 C 3,2 km/h (1 Bft)
15.05.2023 04:10 9,3 C 7,2 C 92 % 1015,3 hPa 0,0 l/m 3,2 km/h (1 Bft) W-SW 247 0 min 0,0 UV-I 0 W/m 8,1 C 9,3 C 4,8 km/h (1 Bft)
15.05.2023 04:11 9,3 C 7,2 C 92 % 1015,4 hPa 0,0 l/m 3,2 km/h (1 Bft) W-SW 247 0 min 0,0 UV-I 0 W/m 8,1 C 9,3 C 3,2 km/h (1 Bft)
15.05.2023 04:12 9,2 C 7,8 C 92 % 1015,4 hPa 0,0 l/m 1,6 km/h (1 Bft) W-SW 247 0 min 0,0 UV-I 0 W/m 8,0 C 9,2 C 3,2 km/h (1 Bft)
15.05.2023 04:13 9,2 C 7,2 C 91 % 1015,4 hPa 0,0 l/m 3,2 km/h (1 Bft) W-SW 247 0 min 0,0 UV-I 0 W/m 7,8 C 9,2 C 3,2 km/h (1 Bft)
15.05.2023 04:14 9,1 C 7,2 C 91 % 1015,3 hPa 0,0 l/m 3,2 km/h (1 Bft) W-SW 247 0 min 0,0 UV-I 0 W/m 7,7 C 9,1 C 3,2 km/h (1 Bft)
15.05.2023 04:15 9,1 C 7,2 C 92 % 1015,3 hPa 0,0 l/m 3,2 km/h (1 Bft) W-SW 247 0 min 0,0 UV-I 0 W/m 7,9 C 9,1 C 4,8 km/h (1 Bft)
15.05.2023 04:16 9,1 C 7,2 C 92 % 1015,4 hPa 0,0 l/m 1,6 km/h (1 Bft) W-SW 247 0 min 0,0 UV-I 0 W/m 7,9 C 9,1 C 3,2 km/h (1 Bft)
15.05.2023 04:17 8,9 C 7,2 C 91 % 1015,3 hPa 0,0 l/m 1,6 km/h (1 Bft) W-SW 247 0 min 0,0 UV-I 0 W/m 7,5 C 8,9 C 3,2 km/h (1 Bft)
15.05.2023 04:18 8,9 C 7,2 C 91 % 1015,3 hPa 0,0 l/m 1,6 km/h (1 Bft) W-SW 247 0 min 0,0 UV-I 0 W/m 7,5 C 8,9 C 3,2 km/h (1 Bft)
15.05.2023 04:19 8,8 C 6,7 C 91 % 1015,3 hPa 0,0 l/m 1,6 km/h (1 Bft) W-SW 247 0 min 0,0 UV-I 0 W/m 7,4 C 8,8 C 1,6 km/h (1 Bft)
15.05.2023 04:20 8,8 C 6,7 C 91 % 1015,2 hPa 0,0 l/m 1,6 km/h (1 Bft) W-SW 247 0 min 0,0 UV-I 0 W/m 7,4 C 8,8 C 3,2 km/h (1 Bft)
15.05.2023 04:21 8,7 C 6,7 C 91 % 1015,3 hPa 0,0 l/m 1,6 km/h (1 Bft) W-SW 247 0 min 0,0 UV-I 0 W/m 7,3 C 8,7 C 3,2 km/h (1 Bft)
15.05.2023 04:22 8,7 C 6,7 C 92 % 1015,2 hPa 0,0 l/m 1,6 km/h (1 Bft) W-SW 247 0 min 0,0 UV-I 0 W/m 7,5 C 8,7 C 3,2 km/h (1 Bft)
15.05.2023 04:23 8,8 C 6,7 C 92 % 1015,3 hPa 0,0 l/m 1,6 km/h (1 Bft) W-SW 247 0 min 0,0 UV-I 0 W/m 7,6 C 8,8 C 3,2 km/h (1 Bft)
15.05.2023 04:24 8,7 C 6,7 C 92 % 1015,2 hPa 0,0 l/m 1,6 km/h (1 Bft) W-SW 247 0 min 0,0 UV-I 0 W/m 7,5 C 8,7 C 3,2 km/h (1 Bft)
15.05.2023 04:25 8,7 C 7,2 C 92 % 1015,3 hPa 0,0 l/m 1,6 km/h (1 Bft) W-SW 247 0 min 0,0 UV-I 0 W/m 7,5 C 8,7 C 3,2 km/h (1 Bft)
15.05.2023 04:26 8,7 C 7,2 C 92 % 1015,2 hPa 0,0 l/m 1,6 km/h (1 Bft) W-SW 247 0 min 0,0 UV-I 0 W/m 7,5 C 8,7 C 3,2 km/h (1 Bft)
15.05.2023 04:27 8,7 C 7,2 C 92 % 1015,2 hPa 0,0 l/m 1,6 km/h (1 Bft) W-SW 247 0 min 0,0 UV-I 0 W/m 7,5 C 8,7 C 3,2 km/h (1 Bft)
15.05.2023 04:28 8,8 C 7,2 C 92 % 1015,2 hPa 0,0 l/m 1,6 km/h (1 Bft) W-SW 247 0 min 0,0 UV-I 0 W/m 7,6 C 8,8 C 1,6 km/h (1 Bft)
15.05.2023 04:29 8,8 C 6,7 C 92 % 1015,3 hPa 0,0 l/m 1,6 km/h (1 Bft) W-SW 247 0 min 0,0 UV-I 0 W/m 7,6 C 8,8 C 1,6 km/h (1 Bft)
15.05.2023 04:30 8,8 C 6,7 C 92 % 1015,3 hPa 0,0 l/m 0,0 km/h (0 Bft) W-SW 247 0 min 0,0 UV-I 0 W/m 7,6 C 8,8 C 1,6 km/h (1 Bft)
15.05.2023 04:31 8,7 C 6,7 C 92 % 1015,2 hPa 0,0 l/m 0,0 km/h (0 Bft) N 0 0 min 0,0 UV-I 0 W/m 7,5 C 8,7 C 0,0 km/h (0 Bft)
15.05.2023 04:32 8,7 C 6,7 C 92 % 1015,3 hPa 0,0 l/m 0,0 km/h (0 Bft) N 0 0 min 0,0 UV-I 0 W/m 7,5 C 8,7 C 0,0 km/h (0 Bft)
15.05.2023 04:33 8,6 C 6,7 C 92 % 1015,2 hPa 0,0 l/m 0,0 km/h (0 Bft) N 0 0 min 0,0 UV-I 0 W/m 7,4 C 8,6 C 0,0 km/h (0 Bft)
15.05.2023 04:34 8,5 C 6,7 C 92 % 1015,2 hPa 0,0 l/m 0,0 km/h (0 Bft) N 0 0 min 0,0 UV-I 0 W/m 7,3 C 8,5 C 0,0 km/h (0 Bft)
15.05.2023 04:35 8,4 C 6,7 C 91 % 1015,2 hPa 0,0 l/m 0,0 km/h (0 Bft) N 0 0 min 0,0 UV-I 0 W/m 7,0 C 8,4 C 0,0 km/h (0 Bft)
15.05.2023 04:36 8,4 C 6,7 C 92 % 1015,2 hPa 0,0 l/m 0,0 km/h (0 Bft) W-SW 247 0 min 0,0 UV-I 0 W/m 7,2 C 8,4 C 1,6 km/h (1 Bft)
15.05.2023 04:37 8,4 C 6,7 C 92 % 1015,2 hPa 0,0 l/m 0,0 km/h (0 Bft) W-SW 247 0 min 0,0 UV-I 0 W/m 7,2 C 8,4 C 1,6 km/h (1 Bft)
15.05.2023 04:38 8,4 C 6,7 C 92 % 1015,2 hPa 0,0 l/m 0,0 km/h (0 Bft) W-SW 247 0 min 0,0 UV-I 0 W/m 7,2 C 8,4 C 1,6 km/h (1 Bft)
15.05.2023 04:39 8,4 C 6,7 C 92 % 1015,2 hPa 0,0 l/m 0,0 km/h (0 Bft) W-SW 247 0 min 0,0 UV-I 0 W/m 7,2 C 8,4 C 1,6 km/h (1 Bft)
15.05.2023 04:40 8,4 C 6,7 C 92 % 1015,2 hPa 0,0 l/m 0,0 km/h (0 Bft) W-SW 247 0 min 0,0 UV-I 0 W/m 7,2 C 8,4 C 1,6 km/h (1 Bft)
15.05.2023 04:41 8,5 C 6,7 C 92 % 1015,2 hPa 0,0 l/m 0,0 km/h (0 Bft) N 0 0 min 0,0 UV-I 0 W/m 7,3 C 8,5 C 0,0 km/h (0 Bft)
15.05.2023 04:42 8,6 C 6,7 C 92 % 1015,2 hPa 0,0 l/m 0,0 km/h (0 Bft) N 0 0 min 0,0 UV-I 0 W/m 7,4 C 8,6 C 0,0 km/h (0 Bft)
15.05.2023 04:43 8,6 C 6,7 C 92 % 1015,2 hPa 0,0 l/m 0,0 km/h (0 Bft) N 0 0 min 0,0 UV-I 0 W/m 7,4 C 8,6 C 0,0 km/h (0 Bft)
15.05.2023 04:44 8,6 C 6,7 C 92 % 1015,1 hPa 0,0 l/m 1,6 km/h (1 Bft) W-SW 247 0 min 0,0 UV-I 0 W/m 7,4 C 8,6 C 3,2 km/h (1 Bft)
15.05.2023 04:45 8,6 C 6,7 C 92 % 1015,2 hPa 0,0 l/m 3,2 km/h (1 Bft) W-SW 247 0 min 0,0 UV-I 0 W/m 7,4 C 8,6 C 3,2 km/h (1 Bft)
15.05.2023 04:46 8,6 C 6,7 C 92 % 1015,1 hPa 0,0 l/m 3,2 km/h (1 Bft) W-SW 247 0 min 0,0 UV-I 0 W/m 7,4 C 8,6 C 3,2 km/h (1 Bft)
15.05.2023 04:47 8,6 C 6,7 C 92 % 1015,1 hPa 0,0 l/m 1,6 km/h (1 Bft) W-SW 247 0 min 0,0 UV-I 0 W/m 7,4 C 8,6 C 3,2 km/h (1 Bft)
15.05.2023 04:48 8,6 C 6,1 C 92 % 1015,1 hPa 0,0 l/m 1,6 km/h (1 Bft) W-SW 247 0 min 0,0 UV-I 0 W/m 7,4 C 8,6 C 3,2 km/h (1 Bft)
15.05.2023 04:49 8,6 C 6,7 C 92 % 1015,1 hPa 0,0 l/m 1,6 km/h (1 Bft) W-SW 247 0 min 0,0 UV-I 0 W/m 7,4 C 8,6 C 3,2 km/h (1 Bft)
15.05.2023 04:50 8,6 C 6,7 C 92 % 1015,1 hPa 0,0 l/m 1,6 km/h (1 Bft) W-SW 247 0 min 0,0 UV-I 0 W/m 7,4 C 8,6 C 3,2 km/h (1 Bft)
15.05.2023 04:51 8,6 C 6,7 C 92 % 1015,1 hPa 0,0 l/m 3,2 km/h (1 Bft) W-SW 247 0 min 0,0 UV-I 0 W/m 7,4 C 8,6 C 3,2 km/h (1 Bft)
15.05.2023 04:52 8,6 C 6,7 C 92 % 1015,2 hPa 0,0 l/m 1,6 km/h (1 Bft) W-SW 247 0 min 0,0 UV-I 0 W/m 7,4 C 8,6 C 3,2 km/h (1 Bft)
15.05.2023 04:53 8,6 C 6,7 C 92 % 1015,1 hPa 0,0 l/m 3,2 km/h (1 Bft) W-SW 247 0 min 0,0 UV-I 0 W/m 7,4 C 8,6 C 3,2 km/h (1 Bft)
15.05.2023 04:54 8,5 C 6,7 C 92 % 1015,1 hPa 0,0 l/m 1,6 km/h (1 Bft) W-SW 247 0 min 0,0 UV-I 0 W/m 7,3 C 8,5 C 3,2 km/h (1 Bft)
15.05.2023 04:55 8,4 C 6,1 C 92 % 1015,2 hPa 0,0 l/m 1,6 km/h (1 Bft) W-SW 247 0 min 0,0 UV-I 0 W/m 7,2 C 8,4 C 3,2 km/h (1 Bft)
15.05.2023 04:56 8,3 C 6,1 C 92 % 1015,1 hPa 0,0 l/m 1,6 km/h (1 Bft) W-SW 247 0 min 0,0 UV-I 0 W/m 7,1 C 8,3 C 3,2 km/h (1 Bft)
15.05.2023 04:57 8,3 C 6,1 C 92 % 1015,1 hPa 0,0 l/m 1,6 km/h (1 Bft) W-SW 247 0 min 0,0 UV-I 0 W/m 7,1 C 8,3 C 3,2 km/h (1 Bft)
15.05.2023 04:58 8,1 C 5,6 C 91 % 1015,1 hPa 0,0 l/m 0,0 km/h (0 Bft) W-SW 247 0 min 0,0 UV-I 0 W/m 6,7 C 8,1 C 1,6 km/h (1 Bft)
15.05.2023 04:59 7,9 C 5,6 C 91 % 1015,1 hPa 0,0 l/m 0,0 km/h (0 Bft) N 0 0 min 0,0 UV-I 0 W/m 6,5 C 7,9 C 0,0 km/h (0 Bft)
15.05.2023 05:00 7,8 C 5,6 C 91 % 1015,1 hPa 0,0 l/m 0,0 km/h (0 Bft) N 0 0 min 0,0 UV-I 0 W/m 6,4 C 7,8 C 0,0 km/h (0 Bft)
15.05.2023 05:01 7,7 C 6,1 C 91 % 1015,1 hPa 0,0 l/m 0,0 km/h (0 Bft) W-SW 247 0 min 0,0 UV-I 0 W/m 6,3 C 7,7 C 1,6 km/h (1 Bft)
15.05.2023 05:02 7,7 C 5,6 C 92 % 1015,1 hPa 0,0 l/m 0,0 km/h (0 Bft) W-SW 247 0 min 0,0 UV-I 0 W/m 6,5 C 7,7 C 1,6 km/h (1 Bft)
15.05.2023 05:03 7,8 C 5,6 C 92 % 1015,1 hPa 0,0 l/m 0,0 km/h (0 Bft) N 0 0 min 0,0 UV-I 0 W/m 6,6 C 7,8 C 0,0 km/h (0 Bft)
15.05.2023 05:04 7,8 C 5,6 C 92 % 1015,2 hPa 0,0 l/m 0,0 km/h (0 Bft) N 0 0 min 0,0 UV-I 0 W/m 6,6 C 7,8 C 0,0 km/h (0 Bft)
15.05.2023 05:05 7,8 C 5,6 C 92 % 1015,1 hPa 0,0 l/m 0,0 km/h (0 Bft) W-SW 247 0 min 0,0 UV-I 0 W/m 6,6 C 7,8 C 1,6 km/h (1 Bft)
15.05.2023 05:06 7,8 C 5,6 C 92 % 1015,1 hPa 0,0 l/m 3,2 km/h (1 Bft) W-SW 247 0 min 0,0 UV-I 0 W/m 6,6 C 7,8 C 4,8 km/h (1 Bft)
15.05.2023 05:07 7,8 C 6,1 C 92 % 1015,1 hPa 0,0 l/m 4,8 km/h (1 Bft) W-SW 247 0 min 0,0 UV-I 0 W/m 6,6 C 7,8 C 4,8 km/h (1 Bft)
15.05.2023 05:08 7,8 C 6,1 C 92 % 1015,1 hPa 0,0 l/m 3,2 km/h (1 Bft) W-SW 247 0 min 0,0 UV-I 0 W/m 6,6 C 7,8 C 4,8 km/h (1 Bft)
15.05.2023 05:09 7,9 C 6,1 C 92 % 1015,1 hPa 0,0 l/m 3,2 km/h (1 Bft) W-SW 247 0 min 0,0 UV-I 0 W/m 6,7 C 7,9 C 3,2 km/h (1 Bft)
15.05.2023 05:10 7,8 C 6,1 C 92 % 1015,1 hPa 0,0 l/m 3,2 km/h (1 Bft) W-SW 247 0 min 0,0 UV-I 0 W/m 6,6 C 7,8 C 4,8 km/h (1 Bft)
15.05.2023 05:11 7,8 C 6,1 C 92 % 1015,1 hPa 0,0 l/m 3,2 km/h (1 Bft) W-SW 247 0 min 0,0 UV-I 0 W/m 6,6 C 7,8 C 4,8 km/h (1 Bft)
15.05.2023 05:12 7,9 C 6,1 C 92 % 1015,1 hPa 0,0 l/m 3,2 km/h (1 Bft) W-SW 247 0 min 0,0 UV-I 0 W/m 6,7 C 7,9 C 4,8 km/h (1 Bft)
15.05.2023 05:13 7,9 C 6,7 C 92 % 1015,1 hPa 0,0 l/m 3,2 km/h (1 Bft) W-SW 247 0 min 0,0 UV-I 0 W/m 6,7 C 7,9 C 3,2 km/h (1 Bft)
15.05.2023 05:14 7,9 C 6,7 C 92 % 1015,1 hPa 0,0 l/m 3,2 km/h (1 Bft) W-SW 247 0 min 0,0 UV-I 0 W/m 6,7 C 7,9 C 3,2 km/h (1 Bft)
15.05.2023 05:15 8,0 C 6,7 C 92 % 1015,1 hPa 0,0 l/m 1,6 km/h (1 Bft) W-SW 247 0 min 0,0 UV-I 0 W/m 6,8 C 8,0 C 3,2 km/h (1 Bft)
15.05.2023 05:16 8,0 C 6,7 C 92 % 1015,1 hPa 0,0 l/m 1,6 km/h (1 Bft) W-SW 247 0 min 0,0 UV-I 0 W/m 6,8 C 8,0 C 3,2 km/h (1 Bft)
15.05.2023 05:17 8,0 C 6,7 C 92 % 1015,1 hPa 0,0 l/m 1,6 km/h (1 Bft) W-SW 247 0 min 0,0 UV-I 0 W/m 6,8 C 8,0 C 1,6 km/h (1 Bft)
15.05.2023 05:18 7,8 C 6,1 C 92 % 1015,1 hPa 0,0 l/m 1,6 km/h (1 Bft) W-SW 247 0 min 0,0 UV-I 0 W/m 6,6 C 7,8 C 1,6 km/h (1 Bft)
15.05.2023 05:19 7,7 C 6,1 C 92 % 1015,1 hPa 0,0 l/m 0,0 km/h (0 Bft) W-SW 247 0 min 0,0 UV-I 0 W/m 6,5 C 7,7 C 1,6 km/h (1 Bft)
15.05.2023 05:20 7,7 C 6,1 C 92 % 1015,1 hPa 0,0 l/m 0,0 km/h (0 Bft) W-SW 247 0 min 0,0 UV-I 0 W/m 6,5 C 7,7 C 1,6 km/h (1 Bft)
15.05.2023 05:21 7,6 C 6,1 C 92 % 1015,1 hPa 0,0 l/m 1,6 km/h (1 Bft) W-SW 247 0 min 0,0 UV-I 0 W/m 6,4 C 7,6 C 1,6 km/h (1 Bft)
15.05.2023 05:22 7,6 C 6,1 C 92 % 1015,1 hPa 0,0 l/m 1,6 km/h (1 Bft) W-SW 247 0 min 0,0 UV-I 0 W/m 6,4 C 7,6 C 3,2 km/h (1 Bft)
15.05.2023 05:23 7,6 C 6,1 C 92 % 1015,0 hPa 0,0 l/m 1,6 km/h (1 Bft) W-SW 247 0 min 0,0 UV-I 0 W/m 6,4 C 7,6 C 1,6 km/h (1 Bft)
15.05.2023 05:24 7,6 C 6,1 C 92 % 1015,1 hPa 0,0 l/m 1,6 km/h (1 Bft) W-SW 247 0 min 0,0 UV-I 0 W/m 6,4 C 7,6 C 3,2 km/h (1 Bft)
15.05.2023 05:25 7,6 C 6,1 C 92 % 1015,2 hPa 0,0 l/m 1,6 km/h (1 Bft) W-SW 247 0 min 0,0 UV-I 0 W/m 6,4 C 7,6 C 3,2 km/h (1 Bft)
15.05.2023 05:26 7,6 C 5,6 C 92 % 1015,2 hPa 0,0 l/m 1,6 km/h (1 Bft) W-SW 247 0 min 0,0 UV-I 0 W/m 6,4 C 7,6 C 3,2 km/h (1 Bft)
15.05.2023 05:27 7,6 C 6,1 C 92 % 1015,1 hPa 0,0 l/m 3,2 km/h (1 Bft) W-SW 247 0 min 0,0 UV-I 0 W/m 6,4 C 7,6 C 3,2 km/h (1 Bft)
15.05.2023 05:28 7,7 C 6,1 C 92 % 1015,1 hPa 0,0 l/m 3,2 km/h (1 Bft) W-SW 247 0 min 0,0 UV-I 0 W/m 6,5 C 7,7 C 3,2 km/h (1 Bft)
15.05.2023 05:29 7,7 C 6,1 C 93 % 1015,1 hPa 0,0 l/m 1,6 km/h (1 Bft) W-SW 247 0 min 0,0 UV-I 0 W/m 6,6 C 7,7 C 3,2 km/h (1 Bft)
15.05.2023 05:30 7,7 C 6,1 C 92 % 1015,1 hPa 0,0 l/m 0,0 km/h (0 Bft) W-SW 247 0 min 0,0 UV-I 0 W/m 6,5 C 7,7 C 1,6 km/h (1 Bft)
15.05.2023 05:31 7,6 C 6,1 C 92 % 1015,0 hPa 0,0 l/m 0,0 km/h (0 Bft) N 0 0 min 0,0 UV-I 0 W/m 6,4 C 7,6 C 0,0 km/h (0 Bft)
15.05.2023 05:32 7,6 C 6,1 C 92 % 1015,2 hPa 0,0 l/m 0,0 km/h (0 Bft) N 0 0 min 0,0 UV-I 0 W/m 6,4 C 7,6 C 0,0 km/h (0 Bft)
15.05.2023 05:33 7,5 C 6,1 C 92 % 1015,1 hPa 0,0 l/m 0,0 km/h (0 Bft) N 0 0 min 0,0 UV-I 0 W/m 6,3 C 7,5 C 0,0 km/h (0 Bft)
15.05.2023 05:34 7,4 C 6,1 C 92 % 1015,1 hPa 0,0 l/m 0,0 km/h (0 Bft) N 0 0 min 0,0 UV-I 0 W/m 6,2 C 7,4 C 0,0 km/h (0 Bft)
15.05.2023 05:35 7,3 C 6,1 C 92 % 1015,1 hPa 0,0 l/m 0,0 km/h (0 Bft) N 0 0 min 0,0 UV-I 0 W/m 6,1 C 7,3 C 0,0 km/h (0 Bft)
15.05.2023 05:36 7,2 C 5,6 C 92 % 1015,2 hPa 0,0 l/m 0,0 km/h (0 Bft) N 0 0 min 0,0 UV-I 0 W/m 6,0 C 7,2 C 0,0 km/h (0 Bft)
15.05.2023 05:37 7,3 C 5,6 C 92 % 1015,2 hPa 0,0 l/m 0,0 km/h (0 Bft) N 0 0 min 0,0 UV-I 0 W/m 6,1 C 7,3 C 0,0 km/h (0 Bft)
15.05.2023 05:38 7,3 C 5,6 C 92 % 1015,2 hPa 0,0 l/m 0,0 km/h (0 Bft) N 0 0 min 0,0 UV-I 0 W/m 6,1 C 7,3 C 0,0 km/h (0 Bft)
15.05.2023 05:39 7,4 C 5,6 C 93 % 1015,2 hPa 0,0 l/m 0,0 km/h (0 Bft) W-SW 247 0 min 0,0 UV-I 0 W/m 6,3 C 7,4 C 1,6 km/h (1 Bft)
15.05.2023 05:40 7,4 C 5,6 C 93 % 1015,1 hPa 0,0 l/m 1,6 km/h (1 Bft) W-SW 247 0 min 0,0 UV-I 0 W/m 6,3 C 7,4 C 3,2 km/h (1 Bft)
15.05.2023 05:41 7,5 C 5,6 C 93 % 1015,2 hPa 0,0 l/m 1,6 km/h (1 Bft) W-SW 247 0 min 0,0 UV-I 0 W/m 6,4 C 7,5 C 3,2 km/h (1 Bft)
15.05.2023 05:42 7,4 C 5,6 C 93 % 1015,2 hPa 0,0 l/m 1,6 km/h (1 Bft) W-SW 247 0 min 0,0 UV-I 0 W/m 6,3 C 7,4 C 3,2 km/h (1 Bft)
15.05.2023 05:43 7,4 C 5,6 C 93 % 1015,2 hPa 0,0 l/m 3,2 km/h (1 Bft) W-SW 247 0 min 0,0 UV-I 0 W/m 6,3 C 7,4 C 3,2 km/h (1 Bft)
15.05.2023 05:44 7,6 C 6,1 C 93 % 1015,1 hPa 0,0 l/m 3,2 km/h (1 Bft) W-SW 247 0 min 0,0 UV-I 0 W/m 6,5 C 7,6 C 3,2 km/h (1 Bft)
15.05.2023 05:45 7,5 C 5,6 C 93 % 1015,1 hPa 0,0 l/m 1,6 km/h (1 Bft) W-SW 247 0 min 0,0 UV-I 0 W/m 6,4 C 7,5 C 3,2 km/h (1 Bft)
15.05.2023 05:46 7,3 C 5,6 C 92 % 1015,0 hPa 0,0 l/m 1,6 km/h (1 Bft) W-SW 247 0 min 0,0 UV-I 0 W/m 6,1 C 7,3 C 1,6 km/h (1 Bft)
15.05.2023 05:47 7,1 C 5,6 C 92 % 1015,1 hPa 0,0 l/m 1,6 km/h (1 Bft) W-SW 247 0 min 0,0 UV-I 0 W/m 5,9 C 7,1 C 1,6 km/h (1 Bft)
15.05.2023 05:48 7,0 C 5,6 C 92 % 1015,2 hPa 0,0 l/m 0,0 km/h (0 Bft) N 0 0 min 0,0 UV-I 0 W/m 5,8 C 7,0 C 0,0 km/h (0 Bft)
15.05.2023 05:49 6,9 C 5,6 C 92 % 1015,1 hPa 0,0 l/m 0,0 km/h (0 Bft) W-SW 247 0 min 0,0 UV-I 0 W/m 5,7 C 6,9 C 1,6 km/h (1 Bft)
15.05.2023 05:50 7,0 C 5,6 C 92 % 1015,2 hPa 0,0 l/m 1,6 km/h (1 Bft) W-SW 247 0 min 0,0 UV-I 0 W/m 5,8 C 7,0 C 3,2 km/h (1 Bft)
15.05.2023 05:51 7,1 C 5,6 C 93 % 1015,2 hPa 0,0 l/m 1,6 km/h (1 Bft) W-SW 247 0 min 0,0 UV-I 0 W/m 6,0 C 7,1 C 3,2 km/h (1 Bft)
15.05.2023 05:52 7,2 C 5,6 C 93 % 1015,1 hPa 0,0 l/m 1,6 km/h (1 Bft) W-SW 247 0 min 0,0 UV-I 5 W/m 6,1 C 7,2 C 1,6 km/h (1 Bft)
15.05.2023 05:53 7,2 C 5,6 C 93 % 1015,2 hPa 0,0 l/m 0,0 km/h (0 Bft) N 0 0 min 0,0 UV-I 5 W/m 6,1 C 7,2 C 0,0 km/h (0 Bft)
15.05.2023 05:54 7,2 C 5,6 C 93 % 1015,1 hPa 0,0 l/m 0,0 km/h (0 Bft) N 0 0 min 0,0 UV-I 5 W/m 6,1 C 7,2 C 0,0 km/h (0 Bft)
15.05.2023 05:55 7,3 C 5,6 C 93 % 1015,2 hPa 0,0 l/m 0,0 km/h (0 Bft) N 0 0 min 0,0 UV-I 5 W/m 6,2 C 7,3 C 0,0 km/h (0 Bft)
15.05.2023 05:56 7,4 C 6,1 C 93 % 1015,2 hPa 0,0 l/m 0,0 km/h (0 Bft) N 0 0 min 0,0 UV-I 5 W/m 6,3 C 7,4 C 0,0 km/h (0 Bft)
15.05.2023 05:57 7,4 C 6,1 C 93 % 1015,3 hPa 0,0 l/m 0,0 km/h (0 Bft) N 0 0 min 0,0 UV-I 5 W/m 6,3 C 7,4 C 0,0 km/h (0 Bft)
15.05.2023 05:58 7,6 C 6,1 C 93 % 1015,3 hPa 0,0 l/m 0,0 km/h (0 Bft) N 0 0 min 0,0 UV-I 5 W/m 6,5 C 7,6 C 0,0 km/h (0 Bft)
15.05.2023 05:59 7,6 C 6,7 C 93 % 1015,2 hPa 0,0 l/m 0,0 km/h (0 Bft) N 0 0 min 0,0 UV-I 5 W/m 6,5 C 7,6 C 0,0 km/h (0 Bft)
15.05.2023 06:00 7,8 C 6,7 C 93 % 1015,2 hPa 0,0 l/m 0,0 km/h (0 Bft) N 0 0 min 0,0 UV-I 7 W/m 6,7 C 7,8 C 0,0 km/h (0 Bft)
15.05.2023 06:01 7,8 C 6,7 C 93 % 1015,2 hPa 0,0 l/m 0,0 km/h (0 Bft) N 0 0 min 0,0 UV-I 5 W/m 6,7 C 7,8 C 0,0 km/h (0 Bft)
15.05.2023 06:02 7,9 C 6,7 C 93 % 1015,2 hPa 0,0 l/m 0,0 km/h (0 Bft) W-SW 247 0 min 0,0 UV-I 7 W/m 6,8 C 7,9 C 1,6 km/h (1 Bft)
15.05.2023 06:03 7,9 C 7,2 C 93 % 1015,1 hPa 0,0 l/m 1,6 km/h (1 Bft) W-SW 247 0 min 0,0 UV-I 7 W/m 6,8 C 7,9 C 1,6 km/h (1 Bft)
15.05.2023 06:04 8,0 C 7,2 C 93 % 1015,2 hPa 0,0 l/m 0,0 km/h (0 Bft) W-SW 247 0 min 0,0 UV-I 7 W/m 6,9 C 8,0 C 1,6 km/h (1 Bft)
15.05.2023 06:05 8,1 C 7,2 C 93 % 1015,1 hPa 0,0 l/m 0,0 km/h (0 Bft) W-SW 247 0 min 0,0 UV-I 7 W/m 7,0 C 8,1 C 1,6 km/h (1 Bft)
15.05.2023 06:06 8,1 C 7,2 C 93 % 1015,2 hPa 0,0 l/m 0,0 km/h (0 Bft) N 0 0 min 0,0 UV-I 7 W/m 7,0 C 8,1 C 0,0 km/h (0 Bft)
15.05.2023 06:07 8,0 C 7,2 C 93 % 1015,1 hPa 0,0 l/m 0,0 km/h (0 Bft) N 0 0 min 0,0 UV-I 9 W/m 6,9 C 8,0 C 0,0 km/h (0 Bft)
15.05.2023 06:08 7,9 C 7,2 C 93 % 1015,1 hPa 0,0 l/m 0,0 km/h (0 Bft) W-SW 247 0 min 0,0 UV-I 9 W/m 6,8 C 7,9 C 1,6 km/h (1 Bft)
15.05.2023 06:09 7,8 C 7,2 C 93 % 1015,2 hPa 0,0 l/m 1,6 km/h (1 Bft) W-SW 247 0 min 0,0 UV-I 11 W/m 6,7 C 7,8 C 3,2 km/h (1 Bft)
15.05.2023 06:10 7,7 C 7,2 C 92 % 1015,0 hPa 0,0 l/m 0,0 km/h (0 Bft) W-SW 247 0 min 0,0 UV-I 11 W/m 6,5 C 7,7 C 1,6 km/h (1 Bft)
15.05.2023 06:11 7,7 C 7,2 C 93 % 1015,1 hPa 0,0 l/m 0,0 km/h (0 Bft) W-SW 247 0 min 0,0 UV-I 11 W/m 6,6 C 7,7 C 1,6 km/h (1 Bft)
15.05.2023 06:12 7,6 C 7,2 C 92 % 1015,0 hPa 0,0 l/m 0,0 km/h (0 Bft) N 0 0 min 0,0 UV-I 11 W/m 6,4 C 7,6 C 0,0 km/h (0 Bft)
15.05.2023 06:13 7,5 C 7,2 C 92 % 1015,1 hPa 0,0 l/m 0,0 km/h (0 Bft) W-SW 247 0 min 0,0 UV-I 11 W/m 6,3 C 7,5 C 1,6 km/h (1 Bft)
15.05.2023 06:14 7,6 C 7,2 C 93 % 1015,2 hPa 0,0 l/m 0,0 km/h (0 Bft) N 0 0 min 0,0 UV-I 11 W/m 6,5 C 7,6 C 0,0 km/h (0 Bft)
15.05.2023 06:15 7,6 C 7,2 C 93 % 1015,1 hPa 0,0 l/m 1,6 km/h (1 Bft) W-SW 247 0 min 0,0 UV-I 12 W/m 6,5 C 7,6 C 3,2 km/h (1 Bft)
15.05.2023 06:16 7,7 C 7,8 C 93 % 1015,1 hPa 0,0 l/m 1,6 km/h (1 Bft) W-SW 247 0 min 0,0 UV-I 12 W/m 6,6 C 7,7 C 3,2 km/h (1 Bft)
15.05.2023 06:17 7,8 C 7,8 C 93 % 1015,1 hPa 0,0 l/m 1,6 km/h (1 Bft) W-SW 247 0 min 0,0 UV-I 14 W/m 6,7 C 7,8 C 3,2 km/h (1 Bft)
15.05.2023 06:18 7,8 C 7,8 C 93 % 1015,0 hPa 0,0 l/m 1,6 km/h (1 Bft) W-SW 247 0 min 0,0 UV-I 16 W/m 6,7 C 7,8 C 3,2 km/h (1 Bft)
15.05.2023 06:19 7,9 C 7,8 C 93 % 1015,1 hPa 0,0 l/m 3,2 km/h (1 Bft) W-SW 247 0 min 0,0 UV-I 16 W/m 6,8 C 7,9 C 4,8 km/h (1 Bft)
15.05.2023 06:20 8,1 C 7,8 C 93 % 1015,0 hPa 0,0 l/m 1,6 km/h (1 Bft) W-SW 247 0 min 0,0 UV-I 16 W/m 7,0 C 8,1 C 3,2 km/h (1 Bft)
15.05.2023 06:21 8,1 C 7,8 C 93 % 1015,0 hPa 0,0 l/m 1,6 km/h (1 Bft) W-SW 247 0 min 0,0 UV-I 18 W/m 7,0 C 8,1 C 3,2 km/h (1 Bft)
15.05.2023 06:22 8,1 C 7,8 C 93 % 1015,0 hPa 0,0 l/m 1,6 km/h (1 Bft) W-SW 247 0 min 0,0 UV-I 18 W/m 7,0 C 8,1 C 1,6 km/h (1 Bft)
15.05.2023 06:23 8,1 C 7,8 C 93 % 1015,0 hPa 0,0 l/m 1,6 km/h (1 Bft) W-SW 247 0 min 0,0 UV-I 20 W/m 7,0 C 8,1 C 8,0 km/h (2 Bft)
15.05.2023 06:24 8,2 C 7,8 C 93 % 1015,1 hPa 0,0 l/m 4,8 km/h (1 Bft) W-SW 247 0 min 0,0 UV-I 23 W/m 7,1 C 8,2 C 6,4 km/h (2 Bft)
15.05.2023 06:25 8,3 C 7,8 C 93 % 1015,1 hPa 0,0 l/m 4,8 km/h (1 Bft) W-SW 247 0 min 0,0 UV-I 25 W/m 7,2 C 8,3 C 6,4 km/h (2 Bft)
15.05.2023 06:26 8,4 C 8,3 C 94 % 1015,0 hPa 0,0 l/m 3,2 km/h (1 Bft) W-SW 247 0 min 0,0 UV-I 23 W/m 7,5 C 8,4 C 4,8 km/h (1 Bft)
15.05.2023 06:27 8,5 C 8,3 C 94 % 1015,0 hPa 0,0 l/m 1,6 km/h (1 Bft) W-SW 247 0 min 0,0 UV-I 25 W/m 7,6 C 8,5 C 3,2 km/h (1 Bft)
15.05.2023 06:28 8,6 C 8,3 C 93 % 1015,1 hPa 0,0 l/m 3,2 km/h (1 Bft) W-SW 247 0 min 0,0 UV-I 25 W/m 7,5 C 8,6 C 4,8 km/h (1 Bft)
15.05.2023 06:29 8,6 C 8,3 C 93 % 1015,0 hPa 0,0 l/m 3,2 km/h (1 Bft) W-SW 247 0 min 0,0 UV-I 27 W/m 7,5 C 8,6 C 4,8 km/h (1 Bft)
15.05.2023 06:30 8,6 C 8,3 C 93 % 1015,1 hPa 0,0 l/m 1,6 km/h (1 Bft) W-SW 247 0 min 0,0 UV-I 28 W/m 7,5 C 8,6 C 4,8 km/h (1 Bft)
15.05.2023 06:31 8,6 C 8,3 C 93 % 1015,1 hPa 0,0 l/m 3,2 km/h (1 Bft) W-SW 247 0 min 0,0 UV-I 28 W/m 7,5 C 8,6 C 4,8 km/h (1 Bft)
15.05.2023 06:32 8,6 C 8,3 C 93 % 1015,1 hPa 0,0 l/m 3,2 km/h (1 Bft) W-SW 247 0 min 0,0 UV-I 28 W/m 7,5 C 8,6 C 4,8 km/h (1 Bft)
15.05.2023 06:33 8,6 C 8,3 C 93 % 1015,1 hPa 0,0 l/m 3,2 km/h (1 Bft) W-SW 247 0 min 0,0 UV-I 30 W/m 7,5 C 8,6 C 4,8 km/h (1 Bft)
15.05.2023 06:34 8,6 C 8,3 C 93 % 1015,1 hPa 0,0 l/m 1,6 km/h (1 Bft) W-SW 247 0 min 0,0 UV-I 32 W/m 7,5 C 8,6 C 3,2 km/h (1 Bft)
15.05.2023 06:35 8,6 C 8,3 C 93 % 1015,1 hPa 0,0 l/m 0,0 km/h (0 Bft) W-SW 247 0 min 0,0 UV-I 27 W/m 7,5 C 8,6 C 1,6 km/h (1 Bft)
15.05.2023 06:36 8,6 C 8,3 C 93 % 1015,0 hPa 0,0 l/m 0,0 km/h (0 Bft) W-SW 247 0 min 0,0 UV-I 28 W/m 7,5 C 8,6 C 1,6 km/h (1 Bft)
15.05.2023 06:37 8,6 C 8,3 C 93 % 1015,1 hPa 0,0 l/m 0,0 km/h (0 Bft) N 0 0 min 0,0 UV-I 28 W/m 7,5 C 8,6 C 0,0 km/h (0 Bft)
15.05.2023 06:38 8,6 C 8,9 C 93 % 1015,1 hPa 0,0 l/m 0,0 km/h (0 Bft) W-SW 247 0 min 0,0 UV-I 30 W/m 7,5 C 8,6 C 1,6 km/h (1 Bft)
15.05.2023 06:39 8,7 C 8,9 C 93 % 1015,1 hPa 0,0 l/m 1,6 km/h (1 Bft) W-SW 247 0 min 0,0 UV-I 32 W/m 7,6 C 8,7 C 1,6 km/h (1 Bft)
15.05.2023 06:40 8,7 C 8,9 C 93 % 1015,1 hPa 0,0 l/m 1,6 km/h (1 Bft) W-SW 247 0 min 0,0 UV-I 34 W/m 7,6 C 8,7 C 3,2 km/h (1 Bft)
15.05.2023 06:41 8,8 C 8,9 C 93 % 1015,1 hPa 0,0 l/m 3,2 km/h (1 Bft) W-SW 247 0 min 0,0 UV-I 37 W/m 7,7 C 8,8 C 3,2 km/h (1 Bft)
15.05.2023 06:42 8,9 C 8,9 C 93 % 1015,1 hPa 0,0 l/m 1,6 km/h (1 Bft) W-SW 247 0 min 0,0 UV-I 39 W/m 7,8 C 8,9 C 3,2 km/h (1 Bft)
15.05.2023 06:43 8,9 C 8,9 C 93 % 1015,0 hPa 0,0 l/m 1,6 km/h (1 Bft) W-SW 247 0 min 0,0 UV-I 39 W/m 7,8 C 8,9 C 3,2 km/h (1 Bft)
15.05.2023 06:44 8,9 C 8,9 C 93 % 1015,0 hPa 0,0 l/m 1,6 km/h (1 Bft) W-SW 247 0 min 0,0 UV-I 39 W/m 7,8 C 8,9 C 3,2 km/h (1 Bft)
15.05.2023 06:45 8,9 C 8,9 C 93 % 1015,0 hPa 0,0 l/m 3,2 km/h (1 Bft) W-SW 247 0 min 0,0 UV-I 42 W/m 7,8 C 8,9 C 4,8 km/h (1 Bft)
15.05.2023 06:46 9,0 C 8,9 C 93 % 1015,0 hPa 0,0 l/m 3,2 km/h (1 Bft) W-SW 247 0 min 0,0 UV-I 42 W/m 7,9 C 9,0 C 4,8 km/h (1 Bft)
15.05.2023 06:47 9,1 C 8,9 C 93 % 1015,0 hPa 0,0 l/m 3,2 km/h (1 Bft) W-SW 247 0 min 0,0 UV-I 39 W/m 8,0 C 9,1 C 4,8 km/h (1 Bft)
15.05.2023 06:48 9,2 C 8,9 C 93 % 1015,0 hPa 0,0 l/m 3,2 km/h (1 Bft) W-SW 247 0 min 0,0 UV-I 37 W/m 8,1 C 9,2 C 4,8 km/h (1 Bft)
15.05.2023 06:49 9,2 C 8,9 C 93 % 1015,0 hPa 0,0 l/m 3,2 km/h (1 Bft) W-SW 247 0 min 0,0 UV-I 37 W/m 8,1 C 9,2 C 4,8 km/h (1 Bft)
15.05.2023 06:50 9,3 C 9,4 C 93 % 1015,0 hPa 0,0 l/m 3,2 km/h (1 Bft) W-SW 247 0 min 0,0 UV-I 39 W/m 8,2 C 9,3 C 4,8 km/h (1 Bft)
15.05.2023 06:51 9,3 C 9,4 C 93 % 1015,0 hPa 0,0 l/m 3,2 km/h (1 Bft) W 270 0 min 0,0 UV-I 39 W/m 8,2 C 9,3 C 4,8 km/h (1 Bft)
15.05.2023 06:52 9,3 C 9,4 C 93 % 1015,0 hPa 0,0 l/m 3,2 km/h (1 Bft) W 270 0 min 0,0 UV-I 39 W/m 8,2 C 9,3 C 4,8 km/h (1 Bft)
15.05.2023 06:53 9,3 C 9,4 C 93 % 1015,0 hPa 0,0 l/m 1,6 km/h (1 Bft) W 270 0 min 0,0 UV-I 42 W/m 8,2 C 9,3 C 3,2 km/h (1 Bft)
15.05.2023 06:54 9,3 C 9,4 C 93 % 1015,1 hPa 0,0 l/m 0,0 km/h (0 Bft) W 270 0 min 0,0 UV-I 44 W/m 8,2 C 9,3 C 1,6 km/h (1 Bft)
15.05.2023 06:55 9,4 C 9,4 C 93 % 1015,0 hPa 0,0 l/m 1,6 km/h (1 Bft) W 270 0 min 0,0 UV-I 47 W/m 8,3 C 9,4 C 3,2 km/h (1 Bft)
15.05.2023 06:56 9,4 C 9,4 C 93 % 1015,0 hPa 0,0 l/m 1,6 km/h (1 Bft) W 270 0 min 0,0 UV-I 49 W/m 8,3 C 9,4 C 4,8 km/h (1 Bft)
15.05.2023 06:57 9,4 C 9,4 C 93 % 1015,0 hPa 0,0 l/m 4,8 km/h (1 Bft) W 270 0 min 0,0 UV-I 47 W/m 8,3 C 9,4 C 9,7 km/h (2 Bft)
15.05.2023 06:58 9,4 C 9,4 C 93 % 1015,0 hPa 0,0 l/m 4,8 km/h (1 Bft) W-SW 247 0 min 0,0 UV-I 52 W/m 8,3 C 9,4 C 8,0 km/h (2 Bft)
15.05.2023 06:59 9,4 C 9,4 C 93 % 1015,1 hPa 0,0 l/m 3,2 km/h (1 Bft) W-SW 247 0 min 0,0 UV-I 56 W/m 8,3 C 9,4 C 4,8 km/h (1 Bft)
15.05.2023 07:00 9,4 C 9,4 C 93 % 1015,0 hPa 0,0 l/m 4,8 km/h (1 Bft) W-SW 247 0 min 0,0 UV-I 54 W/m 8,3 C 9,4 C 8,0 km/h (2 Bft)
15.05.2023 07:01 9,4 C 9,4 C 93 % 1015,0 hPa 0,0 l/m 4,8 km/h (1 Bft) W-SW 247 0 min 0,0 UV-I 56 W/m 8,3 C 9,4 C 6,4 km/h (2 Bft)
15.05.2023 07:02 9,4 C 9,4 C 93 % 1015,0 hPa 0,0 l/m 3,2 km/h (1 Bft) W-SW 247 0 min 0,0 UV-I 56 W/m 8,3 C 9,4 C 4,8 km/h (1 Bft)
15.05.2023 07:03 9,5 C 9,4 C 93 % 1015,0 hPa 0,0 l/m 6,4 km/h (2 Bft) W-SW 247 0 min 0,0 UV-I 53 W/m 8,4 C 9,5 C 11,3 km/h (2 Bft)
15.05.2023 07:04 9,6 C 9,4 C 93 % 1015,0 hPa 0,0 l/m 6,4 km/h (2 Bft) W-SW 247 0 min 0,0 UV-I 46 W/m 8,5 C 9,6 C 11,3 km/h (2 Bft)
15.05.2023 07:05 9,6 C 9,4 C 93 % 1015,0 hPa 0,0 l/m 3,2 km/h (1 Bft) W-SW 247 0 min 0,0 UV-I 44 W/m 8,5 C 9,6 C 11,3 km/h (2 Bft)
15.05.2023 07:06 9,5 C 9,4 C 93 % 1015,0 hPa 0,0 l/m 3,2 km/h (1 Bft) W-SW 247 0 min 0,0 UV-I 44 W/m 8,4 C 9,5 C 4,8 km/h (1 Bft)
15.05.2023 07:07 9,6 C 9,4 C 93 % 1015,0 hPa 0,0 l/m 6,4 km/h (2 Bft) W-SW 247 0 min 0,0 UV-I 42 W/m 8,5 C 9,6 C 9,7 km/h (2 Bft)
15.05.2023 07:08 9,6 C 9,4 C 93 % 1015,0 hPa 0,0 l/m 3,2 km/h (1 Bft) W-SW 247 0 min 0,0 UV-I 40 W/m 8,5 C 9,6 C 4,8 km/h (1 Bft)
15.05.2023 07:09 9,6 C 9,4 C 93 % 1014,9 hPa 0,0 l/m 4,8 km/h (1 Bft) W 270 0 min 0,0 UV-I 37 W/m 8,5 C 9,6 C 11,3 km/h (2 Bft)
15.05.2023 07:10 9,5 C 9,4 C 93 % 1015,0 hPa 0,0 l/m 3,2 km/h (1 Bft) W-SW 247 0 min 0,0 UV-I 42 W/m 8,4 C 9,5 C 4,8 km/h (1 Bft)
15.05.2023 07:11 9,5 C 9,4 C 92 % 1015,1 hPa 0,0 l/m 3,2 km/h (1 Bft) W-SW 247 0 min 0,0 UV-I 49 W/m 8,3 C 9,5 C 4,8 km/h (1 Bft)
15.05.2023 07:12 9,6 C 9,4 C 92 % 1015,0 hPa 0,0 l/m 1,6 km/h (1 Bft) W-SW 247 0 min 0,0 UV-I 49 W/m 8,4 C 9,6 C 3,2 km/h (1 Bft)
15.05.2023 07:13 9,5 C 9,4 C 92 % 1015,0 hPa 0,0 l/m 1,6 km/h (1 Bft) W-SW 247 0 min 0,0 UV-I 51 W/m 8,3 C 9,5 C 4,8 km/h (1 Bft)
15.05.2023 07:14 9,5 C 9,4 C 92 % 1015,1 hPa 0,0 l/m 4,8 km/h (1 Bft) W-SW 247 0 min 0,0 UV-I 54 W/m 8,3 C 9,5 C 6,4 km/h (2 Bft)
15.05.2023 07:15 9,5 C 9,4 C 92 % 1014,9 hPa 0,0 l/m 4,8 km/h (1 Bft) W-SW 247 0 min 0,0 UV-I 54 W/m 8,3 C 9,5 C 11,3 km/h (2 Bft)
15.05.2023 07:16 9,4 C 9,4 C 92 % 1015,0 hPa 0,0 l/m 8,0 km/h (2 Bft) W-SW 247 0 min 0,0 UV-I 50 W/m 8,2 C 8,2 C 11,3 km/h (2 Bft)
15.05.2023 07:17 9,4 C 9,4 C 92 % 1015,1 hPa 0,0 l/m 6,4 km/h (2 Bft) W-SW 247 0 min 0,0 UV-I 46 W/m 8,2 C 9,4 C 8,0 km/h (2 Bft)
15.05.2023 07:18 9,4 C 9,4 C 92 % 1015,0 hPa 0,0 l/m 3,2 km/h (1 Bft) W-SW 247 0 min 0,0 UV-I 47 W/m 8,2 C 9,4 C 4,8 km/h (1 Bft)
15.05.2023 07:19 9,5 C 9,4 C 92 % 1015,1 hPa 0,0 l/m 3,2 km/h (1 Bft) W-SW 247 0 min 0,0 UV-I 49 W/m 8,3 C 9,5 C 4,8 km/h (1 Bft)
15.05.2023 07:20 9,4 C 9,4 C 92 % 1015,1 hPa 0,0 l/m 3,2 km/h (1 Bft) W-SW 247 0 min 0,0 UV-I 47 W/m 8,2 C 9,4 C 6,4 km/h (2 Bft)
15.05.2023 07:21 9,5 C 9,4 C 92 % 1015,0 hPa 0,0 l/m 4,8 km/h (1 Bft) W-SW 247 0 min 0,0 UV-I 45 W/m 8,3 C 9,5 C 6,4 km/h (2 Bft)
15.05.2023 07:22 9,5 C 9,4 C 92 % 1015,2 hPa 0,0 l/m 4,8 km/h (1 Bft) W-SW 247 0 min 0,0 UV-I 42 W/m 8,3 C 9,5 C 6,4 km/h (2 Bft)
15.05.2023 07:23 9,6 C 9,4 C 92 % 1015,1 hPa 0,0 l/m 3,2 km/h (1 Bft) W-SW 247 0 min 0,0 UV-I 40 W/m 8,4 C 9,6 C 4,8 km/h (1 Bft)
15.05.2023 07:24 9,6 C 9,4 C 92 % 1015,1 hPa 0,0 l/m 6,4 km/h (2 Bft) W-SW 247 0 min 0,0 UV-I 39 W/m 8,4 C 9,6 C 6,4 km/h (2 Bft)
15.05.2023 07:25 9,6 C 9,4 C 92 % 1015,2 hPa 0,0 l/m 3,2 km/h (1 Bft) W-SW 247 0 min 0,0 UV-I 39 W/m 8,4 C 9,6 C 6,4 km/h (2 Bft)
15.05.2023 07:26 9,6 C 9,4 C 92 % 1015,2 hPa 0,0 l/m 1,6 km/h (1 Bft) W-SW 247 0 min 0,0 UV-I 40 W/m 8,4 C 9,6 C 3,2 km/h (1 Bft)
15.05.2023 07:27 9,6 C 9,4 C 92 % 1015,2 hPa 0,0 l/m 1,6 km/h (1 Bft) W-SW 247 0 min 0,0 UV-I 46 W/m 8,4 C 9,6 C 3,2 km/h (1 Bft)
15.05.2023 07:28 9,6 C 10,0 C 92 % 1015,1 hPa 0,0 l/m 1,6 km/h (1 Bft) W-SW 247 0 min 0,0 UV-I 60 W/m 8,4 C 9,6 C 3,2 km/h (1 Bft)
15.05.2023 07:29 9,7 C 10,0 C 92 % 1015,1 hPa 0,0 l/m 0,0 km/h (0 Bft) W-SW 247 0 min 0,0 UV-I 70 W/m 8,5 C 9,7 C 1,6 km/h (1 Bft)
15.05.2023 07:30 9,7 C 10,0 C 92 % 1015,1 hPa 0,0 l/m 0,0 km/h (0 Bft) W-SW 247 0 min 0,0 UV-I 77 W/m 8,5 C 9,7 C 1,6 km/h (1 Bft)
15.05.2023 07:31 9,7 C 10,0 C 92 % 1015,1 hPa 0,0 l/m 0,0 km/h (0 Bft) W-SW 247 0 min 0,0 UV-I 95 W/m 8,5 C 9,7 C 1,6 km/h (1 Bft)
15.05.2023 07:32 9,8 C 10,0 C 92 % 1015,1 hPa 0,0 l/m 1,6 km/h (1 Bft) W-SW 247 0 min 0,0 UV-I 113 W/m 8,6 C 9,8 C 3,2 km/h (1 Bft)
15.05.2023 07:33 9,8 C 10,6 C 92 % 1015,1 hPa 0,0 l/m 1,6 km/h (1 Bft) W-SW 247 1 min 0,0 UV-I 143 W/m 8,6 C 9,8 C 3,2 km/h (1 Bft)
15.05.2023 07:34 9,8 C 10,6 C 92 % 1015,1 hPa 0,0 l/m 0,0 km/h (0 Bft) W-SW 247 1 min 0,0 UV-I 171 W/m 8,6 C 9,8 C 1,6 km/h (1 Bft)
15.05.2023 07:35 9,8 C 10,6 C 92 % 1015,1 hPa 0,0 l/m 0,0 km/h (0 Bft) N 0 1 min 0,0 UV-I 146 W/m 8,6 C 9,8 C 0,0 km/h (0 Bft)
15.05.2023 07:36 9,8 C 10,6 C 92 % 1015,2 hPa 0,0 l/m 0,0 km/h (0 Bft) N 0 0 min 0,0 UV-I 128 W/m 8,6 C 9,8 C 0,0 km/h (0 Bft)
15.05.2023 07:37 9,9 C 11,1 C 92 % 1015,1 hPa 0,0 l/m 0,0 km/h (0 Bft) W-SW 247 0 min 0,5 UV-I 128 W/m 8,7 C 9,9 C 1,6 km/h (1 Bft)
15.05.2023 07:38 9,9 C 11,1 C 92 % 1015,1 hPa 0,0 l/m 1,6 km/h (1 Bft) W-SW 247 0 min 0,5 UV-I 141 W/m 8,7 C 9,9 C 1,6 km/h (1 Bft)
15.05.2023 07:39 9,9 C 11,1 C 92 % 1015,1 hPa 0,0 l/m 1,6 km/h (1 Bft) W-SW 247 0 min 0,5 UV-I 133 W/m 8,7 C 9,9 C 3,2 km/h (1 Bft)
15.05.2023 07:40 10,1 C 11,1 C 92 % 1015,1 hPa 0,0 l/m 1,6 km/h (1 Bft) W-SW 247 0 min 0,5 UV-I 120 W/m 8,9 C 10,1 C 3,2 km/h (1 Bft)
15.05.2023 07:41 10,1 C 11,7 C 92 % 1015,1 hPa 0,0 l/m 1,6 km/h (1 Bft) W-SW 247 0 min 0,0 UV-I 102 W/m 8,9 C 10,1 C 3,2 km/h (1 Bft)
15.05.2023 07:42 10,1 C 11,1 C 91 % 1015,2 hPa 0,0 l/m 0,0 km/h (0 Bft) W-SW 247 0 min 0,0 UV-I 93 W/m 8,7 C 10,1 C 1,6 km/h (1 Bft)
15.05.2023 07:43 10,1 C 11,1 C 91 % 1015,1 hPa 0,0 l/m 0,0 km/h (0 Bft) W-SW 247 0 min 0,5 UV-I 98 W/m 8,7 C 10,1 C 3,2 km/h (1 Bft)
15.05.2023 07:44 10,0 C 11,1 C 91 % 1015,2 hPa 0,0 l/m 4,8 km/h (1 Bft) W-SW 247 0 min 0,0 UV-I 97 W/m 8,6 C 10,0 C 6,4 km/h (2 Bft)
15.05.2023 07:45 10,0 C 11,1 C 91 % 1015,1 hPa 0,0 l/m 3,2 km/h (1 Bft) W-SW 247 0 min 0,0 UV-I 98 W/m 8,6 C 10,0 C 4,8 km/h (1 Bft)
15.05.2023 07:48 9,9 C 11,1 C 91 % 1015,2 hPa 0,0 l/m 0,8 km/h (0 Bft) W-SW 257 0 min 0,0 UV-I 91 W/m 8,5 C 9,9 C 1,6 km/h (1 Bft)
15.05.2023 07:51 9,9 C 10,6 C 91 % 1015,1 hPa 0,0 l/m 1,9 km/h (1 Bft) W 273 0 min 0,0 UV-I 88 W/m 8,5 C 9,9 C 4,8 km/h (1 Bft)
15.05.2023 07:54 10,1 C 10,6 C 91 % 1015,2 hPa 0,0 l/m 3,7 km/h (1 Bft) W-NW 288 0 min 0,0 UV-I 89 W/m 8,7 C 10,1 C 6,4 km/h (2 Bft)
15.05.2023 07:57 10,1 C 11,1 C 91 % 1015,2 hPa 0,0 l/m 3,2 km/h (1 Bft) W 267 0 min 0,0 UV-I 85 W/m 8,7 C 10,1 C 9,7 km/h (2 Bft)
15.05.2023 08:00 10,1 C 11,1 C 90 % 1015,1 hPa 0,0 l/m 3,4 km/h (1 Bft) W-SW 256 0 min 0,0 UV-I 80 W/m 8,5 C 10,1 C 9,7 km/h (2 Bft)
15.05.2023 08:03 10,1 C 10,6 C 90 % 1015,2 hPa 0,0 l/m 1,3 km/h (1 Bft) W-SW 255 0 min 0,0 UV-I 92 W/m 8,5 C 10,1 C 3,2 km/h (1 Bft)
15.05.2023 08:06 10,2 C 11,1 C 90 % 1015,1 hPa 0,0 l/m 0,6 km/h (0 Bft) W-SW 255 0 min 0,0 UV-I 99 W/m 8,6 C 10,2 C 1,6 km/h (1 Bft)
15.05.2023 08:09 10,2 C 11,1 C 90 % 1015,1 hPa 0,0 l/m 2,0 km/h (1 Bft) W-SW 255 0 min 0,0 UV-I 91 W/m 8,6 C 10,2 C 4,8 km/h (1 Bft)
15.05.2023 08:12 10,3 C 11,1 C 91 % 1015,2 hPa 0,0 l/m 2,1 km/h (1 Bft) W-SW 255 0 min 0,0 UV-I 93 W/m 8,9 C 10,3 C 4,8 km/h (1 Bft)
15.05.2023 08:15 10,3 C 11,1 C 90 % 1015,2 hPa 0,0 l/m 1,7 km/h (1 Bft) W-SW 255 0 min 0,2 UV-I 96 W/m 8,7 C 10,3 C 4,8 km/h (1 Bft)
15.05.2023 08:18 10,3 C 11,1 C 91 % 1015,2 hPa 0,0 l/m 1,0 km/h (0 Bft) W-SW 255 0 min 0,5 UV-I 113 W/m 8,9 C 10,3 C 3,2 km/h (1 Bft)
15.05.2023 08:21 10,4 C 11,7 C 91 % 1015,2 hPa 0,0 l/m 0,6 km/h (0 Bft) W-SW 255 0 min 0,5 UV-I 120 W/m 9,0 C 10,4 C 3,2 km/h (1 Bft)
15.05.2023 08:24 10,6 C 11,7 C 91 % 1015,3 hPa 0,0 l/m 2,2 km/h (1 Bft) W-SW 256 0 min 0,4 UV-I 106 W/m 9,2 C 10,6 C 4,8 km/h (1 Bft)
15.05.2023 08:27 10,8 C 12,2 C 91 % 1015,3 hPa 0,0 l/m 0,5 km/h (0 Bft) W-SW 256 0 min 0,6 UV-I 117 W/m 9,4 C 10,8 C 3,2 km/h (1 Bft)
15.05.2023 08:30 10,9 C 12,8 C 90 % 1015,3 hPa 0,0 l/m 1,6 km/h (1 Bft) W-SW 255 0 min 0,7 UV-I 157 W/m 9,3 C 10,9 C 4,8 km/h (1 Bft)
15.05.2023 08:33 10,9 C 12,2 C 90 % 1015,3 hPa 0,0 l/m 4,0 km/h (1 Bft) SW 227 0 min 0,8 UV-I 157 W/m 9,3 C 10,9 C 6,4 km/h (2 Bft)
15.05.2023 08:36 11,0 C 12,8 C 90 % 1015,4 hPa 0,0 l/m 5,6 km/h (1 Bft) W 263 0 min 0,9 UV-I 163 W/m 9,4 C 11,0 C 9,7 km/h (2 Bft)
15.05.2023 08:39 11,3 C 12,8 C 91 % 1015,2 hPa 0,0 l/m 5,0 km/h (1 Bft) W-SW 253 0 min 0,9 UV-I 179 W/m 9,9 C 11,3 C 9,7 km/h (2 Bft)
15.05.2023 08:42 11,4 C 12,8 C 90 % 1015,2 hPa 0,0 l/m 3,3 km/h (1 Bft) W-SW 242 0 min 1,0 UV-I 174 W/m 9,8 C 11,4 C 6,4 km/h (2 Bft)
15.05.2023 08:45 11,4 C 13,3 C 89 % 1015,1 hPa 0,0 l/m 3,3 km/h (1 Bft) W-SW 246 0 min 1,1 UV-I 197 W/m 9,7 C 11,4 C 8,0 km/h (2 Bft)
15.05.2023 08:48 11,7 C 13,3 C 89 % 1015,3 hPa 0,0 l/m 6,2 km/h (2 Bft) W-NW 286 3 min 1,2 UV-I 277 W/m 9,9 C 11,7 C 9,7 km/h (2 Bft)
15.05.2023 08:51 11,8 C 13,3 C 89 % 1015,2 hPa 0,0 l/m 2,7 km/h (1 Bft) W 281 3 min 1,3 UV-I 248 W/m 10,0 C 11,8 C 6,4 km/h (2 Bft)
15.05.2023 08:54 12,0 C 13,9 C 88 % 1015,2 hPa 0,0 l/m 3,6 km/h (1 Bft) W 279 3 min 1,5 UV-I 284 W/m 10,1 C 12,0 C 6,4 km/h (2 Bft)
15.05.2023 08:57 12,1 C 14,4 C 88 % 1015,2 hPa 0,0 l/m 5,0 km/h (1 Bft) W-SW 255 3 min 1,6 UV-I 388 W/m 10,2 C 12,1 C 8,0 km/h (2 Bft)
15.05.2023 09:00 12,2 C 14,4 C 88 % 1015,2 hPa 0,0 l/m 3,9 km/h (1 Bft) W 277 3 min 1,7 UV-I 426 W/m 10,3 C 12,2 C 6,4 km/h (2 Bft)
15.05.2023 09:03 12,5 C 15,0 C 87 % 1015,1 hPa 0,0 l/m 2,9 km/h (1 Bft) W 279 3 min 1,7 UV-I 452 W/m 10,4 C 12,5 C 6,4 km/h (2 Bft)
15.05.2023 09:06 12,7 C 15,6 C 85 % 1015,1 hPa 0,0 l/m 3,9 km/h (1 Bft) W 271 3 min 1,7 UV-I 406 W/m 10,2 C 12,7 C 9,7 km/h (2 Bft)
15.05.2023 09:09 12,8 C 15,0 C 85 % 1015,2 hPa 0,0 l/m 2,5 km/h (1 Bft) W 273 3 min 1,9 UV-I 447 W/m 10,3 C 12,8 C 6,4 km/h (2 Bft)
15.05.2023 09:12 13,0 C 16,1 C 84 % 1015,1 hPa 0,0 l/m 2,1 km/h (1 Bft) NW 319 3 min 1,9 UV-I 465 W/m 10,4 C 13,0 C 6,4 km/h (2 Bft)
15.05.2023 09:15 13,2 C 16,1 C 83 % 1015,1 hPa 0,0 l/m 3,8 km/h (1 Bft) N-NW 327 3 min 2,1 UV-I 524 W/m 10,4 C 13,2 C 8,0 km/h (2 Bft)
15.05.2023 09:18 13,7 C 17,2 C 83 % 1015,0 hPa 0,0 l/m 3,4 km/h (1 Bft) NW 323 3 min 2,2 UV-I 505 W/m 10,9 C 13,7 C 8,0 km/h (2 Bft)
15.05.2023 09:21 13,8 C 17,8 C 80 % 1015,1 hPa 0,0 l/m 5,7 km/h (1 Bft) W-NW 290 3 min 2,1 UV-I 552 W/m 10,4 C 13,8 C 12,9 km/h (3 Bft)
15.05.2023 09:24 13,9 C 17,8 C 82 % 1015,0 hPa 0,0 l/m 3,0 km/h (1 Bft) W-SW 252 3 min 2,0 UV-I 500 W/m 10,9 C 13,9 C 6,4 km/h (2 Bft)
15.05.2023 09:27 13,9 C 17,8 C 81 % 1015,1 hPa 0,0 l/m 3,6 km/h (1 Bft) NW 306 3 min 1,8 UV-I 336 W/m 10,7 C 13,9 C 6,4 km/h (2 Bft)
15.05.2023 09:30 13,8 C 16,7 C 81 % 1015,1 hPa 0,0 l/m 2,6 km/h (1 Bft) W-NW 292 0 min 1,6 UV-I 287 W/m 10,6 C 13,8 C 6,4 km/h (2 Bft)
15.05.2023 09:33 13,5 C 16,1 C 80 % 1015,0 hPa 0,0 l/m 8,4 km/h (2 Bft) W 277 0 min 1,6 UV-I 274 W/m 10,1 C 12,3 C 12,9 km/h (3 Bft)
15.05.2023 09:36 13,3 C 16,1 C 81 % 1015,0 hPa 0,0 l/m 5,0 km/h (1 Bft) W 279 0 min 1,7 UV-I 289 W/m 10,1 C 13,3 C 12,9 km/h (3 Bft)
15.05.2023 09:39 13,3 C 15,6 C 81 % 1015,0 hPa 0,0 l/m 8,4 km/h (2 Bft) W-NW 300 3 min 2,0 UV-I 318 W/m 10,1 C 12,1 C 12,9 km/h (3 Bft)
15.05.2023 09:42 13,3 C 15,6 C 81 % 1015,1 hPa 0,0 l/m 3,2 km/h (1 Bft) NW 306 3 min 2,1 UV-I 331 W/m 10,1 C 13,3 C 6,4 km/h (2 Bft)
15.05.2023 09:45 13,6 C 16,1 C 80 % 1015,1 hPa 0,0 l/m 3,3 km/h (1 Bft) W-SW 254 3 min 2,2 UV-I 333 W/m 10,2 C 13,6 C 6,4 km/h (2 Bft)
15.05.2023 09:48 13,7 C 17,2 C 81 % 1015,0 hPa 0,0 l/m 4,8 km/h (1 Bft) W 275 3 min 2,3 UV-I 354 W/m 10,5 C 13,7 C 11,3 km/h (2 Bft)
15.05.2023 09:51 13,7 C 17,2 C 80 % 1015,1 hPa 0,0 l/m 5,3 km/h (1 Bft) N-NW 336 3 min 1,9 UV-I 366 W/m 10,3 C 13,7 C 12,9 km/h (3 Bft)
15.05.2023 09:54 14,1 C 17,8 C 80 % 1015,1 hPa 0,0 l/m 5,8 km/h (2 Bft) NW 319 3 min 1,9 UV-I 437 W/m 10,7 C 14,1 C 11,3 km/h (2 Bft)
15.05.2023 09:57 14,2 C 18,3 C 78 % 1015,1 hPa 0,0 l/m 8,4 km/h (2 Bft) N 355 3 min 2,1 UV-I 486 W/m 10,4 C 13,0 C 14,5 km/h (3 Bft)
15.05.2023 10:00 14,1 C 18,3 C 78 % 1015,1 hPa 0,0 l/m 10,3 km/h (2 Bft) W 275 3 min 2,4 UV-I 405 W/m 10,3 C 12,0 C 17,7 km/h (3 Bft)
15.05.2023 10:03 14,0 C 18,3 C 77 % 1015,0 hPa 0,0 l/m 8,8 km/h (2 Bft) N-NW 338 3 min 2,4 UV-I 494 W/m 10,0 C 12,6 C 16,1 km/h (3 Bft)
15.05.2023 10:06 13,9 C 17,8 C 77 % 1015,1 hPa 0,0 l/m 8,8 km/h (2 Bft) N 350 0 min 2,1 UV-I 314 W/m 9,9 C 12,5 C 16,1 km/h (3 Bft)
15.05.2023 10:09 13,8 C 17,2 C 78 % 1015,1 hPa 0,0 l/m 8,0 km/h (2 Bft) N-NW 328 0 min 2,0 UV-I 302 W/m 10,0 C 12,8 C 19,3 km/h (3 Bft)
15.05.2023 10:12 13,7 C 16,7 C 77 % 1015,1 hPa 0,0 l/m 12,3 km/h (3 Bft) NW 306 0 min 1,9 UV-I 285 W/m 9,7 C 10,6 C 19,3 km/h (3 Bft)
15.05.2023 10:15 13,4 C 16,1 C 78 % 1015,0 hPa 0,0 l/m 10,2 km/h (2 Bft) N-NW 344 0 min 1,8 UV-I 228 W/m 9,6 C 11,3 C 20,9 km/h (4 Bft)
15.05.2023 10:18 13,3 C 15,6 C 79 % 1015,2 hPa 0,0 l/m 8,0 km/h (2 Bft) N-NO 24 0 min 1,9 UV-I 225 W/m 9,7 C 12,3 C 16,1 km/h (3 Bft)
15.05.2023 10:21 13,3 C 15,6 C 79 % 1015,1 hPa 0,0 l/m 8,1 km/h (2 Bft) NW 304 0 min 2,1 UV-I 258 W/m 9,7 C 12,3 C 16,1 km/h (3 Bft)
15.05.2023 10:24 13,6 C 16,1 C 78 % 1015,1 hPa 0,0 l/m 6,5 km/h (2 Bft) NW 326 0 min 2,6 UV-I 329 W/m 9,8 C 13,6 C 14,5 km/h (3 Bft)
15.05.2023 10:27 13,7 C 16,7 C 77 % 1015,1 hPa 0,0 l/m 8,9 km/h (2 Bft) N 360 0 min 2,6 UV-I 352 W/m 9,7 C 12,2 C 16,1 km/h (3 Bft)
15.05.2023 10:30 13,8 C 17,2 C 76 % 1015,2 hPa 0,0 l/m 9,9 km/h (2 Bft) W-NW 298 3 min 2,8 UV-I 409 W/m 9,6 C 11,8 C 17,7 km/h (3 Bft)
15.05.2023 10:33 14,0 C 17,8 C 76 % 1015,1 hPa 0,0 l/m 10,0 km/h (2 Bft) N 355 3 min 3,1 UV-I 642 W/m 9,8 C 12,0 C 17,7 km/h (3 Bft)
15.05.2023 10:36 14,3 C 18,9 C 78 % 1015,1 hPa 0,0 l/m 6,4 km/h (2 Bft) N 360 3 min 3,4 UV-I 705 W/m 10,5 C 14,3 C 14,5 km/h (3 Bft)
15.05.2023 10:39 14,6 C 19,4 C 74 % 1015,1 hPa 0,0 l/m 8,1 km/h (2 Bft) W-NW 293 3 min 3,5 UV-I 717 W/m 10,0 C 13,6 C 17,7 km/h (3 Bft)
15.05.2023 10:42 14,8 C 20,0 C 72 % 1015,0 hPa 0,0 l/m 8,6 km/h (2 Bft) N-NW 348 3 min 3,7 UV-I 709 W/m 9,8 C 13,6 C 20,9 km/h (4 Bft)
15.05.2023 10:45 15,0 C 20,6 C 73 % 1015,2 hPa 0,0 l/m 8,2 km/h (2 Bft) NW 317 3 min 3,9 UV-I 782 W/m 10,2 C 14,0 C 14,5 km/h (3 Bft)
15.05.2023 10:48 14,8 C 21,1 C 70 % 1015,1 hPa 0,0 l/m 10,6 km/h (2 Bft) N 360 3 min 4,1 UV-I 839 W/m 9,4 C 12,6 C 14,5 km/h (3 Bft)
15.05.2023 10:51 14,8 C 21,1 C 72 % 1015,0 hPa 0,0 l/m 7,4 km/h (2 Bft) NW 304 3 min 3,6 UV-I 789 W/m 9,8 C 14,2 C 16,1 km/h (3 Bft)
15.05.2023 10:54 14,6 C 20,0 C 72 % 1015,1 hPa 0,0 l/m 4,3 km/h (1 Bft) N-NO 12 3 min 3,5 UV-I 583 W/m 9,6 C 14,6 C 11,3 km/h (2 Bft)
15.05.2023 10:57 14,7 C 20,0 C 70 % 1015,0 hPa 0,0 l/m 8,8 km/h (2 Bft) N-NW 341 3 min 2,9 UV-I 424 W/m 9,3 C 13,4 C 14,5 km/h (3 Bft)
15.05.2023 11:00 14,7 C 20,6 C 70 % 1015,0 hPa 0,0 l/m 9,9 km/h (2 Bft) N-NW 344 3 min 3,3 UV-I 404 W/m 9,3 C 12,8 C 17,7 km/h (3 Bft)
15.05.2023 11:03 15,1 C 20,0 C 71 % 1015,1 hPa 0,0 l/m 8,1 km/h (2 Bft) NW 311 3 min 3,3 UV-I 431 W/m 9,9 C 14,2 C 16,1 km/h (3 Bft)
15.05.2023 11:06 15,2 C 20,6 C 71 % 1015,1 hPa 0,0 l/m 6,9 km/h (2 Bft) NW 320 3 min 3,7 UV-I 601 W/m 10,0 C 14,9 C 16,1 km/h (3 Bft)
15.05.2023 11:09 15,3 C 21,7 C 68 % 1015,0 hPa 0,0 l/m 7,3 km/h (2 Bft) NW 325 3 min 4,0 UV-I 731 W/m 9,4 C 14,8 C 16,1 km/h (3 Bft)
15.05.2023 11:12 15,6 C 22,2 C 69 % 1015,1 hPa 0,0 l/m 9,3 km/h (2 Bft) NW 304 3 min 4,1 UV-I 796 W/m 9,9 C 14,1 C 19,3 km/h (3 Bft)
15.05.2023 11:15 15,1 C 20,6 C 67 % 1015,0 hPa 0,0 l/m 12,4 km/h (3 Bft) W-NW 300 3 min 3,6 UV-I 688 W/m 9,0 C 12,2 C 20,9 km/h (4 Bft)
15.05.2023 11:18 14,8 C 20,6 C 68 % 1015,1 hPa 0,0 l/m 9,7 km/h (2 Bft) NW 321 3 min 3,6 UV-I 570 W/m 9,0 C 13,0 C 17,7 km/h (3 Bft)
15.05.2023 11:21 14,5 C 18,9 C 65 % 1015,1 hPa 0,0 l/m 13,0 km/h (3 Bft) NW 313 3 min 3,4 UV-I 517 W/m 8,0 C 11,3 C 20,9 km/h (4 Bft)
15.05.2023 11:24 14,4 C 19,4 C 67 % 1015,1 hPa 0,0 l/m 10,5 km/h (2 Bft) W-NW 300 3 min 3,7 UV-I 538 W/m 8,4 C 12,2 C 16,1 km/h (3 Bft)
15.05.2023 11:27 14,4 C 19,4 C 68 % 1015,1 hPa 0,0 l/m 9,8 km/h (2 Bft) N-NW 331 3 min 3,8 UV-I 560 W/m 8,6 C 12,5 C 16,1 km/h (3 Bft)
15.05.2023 11:30 14,4 C 19,4 C 67 % 1015,0 hPa 0,0 l/m 9,0 km/h (2 Bft) N-NW 328 3 min 3,9 UV-I 513 W/m 8,4 C 12,9 C 20,9 km/h (4 Bft)
15.05.2023 11:33 14,6 C 20,0 C 66 % 1015,2 hPa 0,0 l/m 10,5 km/h (2 Bft) NW 310 3 min 4,4 UV-I 716 W/m 8,3 C 12,4 C 22,5 km/h (4 Bft)
15.05.2023 11:36 14,7 C 21,1 C 64 % 1015,0 hPa 0,0 l/m 9,6 km/h (2 Bft) N-NW 334 3 min 4,6 UV-I 756 W/m 8,0 C 13,0 C 14,5 km/h (3 Bft)
15.05.2023 11:39 15,1 C 22,2 C 65 % 1015,0 hPa 0,0 l/m 8,1 km/h (2 Bft) N 360 3 min 4,6 UV-I 755 W/m 8,6 C 14,2 C 16,1 km/h (3 Bft)
15.05.2023 11:42 15,2 C 22,8 C 63 % 1015,1 hPa 0,0 l/m 10,1 km/h (2 Bft) N 350 3 min 4,3 UV-I 702 W/m 8,2 C 13,3 C 17,7 km/h (3 Bft)
15.05.2023 11:45 15,2 C 22,2 C 63 % 1015,0 hPa 0,0 l/m 7,7 km/h (2 Bft) W-NW 291 3 min 4,6 UV-I 729 W/m 8,2 C 14,5 C 14,5 km/h (3 Bft)
15.05.2023 11:48 15,2 C 22,2 C 64 % 1015,0 hPa 0,0 l/m 5,9 km/h (2 Bft) W-NW 290 3 min 4,8 UV-I 765 W/m 8,4 C 15,2 C 16,1 km/h (3 Bft)
15.05.2023 11:51 15,3 C 22,2 C 66 % 1014,9 hPa 0,0 l/m 6,1 km/h (2 Bft) W-NW 296 3 min 4,8 UV-I 765 W/m 9,0 C 15,3 C 17,7 km/h (3 Bft)
15.05.2023 11:54 15,6 C 22,8 C 63 % 1014,9 hPa 0,0 l/m 9,2 km/h (2 Bft) NW 309 3 min 4,7 UV-I 775 W/m 8,6 C 14,1 C 14,5 km/h (3 Bft)
15.05.2023 11:57 15,8 C 22,2 C 60 % 1014,9 hPa 0,0 l/m 8,0 km/h (2 Bft) W-NW 302 3 min 4,9 UV-I 760 W/m 8,1 C 14,9 C 14,5 km/h (3 Bft)
15.05.2023 12:00 16,1 C 23,3 C 61 % 1014,9 hPa 0,0 l/m 6,2 km/h (2 Bft) NW 322 3 min 4,7 UV-I 770 W/m 8,6 C 16,1 C 12,9 km/h (3 Bft)
15.05.2023 12:03 15,9 C 23,3 C 60 % 1014,8 hPa 0,0 l/m 5,6 km/h (1 Bft) NW 324 3 min 5,0 UV-I 767 W/m 8,1 C 15,9 C 12,9 km/h (3 Bft)
15.05.2023 12:06 16,3 C 23,9 C 63 % 1014,9 hPa 0,0 l/m 8,1 km/h (2 Bft) W-NW 294 3 min 4,9 UV-I 763 W/m 9,2 C 15,4 C 14,5 km/h (3 Bft)
15.05.2023 12:09 16,4 C 23,9 C 58 % 1014,8 hPa 0,0 l/m 10,6 km/h (2 Bft) N-NW 333 3 min 4,7 UV-I 670 W/m 8,1 C 14,4 C 16,1 km/h (3 Bft)
15.05.2023 12:12 16,3 C 24,4 C 60 % 1014,7 hPa 0,0 l/m 11,4 km/h (2 Bft) N-NW 341 3 min 4,9 UV-I 693 W/m 8,5 C 14,0 C 20,9 km/h (4 Bft)
15.05.2023 12:15 16,4 C 24,4 C 60 % 1014,7 hPa 0,0 l/m 11,2 km/h (2 Bft) N 9 3 min 4,9 UV-I 760 W/m 8,6 C 14,2 C 19,3 km/h (3 Bft)
15.05.2023 12:18 16,7 C 24,4 C 61 % 1014,7 hPa 0,0 l/m 15,7 km/h (3 Bft) N-NW 335 3 min 5,0 UV-I 817 W/m 9,1 C 13,0 C 25,7 km/h (4 Bft)
15.05.2023 12:21 16,5 C 24,4 C 58 % 1014,7 hPa 0,0 l/m 13,1 km/h (3 Bft) N 355 3 min 4,7 UV-I 785 W/m 8,2 C 13,6 C 20,9 km/h (4 Bft)
15.05.2023 12:24 16,5 C 23,9 C 59 % 1014,7 hPa 0,0 l/m 10,2 km/h (2 Bft) N-NW 333 3 min 4,3 UV-I 728 W/m 8,5 C 14,7 C 19,3 km/h (3 Bft)
15.05.2023 12:27 16,2 C 22,8 C 58 % 1014,6 hPa 0,0 l/m 10,7 km/h (2 Bft) N-NW 344 3 min 3,3 UV-I 563 W/m 7,9 C 14,2 C 17,7 km/h (3 Bft)
15.05.2023 12:30 15,9 C 21,1 C 60 % 1014,7 hPa 0,0 l/m 6,5 km/h (2 Bft) NW 309 0 min 3,0 UV-I 256 W/m 8,1 C 15,9 C 14,5 km/h (3 Bft)
15.05.2023 12:33 15,6 C 19,4 C 58 % 1014,7 hPa 0,0 l/m 8,9 km/h (2 Bft) N-NW 331 0 min 2,9 UV-I 244 W/m 7,4 C 14,3 C 16,1 km/h (3 Bft)
15.05.2023 12:36 15,4 C 20,0 C 60 % 1014,6 hPa 0,0 l/m 7,8 km/h (2 Bft) W-NW 302 0 min 3,6 UV-I 259 W/m 7,7 C 14,6 C 16,1 km/h (3 Bft)
15.05.2023 12:39 15,9 C 22,8 C 57 % 1014,6 hPa 0,0 l/m 8,0 km/h (2 Bft) NW 314 3 min 5,0 UV-I 509 W/m 7,4 C 15,0 C 14,5 km/h (3 Bft)
15.05.2023 12:42 16,6 C 24,4 C 57 % 1014,6 hPa 0,0 l/m 10,0 km/h (2 Bft) NW 314 3 min 5,4 UV-I 904 W/m 8,0 C 14,9 C 19,3 km/h (3 Bft)
15.05.2023 12:45 16,7 C 25,0 C 55 % 1014,5 hPa 0,0 l/m 10,2 km/h (2 Bft) N-NW 346 3 min 4,5 UV-I 867 W/m 7,6 C 14,9 C 17,7 km/h (3 Bft)
15.05.2023 12:48 16,1 C 21,1 C 57 % 1014,6 hPa 0,0 l/m 7,2 km/h (2 Bft) N-NW 328 0 min 2,6 UV-I 257 W/m 7,6 C 15,7 C 17,7 km/h (3 Bft)
15.05.2023 12:51 15,7 C 18,9 C 57 % 1014,5 hPa 0,0 l/m 12,1 km/h (2 Bft) N-NW 327 0 min 2,5 UV-I 249 W/m 7,2 C 13,0 C 19,3 km/h (3 Bft)
15.05.2023 12:54 15,4 C 18,3 C 58 % 1014,6 hPa 0,0 l/m 4,3 km/h (1 Bft) W-NW 284 0 min 2,5 UV-I 250 W/m 7,2 C 15,4 C 11,3 km/h (2 Bft)
15.05.2023 12:57 15,6 C 18,3 C 59 % 1014,5 hPa 0,0 l/m 8,8 km/h (2 Bft) W-NW 303 0 min 3,2 UV-I 343 W/m 7,6 C 14,3 C 19,3 km/h (3 Bft)
15.05.2023 13:00 16,1 C 21,1 C 57 % 1014,5 hPa 0,0 l/m 7,5 km/h (2 Bft) W-NW 302 3 min 4,4 UV-I 741 W/m 7,6 C 15,5 C 16,1 km/h (3 Bft)
15.05.2023 13:03 16,1 C 20,0 C 60 % 1014,5 hPa 0,0 l/m 4,9 km/h (1 Bft) NW 311 0 min 2,9 UV-I 329 W/m 8,3 C 16,1 C 12,9 km/h (3 Bft)
15.05.2023 13:06 15,9 C 19,4 C 58 % 1014,5 hPa 0,0 l/m 5,0 km/h (1 Bft) W-NW 297 0 min 2,8 UV-I 302 W/m 7,6 C 15,9 C 11,3 km/h (2 Bft)
15.05.2023 13:09 15,8 C 18,9 C 58 % 1014,5 hPa 0,0 l/m 6,8 km/h (2 Bft) NW 312 0 min 2,5 UV-I 274 W/m 7,6 C 15,6 C 16,1 km/h (3 Bft)
15.05.2023 13:12 15,8 C 18,3 C 59 % 1014,4 hPa 0,0 l/m 10,9 km/h (2 Bft) N-NW 346 0 min 3,1 UV-I 344 W/m 7,8 C 13,6 C 19,3 km/h (3 Bft)
15.05.2023 13:15 16,4 C 23,3 C 59 % 1014,4 hPa 0,0 l/m 8,8 km/h (2 Bft) N-NW 348 3 min 4,7 UV-I 828 W/m 8,4 C 15,2 C 16,1 km/h (3 Bft)
15.05.2023 13:18 16,6 C 23,3 C 55 % 1014,4 hPa 0,0 l/m 11,2 km/h (2 Bft) N 355 3 min 3,8 UV-I 1006 W/m 7,5 C 14,4 C 20,9 km/h (4 Bft)
15.05.2023 13:21 16,1 C 21,1 C 58 % 1014,3 hPa 0,0 l/m 8,9 km/h (2 Bft) N-NW 345 0 min 2,9 UV-I 313 W/m 7,8 C 14,8 C 19,3 km/h (3 Bft)
15.05.2023 13:24 15,8 C 20,0 C 59 % 1014,3 hPa 0,0 l/m 10,8 km/h (2 Bft) N-NW 329 0 min 2,9 UV-I 297 W/m 7,8 C 13,7 C 17,7 km/h (3 Bft)
15.05.2023 13:27 15,8 C 20,0 C 57 % 1014,2 hPa 0,0 l/m 10,3 km/h (2 Bft) N-NW 346 0 min 3,9 UV-I 368 W/m 7,3 C 13,9 C 17,7 km/h (3 Bft)
15.05.2023 13:30 16,3 C 22,2 C 57 % 1014,3 hPa 0,0 l/m 5,0 km/h (1 Bft) W 275 0 min 3,6 UV-I 359 W/m 7,8 C 16,3 C 11,3 km/h (2 Bft)
15.05.2023 13:33 16,2 C 20,6 C 57 % 1014,2 hPa 0,0 l/m 5,7 km/h (1 Bft) N-NW 340 0 min 2,5 UV-I 258 W/m 7,7 C 16,2 C 11,3 km/h (2 Bft)
15.05.2023 13:36 15,9 C 18,9 C 57 % 1014,3 hPa 0,0 l/m 10,7 km/h (2 Bft) W-NW 286 0 min 2,7 UV-I 281 W/m 7,4 C 13,8 C 19,3 km/h (3 Bft)
15.05.2023 13:39 15,8 C 18,3 C 58 % 1014,2 hPa 0,0 l/m 7,5 km/h (2 Bft) W-SW 245 0 min 3,0 UV-I 316 W/m 7,6 C 15,2 C 14,5 km/h (3 Bft)
15.05.2023 13:42 15,9 C 20,0 C 61 % 1014,3 hPa 0,0 l/m 4,5 km/h (1 Bft) W-NW 282 0 min 3,9 UV-I 408 W/m 8,4 C 15,9 C 11,3 km/h (2 Bft)
15.05.2023 13:45 15,9 C 19,4 C 56 % 1014,3 hPa 0,0 l/m 10,1 km/h (2 Bft) W-NW 299 0 min 3,0 UV-I 367 W/m 7,1 C 14,1 C 19,3 km/h (3 Bft)
15.05.2023 13:48 15,7 C 18,9 C 58 % 1014,2 hPa 0,0 l/m 6,8 km/h (2 Bft) N-NW 328 0 min 2,7 UV-I 275 W/m 7,5 C 15,5 C 16,1 km/h (3 Bft)
15.05.2023 13:51 15,8 C 18,9 C 59 % 1014,1 hPa 0,0 l/m 7,9 km/h (2 Bft) N 355 0 min 2,8 UV-I 296 W/m 7,8 C 15,0 C 16,1 km/h (3 Bft)
15.05.2023 13:54 15,6 C 18,3 C 57 % 1014,0 hPa 0,0 l/m 6,1 km/h (2 Bft) W-NW 297 0 min 3,2 UV-I 265 W/m 7,1 C 15,6 C 16,1 km/h (3 Bft)
15.05.2023 13:57 15,7 C 18,3 C 55 % 1014,0 hPa 0,0 l/m 7,7 km/h (2 Bft) N 350 0 min 3,0 UV-I 272 W/m 6,7 C 15,0 C 16,1 km/h (3 Bft)
15.05.2023 14:00 15,7 C 18,3 C 57 % 1014,2 hPa 0,0 l/m 5,8 km/h (2 Bft) W 272 0 min 2,4 UV-I 229 W/m 7,2 C 15,7 C 12,9 km/h (3 Bft)
15.05.2023 14:03 15,6 C 17,8 C 56 % 1014,1 hPa 0,0 l/m 8,2 km/h (2 Bft) W-NW 292 0 min 2,4 UV-I 234 W/m 6,9 C 14,6 C 17,7 km/h (3 Bft)
15.05.2023 14:06 15,6 C 17,2 C 55 % 1014,1 hPa 0,0 l/m 7,1 km/h (2 Bft) N-NW 335 0 min 2,4 UV-I 243 W/m 6,6 C 15,2 C 16,1 km/h (3 Bft)
15.05.2023 14:09 15,6 C 17,2 C 55 % 1014,1 hPa 0,0 l/m 11,0 km/h (2 Bft) NW 317 0 min 2,5 UV-I 254 W/m 6,6 C 13,4 C 20,9 km/h (4 Bft)
15.05.2023 14:12 15,9 C 20,0 C 55 % 1014,2 hPa 0,0 l/m 8,1 km/h (2 Bft) W-NW 303 0 min 4,4 UV-I 315 W/m 6,9 C 15,0 C 14,5 km/h (3 Bft)
15.05.2023 14:15 16,6 C 22,8 C 56 % 1014,1 hPa 0,0 l/m 6,3 km/h (2 Bft) S-SW 207 3 min 4,5 UV-I 696 W/m 7,8 C 16,6 C 12,9 km/h (3 Bft)
15.05.2023 14:18 16,9 C 23,3 C 53 % 1014,1 hPa 0,0 l/m 5,7 km/h (1 Bft) W 267 0 min 4,8 UV-I 398 W/m 7,3 C 16,9 C 17,7 km/h (3 Bft)
15.05.2023 14:21 17,3 C 24,4 C 53 % 1014,1 hPa 0,0 l/m 8,6 km/h (2 Bft) W-SW 238 3 min 5,8 UV-I 976 W/m 7,6 C 16,2 C 14,5 km/h (3 Bft)
15.05.2023 14:24 17,3 C 25,6 C 50 % 1014,1 hPa 0,0 l/m 8,0 km/h (2 Bft) W-NW 297 3 min 5,4 UV-I 967 W/m 6,8 C 16,5 C 19,3 km/h (3 Bft)
15.05.2023 14:27 17,3 C 25,0 C 50 % 1014,2 hPa 0,0 l/m 12,4 km/h (3 Bft) W-SW 256 3 min 5,6 UV-I 961 W/m 6,8 C 14,8 C 19,3 km/h (3 Bft)
15.05.2023 14:30 17,3 C 24,4 C 50 % 1014,1 hPa 0,0 l/m 10,7 km/h (2 Bft) W-SW 252 3 min 5,8 UV-I 949 W/m 6,8 C 15,4 C 19,3 km/h (3 Bft)
15.05.2023 14:33 17,4 C 24,4 C 50 % 1014,2 hPa 0,0 l/m 9,5 km/h (2 Bft) W-SW 239 3 min 5,8 UV-I 941 W/m 6,9 C 16,0 C 14,5 km/h (3 Bft)
15.05.2023 14:36 17,3 C 24,4 C 47 % 1014,1 hPa 0,0 l/m 10,1 km/h (2 Bft) S-SW 200 3 min 4,8 UV-I 858 W/m 5,9 C 15,6 C 17,7 km/h (3 Bft)
15.05.2023 14:39 16,7 C 20,6 C 50 % 1014,2 hPa 0,0 l/m 7,9 km/h (2 Bft) W 275 0 min 2,8 UV-I 251 W/m 6,2 C 15,9 C 19,3 km/h (3 Bft)
15.05.2023 14:42 16,3 C 19,4 C 50 % 1014,2 hPa 0,0 l/m 6,5 km/h (2 Bft) W-NW 283 0 min 3,4 UV-I 278 W/m 5,9 C 16,3 C 14,5 km/h (3 Bft)
15.05.2023 14:45 16,2 C 20,6 C 55 % 1014,2 hPa 0,0 l/m 5,8 km/h (2 Bft) W 265 0 min 3,7 UV-I 306 W/m 7,2 C 16,2 C 12,9 km/h (3 Bft)
15.05.2023 14:48 16,4 C 19,4 C 52 % 1014,1 hPa 0,0 l/m 9,2 km/h (2 Bft) N-NW 344 0 min 2,9 UV-I 286 W/m 6,5 C 15,0 C 16,1 km/h (3 Bft)
15.05.2023 14:51 16,4 C 19,4 C 53 % 1014,2 hPa 0,0 l/m 7,3 km/h (2 Bft) N 5 0 min 3,4 UV-I 299 W/m 6,8 C 15,9 C 14,5 km/h (3 Bft)
15.05.2023 14:54 16,4 C 20,6 C 52 % 1014,2 hPa 0,0 l/m 7,2 km/h (2 Bft) S-SW 194 0 min 4,0 UV-I 285 W/m 6,5 C 16,0 C 14,5 km/h (3 Bft)
15.05.2023 14:57 16,9 C 22,8 C 55 % 1014,3 hPa 0,0 l/m 6,4 km/h (2 Bft) W-NW 287 0 min 5,0 UV-I 285 W/m 7,8 C 16,9 C 14,5 km/h (3 Bft)
15.05.2023 15:00 17,3 C 25,6 C 52 % 1014,2 hPa 0,0 l/m 11,6 km/h (2 Bft) N 5 3 min 5,5 UV-I 963 W/m 7,3 C 15,1 C 17,7 km/h (3 Bft)
15.05.2023 15:03 17,6 C 26,1 C 51 % 1014,2 hPa 0,0 l/m 13,3 km/h (3 Bft) SW 232 3 min 5,5 UV-I 986 W/m 7,3 C 14,8 C 25,7 km/h (4 Bft)
15.05.2023 15:06 17,6 C 25,6 C 54 % 1014,2 hPa 0,0 l/m 12,9 km/h (3 Bft) W-SW 250 3 min 5,4 UV-I 970 W/m 8,2 C 15,0 C 20,9 km/h (4 Bft)
15.05.2023 15:09 17,4 C 24,4 C 53 % 1014,3 hPa 0,0 l/m 11,2 km/h (2 Bft) W-NW 285 3 min 4,1 UV-I 953 W/m 7,7 C 15,3 C 20,9 km/h (4 Bft)
15.05.2023 15:12 17,4 C 25,0 C 53 % 1014,2 hPa 0,0 l/m 7,6 km/h (2 Bft) NW 312 3 min 5,1 UV-I 942 W/m 7,7 C 16,8 C 16,1 km/h (3 Bft)
15.05.2023 15:15 17,5 C 26,7 C 47 % 1014,2 hPa 0,0 l/m 8,2 km/h (2 Bft) W-NW 288 3 min 4,6 UV-I 891 W/m 6,1 C 16,6 C 16,1 km/h (3 Bft)
15.05.2023 15:18 16,9 C 22,2 C 51 % 1014,2 hPa 0,0 l/m 5,9 km/h (2 Bft) W 275 0 min 2,9 UV-I 281 W/m 6,7 C 16,9 C 12,9 km/h (3 Bft)
15.05.2023 15:21 16,4 C 19,4 C 52 % 1014,3 hPa 0,0 l/m 9,8 km/h (2 Bft) W 272 0 min 2,8 UV-I 251 W/m 6,5 C 14,7 C 16,1 km/h (3 Bft)
15.05.2023 15:24 16,4 C 21,7 C 55 % 1014,2 hPa 0,0 l/m 6,6 km/h (2 Bft) W-SW 244 0 min 4,6 UV-I 329 W/m 7,3 C 16,3 C 14,5 km/h (3 Bft)
15.05.2023 15:27 16,7 C 22,2 C 50 % 1014,2 hPa 0,0 l/m 8,5 km/h (2 Bft) W-NW 299 3 min 4,4 UV-I 837 W/m 6,2 C 15,6 C 20,9 km/h (4 Bft)
15.05.2023 15:30 17,0 C 23,9 C 51 % 1014,1 hPa 0,0 l/m 11,2 km/h (2 Bft) W 279 3 min 4,7 UV-I 876 W/m 6,8 C 14,9 C 19,3 km/h (3 Bft)
15.05.2023 15:33 16,6 C 20,6 C 49 % 1014,1 hPa 0,0 l/m 8,0 km/h (2 Bft) W-SW 250 3 min 2,6 UV-I 492 W/m 5,8 C 15,8 C 19,3 km/h (3 Bft)
15.05.2023 15:36 16,5 C 22,8 C 53 % 1014,2 hPa 0,0 l/m 6,8 km/h (2 Bft) W 263 3 min 4,5 UV-I 669 W/m 6,9 C 16,3 C 17,7 km/h (3 Bft)
15.05.2023 15:39 17,0 C 25,0 C 55 % 1014,3 hPa 0,0 l/m 8,5 km/h (2 Bft) W-SW 257 3 min 4,7 UV-I 813 W/m 7,9 C 16,0 C 16,1 km/h (3 Bft)
15.05.2023 15:42 17,0 C 25,0 C 52 % 1014,3 hPa 0,0 l/m 9,2 km/h (2 Bft) W 267 3 min 4,7 UV-I 770 W/m 7,1 C 15,7 C 20,9 km/h (4 Bft)
15.05.2023 15:45 17,2 C 25,6 C 50 % 1014,3 hPa 0,0 l/m 7,4 km/h (2 Bft) W-NW 300 3 min 4,3 UV-I 694 W/m 6,7 C 16,7 C 16,1 km/h (3 Bft)
15.05.2023 15:48 17,3 C 27,2 C 51 % 1014,2 hPa 0,0 l/m 7,8 km/h (2 Bft) W-NW 291 3 min 4,7 UV-I 748 W/m 7,1 C 16,6 C 14,5 km/h (3 Bft)
15.05.2023 15:51 17,6 C 27,8 C 55 % 1014,2 hPa 0,0 l/m 3,5 km/h (1 Bft) SW 227 3 min 4,7 UV-I 766 W/m 8,5 C 17,6 C 8,0 km/h (2 Bft)
15.05.2023 15:54 17,3 C 26,7 C 46 % 1014,3 hPa 0,0 l/m 8,1 km/h (2 Bft) W 272 3 min 4,7 UV-I 762 W/m 5,6 C 16,5 C 20,9 km/h (4 Bft)
15.05.2023 15:57 17,4 C 26,1 C 46 % 1014,2 hPa 0,0 l/m 8,0 km/h (2 Bft) W 275 3 min 4,7 UV-I 775 W/m 5,7 C 16,6 C 17,7 km/h (3 Bft)
15.05.2023 16:00 17,2 C 26,7 C 45 % 1014,2 hPa 0,0 l/m 4,5 km/h (1 Bft) W-SW 255 3 min 4,5 UV-I 800 W/m 5,2 C 17,2 C 11,3 km/h (2 Bft)
15.05.2023 16:03 17,0 C 23,9 C 41 % 1014,2 hPa 0,0 l/m 7,2 km/h (2 Bft) NW 304 3 min 2,9 UV-I 422 W/m 3,7 C 16,6 C 19,3 km/h (3 Bft)
15.05.2023 16:06 16,8 C 22,8 C 49 % 1014,2 hPa 0,0 l/m 9,8 km/h (2 Bft) W 279 3 min 3,9 UV-I 667 W/m 6,0 C 15,2 C 19,3 km/h (3 Bft)
15.05.2023 16:09 17,0 C 24,4 C 52 % 1014,2 hPa 0,0 l/m 10,3 km/h (2 Bft) W 277 3 min 4,5 UV-I 789 W/m 7,1 C 15,2 C 19,3 km/h (3 Bft)
15.05.2023 16:12 17,2 C 25,0 C 48 % 1014,1 hPa 0,0 l/m 12,7 km/h (3 Bft) W-SW 244 3 min 4,4 UV-I 755 W/m 6,1 C 14,6 C 20,9 km/h (4 Bft)
15.05.2023 16:15 17,2 C 23,3 C 50 % 1014,2 hPa 0,0 l/m 10,2 km/h (2 Bft) S-SW 203 3 min 3,8 UV-I 747 W/m 6,7 C 15,5 C 17,7 km/h (3 Bft)
15.05.2023 16:18 17,1 C 23,9 C 53 % 1014,2 hPa 0,0 l/m 5,9 km/h (2 Bft) W-NW 283 3 min 4,1 UV-I 730 W/m 7,4 C 17,1 C 12,9 km/h (3 Bft)
15.05.2023 16:21 17,0 C 24,4 C 53 % 1014,3 hPa 0,0 l/m 7,4 km/h (2 Bft) NO 36 3 min 3,4 UV-I 695 W/m 7,4 C 16,5 C 16,1 km/h (3 Bft)
15.05.2023 16:24 16,9 C 25,0 C 52 % 1014,3 hPa 0,0 l/m 3,6 km/h (1 Bft) N-NO 14 3 min 3,9 UV-I 695 W/m 7,0 C 16,9 C 8,0 km/h (2 Bft)
15.05.2023 16:27 17,2 C 26,7 C 48 % 1014,2 hPa 0,0 l/m 5,8 km/h (2 Bft) W-SW 240 3 min 4,0 UV-I 709 W/m 6,1 C 17,2 C 14,5 km/h (3 Bft)
15.05.2023 16:30 17,3 C 26,7 C 48 % 1014,2 hPa 0,0 l/m 10,9 km/h (2 Bft) W-SW 253 3 min 4,1 UV-I 721 W/m 6,2 C 15,3 C 22,5 km/h (4 Bft)
15.05.2023 16:33 17,2 C 25,6 C 52 % 1014,3 hPa 0,0 l/m 7,0 km/h (2 Bft) W 265 3 min 3,8 UV-I 657 W/m 7,3 C 16,9 C 16,1 km/h (3 Bft)
15.05.2023 16:37 16,8 C 23,9 C 51 % 1014,4 hPa 0,0 l/m 6,9 km/h (2 Bft) SW 229 4 min 3,2 UV-I 494 W/m 6,6 C 16,5 C 20,9 km/h (4 Bft)
15.05.2023 16:39 16,7 C 23,3 C 48 % 1014,3 hPa 0,0 l/m 8,8 km/h (2 Bft) W 269 2 min 3,2 UV-I 500 W/m 5,6 C 15,5 C 17,7 km/h (3 Bft)
15.05.2023 16:42 16,8 C 23,3 C 52 % 1014,3 hPa 0,0 l/m 8,3 km/h (2 Bft) W-NW 282 3 min 3,6 UV-I 623 W/m 6,9 C 15,8 C 17,7 km/h (3 Bft)
15.05.2023 16:45 16,8 C 23,3 C 51 % 1014,3 hPa 0,0 l/m 10,4 km/h (2 Bft) W-NW 284 3 min 3,5 UV-I 698 W/m 6,6 C 14,9 C 20,9 km/h (4 Bft)
15.05.2023 16:48 16,8 C 24,4 C 48 % 1014,3 hPa 0,0 l/m 10,1 km/h (2 Bft) W 276 3 min 3,9 UV-I 710 W/m 5,7 C 15,1 C 20,9 km/h (4 Bft)
15.05.2023 16:51 16,8 C 25,6 C 52 % 1014,4 hPa 0,0 l/m 11,2 km/h (2 Bft) W-SW 247 3 min 3,7 UV-I 683 W/m 6,9 C 14,6 C 19,3 km/h (3 Bft)
15.05.2023 16:54 16,8 C 24,4 C 54 % 1014,4 hPa 0,0 l/m 12,0 km/h (2 Bft) W-SW 250 3 min 3,6 UV-I 673 W/m 7,4 C 14,3 C 30,6 km/h (5 Bft)
15.05.2023 16:57 16,6 C 25,0 C 52 % 1014,3 hPa 0,0 l/m 13,3 km/h (3 Bft) N 9 3 min 3,7 UV-I 689 W/m 6,7 C 13,7 C 24,1 km/h (4 Bft)
15.05.2023 17:00 16,7 C 25,6 C 54 % 1014,4 hPa 0,0 l/m 10,9 km/h (2 Bft) N-NW 334 3 min 3,6 UV-I 683 W/m 7,3 C 14,6 C 27,4 km/h (4 Bft)
15.05.2023 17:03 16,8 C 26,1 C 54 % 1014,5 hPa 0,0 l/m 7,9 km/h (2 Bft) W-NW 292 3 min 3,1 UV-I 660 W/m 7,4 C 16,0 C 19,3 km/h (3 Bft)
15.05.2023 17:06 16,7 C 25,0 C 51 % 1014,5 hPa 0,0 l/m 6,1 km/h (2 Bft) W 278 3 min 2,9 UV-I 506 W/m 6,5 C 16,7 C 12,9 km/h (3 Bft)
15.05.2023 17:09 16,6 C 23,9 C 54 % 1014,4 hPa 0,0 l/m 5,8 km/h (2 Bft) W 277 3 min 3,0 UV-I 532 W/m 7,3 C 16,6 C 12,9 km/h (3 Bft)
15.05.2023 17:12 16,3 C 22,8 C 55 % 1014,5 hPa 0,0 l/m 11,0 km/h (2 Bft) W-SW 245 3 min 2,9 UV-I 436 W/m 7,2 C 14,1 C 17,7 km/h (3 Bft)
15.05.2023 17:15 16,3 C 22,2 C 56 % 1014,5 hPa 0,0 l/m 7,6 km/h (2 Bft) W-SW 256 3 min 2,7 UV-I 511 W/m 7,5 C 15,7 C 14,5 km/h (3 Bft)
15.05.2023 17:18 15,8 C 19,4 C 57 % 1014,5 hPa 0,0 l/m 12,5 km/h (3 Bft) W-SW 239 3 min 2,2 UV-I 352 W/m 7,3 C 13,0 C 20,9 km/h (4 Bft)
15.05.2023 17:21 15,7 C 20,0 C 59 % 1014,5 hPa 0,0 l/m 9,2 km/h (2 Bft) W 277 3 min 2,4 UV-I 429 W/m 7,7 C 14,3 C 19,3 km/h (3 Bft)
15.05.2023 17:24 15,7 C 20,6 C 57 % 1014,6 hPa 0,0 l/m 11,4 km/h (2 Bft) W 264 3 min 2,4 UV-I 419 W/m 7,2 C 13,3 C 20,9 km/h (4 Bft)
15.05.2023 17:27 15,5 C 18,3 C 59 % 1014,5 hPa 0,0 l/m 11,9 km/h (2 Bft) W-NW 287 0 min 2,0 UV-I 301 W/m 7,5 C 12,9 C 25,7 km/h (4 Bft)
15.05.2023 17:30 15,4 C 18,3 C 60 % 1014,6 hPa 0,0 l/m 12,7 km/h (3 Bft) W 280 3 min 2,0 UV-I 308 W/m 7,7 C 12,5 C 24,1 km/h (4 Bft)
15.05.2023 17:33 15,2 C 17,2 C 60 % 1014,6 hPa 0,0 l/m 9,7 km/h (2 Bft) S 169 0 min 1,8 UV-I 242 W/m 7,5 C 13,5 C 22,5 km/h (4 Bft)
15.05.2023 17:36 14,9 C 17,2 C 61 % 1014,6 hPa 0,0 l/m 7,6 km/h (2 Bft) NW 326 0 min 1,6 UV-I 212 W/m 7,4 C 14,2 C 20,9 km/h (4 Bft)
15.05.2023 17:39 14,8 C 17,2 C 61 % 1014,5 hPa 0,0 l/m 9,9 km/h (2 Bft) W 270 0 min 1,6 UV-I 227 W/m 7,4 C 12,9 C 19,3 km/h (3 Bft)
15.05.2023 17:42 14,8 C 18,3 C 62 % 1014,7 hPa 0,0 l/m 8,9 km/h (2 Bft) W-SW 247 3 min 1,8 UV-I 355 W/m 7,6 C 13,4 C 19,3 km/h (3 Bft)
15.05.2023 17:45 14,8 C 18,3 C 64 % 1014,7 hPa 0,0 l/m 8,1 km/h (2 Bft) W-NW 294 3 min 1,9 UV-I 384 W/m 8,1 C 13,8 C 19,3 km/h (3 Bft)
15.05.2023 17:48 14,8 C 19,4 C 64 % 1014,7 hPa 0,0 l/m 11,3 km/h (2 Bft) NW 309 3 min 1,9 UV-I 440 W/m 8,1 C 12,3 C 22,5 km/h (4 Bft)
15.05.2023 17:51 14,6 C 17,8 C 65 % 1014,8 hPa 0,0 l/m 11,8 km/h (2 Bft) NW 313 3 min 1,6 UV-I 321 W/m 8,1 C 11,9 C 22,5 km/h (4 Bft)
15.05.2023 17:54 14,3 C 16,1 C 67 % 1014,8 hPa 0,0 l/m 11,0 km/h (2 Bft) N 9 0 min 1,4 UV-I 183 W/m 8,3 C 11,9 C 24,1 km/h (4 Bft)
15.05.2023 17:57 14,1 C 15,6 C 67 % 1014,9 hPa 0,0 l/m 11,6 km/h (2 Bft) N-NW 327 0 min 1,4 UV-I 196 W/m 8,1 C 11,4 C 22,5 km/h (4 Bft)
15.05.2023 18:00 14,0 C 15,6 C 68 % 1014,8 hPa 0,0 l/m 8,0 km/h (2 Bft) W 265 0 min 1,3 UV-I 184 W/m 8,2 C 13,1 C 20,9 km/h (4 Bft)
15.05.2023 18:03 13,9 C 15,6 C 68 % 1014,8 hPa 0,0 l/m 5,6 km/h (1 Bft) W-SW 258 0 min 1,3 UV-I 181 W/m 8,1 C 13,9 C 12,9 km/h (3 Bft)
15.05.2023 18:06 13,8 C 15,0 C 68 % 1014,9 hPa 0,0 l/m 6,3 km/h (2 Bft) SW 236 0 min 1,2 UV-I 176 W/m 8,0 C 13,8 C 11,3 km/h (2 Bft)
15.05.2023 18:09 13,7 C 15,0 C 69 % 1014,9 hPa 0,0 l/m 3,4 km/h (1 Bft) NW 304 0 min 1,2 UV-I 164 W/m 8,1 C 13,7 C 9,7 km/h (2 Bft)
15.05.2023 18:12 13,7 C 14,4 C 68 % 1014,9 hPa 0,0 l/m 5,6 km/h (1 Bft) W-NW 284 0 min 1,1 UV-I 158 W/m 7,9 C 13,7 C 14,5 km/h (3 Bft)
15.05.2023 18:15 13,6 C 14,4 C 69 % 1014,9 hPa 0,0 l/m 7,9 km/h (2 Bft) SW 230 0 min 1,1 UV-I 162 W/m 8,0 C 12,7 C 16,1 km/h (3 Bft)
15.05.2023 18:18 13,5 C 14,4 C 70 % 1015,0 hPa 0,0 l/m 7,1 km/h (2 Bft) W 268 0 min 1,1 UV-I 165 W/m 8,1 C 13,1 C 14,5 km/h (3 Bft)
15.05.2023 18:21 13,5 C 14,4 C 71 % 1015,1 hPa 0,0 l/m 5,3 km/h (1 Bft) W-NW 283 0 min 1,0 UV-I 153 W/m 8,3 C 13,5 C 12,9 km/h (3 Bft)
15.05.2023 18:24 13,4 C 13,9 C 70 % 1015,0 hPa 0,0 l/m 5,6 km/h (1 Bft) W-SW 237 0 min 0,9 UV-I 142 W/m 8,0 C 13,4 C 14,5 km/h (3 Bft)
15.05.2023 18:27 13,4 C 13,9 C 71 % 1015,2 hPa 0,0 l/m 8,4 km/h (2 Bft) W 281 0 min 0,8 UV-I 142 W/m 8,3 C 12,2 C 16,1 km/h (3 Bft)
15.05.2023 18:30 13,3 C 13,9 C 71 % 1015,1 hPa 0,0 l/m 9,7 km/h (2 Bft) W-NW 302 0 min 0,8 UV-I 144 W/m 8,2 C 11,4 C 22,5 km/h (4 Bft)
15.05.2023 18:33 13,3 C 13,9 C 72 % 1014,9 hPa 0,0 l/m 6,5 km/h (2 Bft) W 259 0 min 0,8 UV-I 131 W/m 8,4 C 13,3 C 16,1 km/h (3 Bft)
15.05.2023 18:36 13,2 C 13,9 C 72 % 1015,0 hPa 0,0 l/m 7,1 km/h (2 Bft) W-SW 245 0 min 0,8 UV-I 129 W/m 8,3 C 12,8 C 19,3 km/h (3 Bft)
15.05.2023 18:39 13,1 C 13,3 C 72 % 1015,0 hPa 0,0 l/m 5,9 km/h (2 Bft) W 269 0 min 0,8 UV-I 125 W/m 8,2 C 13,1 C 17,7 km/h (3 Bft)
15.05.2023 18:42 12,9 C 13,3 C 73 % 1015,1 hPa 0,0 l/m 6,6 km/h (2 Bft) W 278 0 min 0,7 UV-I 118 W/m 8,2 C 12,8 C 20,9 km/h (4 Bft)
15.05.2023 18:45 12,8 C 13,3 C 73 % 1015,1 hPa 0,0 l/m 5,7 km/h (1 Bft) NO 55 0 min 0,7 UV-I 114 W/m 8,1 C 12,8 C 11,3 km/h (2 Bft)
15.05.2023 18:48 12,8 C 13,3 C 73 % 1015,1 hPa 0,0 l/m 5,9 km/h (2 Bft) NW 324 0 min 0,7 UV-I 117 W/m 8,1 C 12,8 C 17,7 km/h (3 Bft)
15.05.2023 18:51 12,7 C 13,3 C 72 % 1015,1 hPa 0,0 l/m 5,6 km/h (1 Bft) W 268 0 min 0,7 UV-I 112 W/m 7,8 C 12,7 C 20,9 km/h (4 Bft)
15.05.2023 18:54 12,6 C 12,8 C 73 % 1015,2 hPa 0,0 l/m 4,4 km/h (1 Bft) W-SW 250 0 min 0,6 UV-I 100 W/m 7,9 C 12,6 C 11,3 km/h (2 Bft)
15.05.2023 18:57 12,6 C 12,8 C 74 % 1015,1 hPa 0,0 l/m 7,5 km/h (2 Bft) W 267 0 min 0,5 UV-I 85 W/m 8,1 C 11,9 C 16,1 km/h (3 Bft)
15.05.2023 19:00 12,4 C 12,2 C 75 % 1015,2 hPa 0,0 l/m 11,5 km/h (2 Bft) W 259 0 min 0,3 UV-I 79 W/m 8,1 C 9,5 C 22,5 km/h (4 Bft)
15.05.2023 19:03 12,2 C 12,2 C 76 % 1015,1 hPa 0,0 l/m 4,3 km/h (1 Bft) W-SW 245 0 min 0,0 UV-I 75 W/m 8,1 C 12,2 C 9,7 km/h (2 Bft)
15.05.2023 19:06 12,1 C 12,2 C 76 % 1015,2 hPa 0,0 l/m 7,4 km/h (2 Bft) W-SW 257 0 min 0,0 UV-I 67 W/m 8,0 C 11,4 C 19,3 km/h (3 Bft)
15.05.2023 19:09 11,9 C 11,7 C 76 % 1015,2 hPa 0,0 l/m 10,4 km/h (2 Bft) W 275 0 min 0,0 UV-I 61 W/m 7,8 C 9,5 C 16,1 km/h (3 Bft)
15.05.2023 19:12 11,8 C 11,7 C 76 % 1015,3 hPa 0,0 l/m 7,2 km/h (2 Bft) W-SW 247 0 min 0,0 UV-I 54 W/m 7,7 C 11,3 C 19,3 km/h (3 Bft)
15.05.2023 19:15 11,8 C 11,7 C 76 % 1015,2 hPa 0,0 l/m 4,9 km/h (1 Bft) W-NW 283 0 min 0,0 UV-I 52 W/m 7,7 C 11,8 C 11,3 km/h (2 Bft)
15.05.2023 19:18 11,7 C 11,7 C 76 % 1015,3 hPa 0,0 l/m 5,5 km/h (1 Bft) NW 311 0 min 0,0 UV-I 48 W/m 7,6 C 11,7 C 17,7 km/h (3 Bft)
15.05.2023 19:21 11,6 C 11,7 C 76 % 1015,3 hPa 0,0 l/m 4,9 km/h (1 Bft) W 281 0 min 0,0 UV-I 45 W/m 7,5 C 11,6 C 12,9 km/h (3 Bft)
15.05.2023 19:24 11,6 C 11,1 C 76 % 1015,3 hPa 0,0 l/m 4,1 km/h (1 Bft) W-NW 298 0 min 0,0 UV-I 42 W/m 7,5 C 11,6 C 11,3 km/h (2 Bft)
15.05.2023 19:27 11,4 C 11,1 C 75 % 1015,4 hPa 0,0 l/m 6,1 km/h (2 Bft) NW 307 0 min 0,0 UV-I 40 W/m 7,1 C 11,4 C 14,5 km/h (3 Bft)
15.05.2023 19:30 11,4 C 11,1 C 75 % 1015,5 hPa 0,0 l/m 5,3 km/h (1 Bft) NW 317 0 min 0,0 UV-I 38 W/m 7,1 C 11,4 C 14,5 km/h (3 Bft)
15.05.2023 19:33 11,3 C 11,1 C 75 % 1015,5 hPa 0,0 l/m 6,8 km/h (2 Bft) SW 222 0 min 0,0 UV-I 36 W/m 7,0 C 11,0 C 12,9 km/h (3 Bft)
15.05.2023 19:36 11,3 C 11,1 C 76 % 1015,5 hPa 0,0 l/m 4,4 km/h (1 Bft) W 277 0 min 0,0 UV-I 36 W/m 7,2 C 11,3 C 9,7 km/h (2 Bft)
15.05.2023 19:39 11,3 C 11,1 C 76 % 1015,6 hPa 0,0 l/m 3,0 km/h (1 Bft) W 261 0 min 0,0 UV-I 38 W/m 7,2 C 11,3 C 9,7 km/h (2 Bft)
15.05.2023 19:42 11,2 C 11,1 C 77 % 1015,5 hPa 0,0 l/m 2,9 km/h (1 Bft) SW 226 0 min 0,0 UV-I 36 W/m 7,3 C 11,2 C 9,7 km/h (2 Bft)
15.05.2023 19:45 11,2 C 11,1 C 77 % 1015,6 hPa 0,0 l/m 3,3 km/h (1 Bft) W-SW 257 0 min 0,0 UV-I 35 W/m 7,3 C 11,2 C 6,4 km/h (2 Bft)
15.05.2023 19:48 11,2 C 11,1 C 77 % 1015,5 hPa 0,0 l/m 8,0 km/h (2 Bft) W-NW 296 0 min 0,0 UV-I 39 W/m 7,3 C 10,1 C 22,5 km/h (4 Bft)
15.05.2023 19:51 11,2 C 11,1 C 77 % 1015,6 hPa 0,0 l/m 4,6 km/h (1 Bft) N 355 0 min 0,0 UV-I 44 W/m 7,3 C 11,2 C 22,5 km/h (4 Bft)
15.05.2023 19:54 11,2 C 11,1 C 77 % 1015,6 hPa 0,0 l/m 4,6 km/h (1 Bft) W 267 0 min 0,0 UV-I 46 W/m 7,3 C 11,2 C 8,0 km/h (2 Bft)
15.05.2023 19:57 11,2 C 11,1 C 77 % 1015,7 hPa 0,0 l/m 6,5 km/h (2 Bft) N-NW 337 0 min 0,0 UV-I 46 W/m 7,3 C 11,2 C 16,1 km/h (3 Bft)
15.05.2023 20:00 11,2 C 11,1 C 77 % 1015,8 hPa 0,0 l/m 7,5 km/h (2 Bft) W 275 0 min 0,0 UV-I 46 W/m 7,3 C 10,4 C 14,5 km/h (3 Bft)
15.05.2023 20:03 11,2 C 11,1 C 77 % 1015,7 hPa 0,0 l/m 6,5 km/h (2 Bft) W-SW 247 0 min 0,0 UV-I 43 W/m 7,3 C 11,2 C 12,9 km/h (3 Bft)
15.05.2023 20:06 11,1 C 11,1 C 77 % 1015,8 hPa 0,0 l/m 4,7 km/h (1 Bft) W-SW 247 0 min 0,0 UV-I 40 W/m 7,2 C 11,1 C 11,3 km/h (2 Bft)
15.05.2023 20:09 11,1 C 10,6 C 78 % 1015,7 hPa 0,0 l/m 5,1 km/h (1 Bft) W 272 0 min 0,0 UV-I 37 W/m 7,4 C 11,1 C 11,3 km/h (2 Bft)
15.05.2023 20:12 11,1 C 11,1 C 78 % 1015,8 hPa 0,0 l/m 5,7 km/h (1 Bft) NW 314 0 min 0,0 UV-I 35 W/m 7,4 C 11,1 C 14,5 km/h (3 Bft)
15.05.2023 20:15 11,1 C 10,6 C 78 % 1015,8 hPa 0,0 l/m 5,8 km/h (2 Bft) W-NW 292 0 min 0,0 UV-I 33 W/m 7,4 C 11,1 C 12,9 km/h (3 Bft)
15.05.2023 20:18 11,1 C 10,6 C 79 % 1015,9 hPa 0,0 l/m 3,4 km/h (1 Bft) W 279 0 min 0,0 UV-I 33 W/m 7,6 C 11,1 C 11,3 km/h (2 Bft)
15.05.2023 20:21 11,1 C 10,6 C 79 % 1015,9 hPa 0,0 l/m 3,4 km/h (1 Bft) W-NW 292 0 min 0,0 UV-I 29 W/m 7,6 C 11,1 C 9,7 km/h (2 Bft)
15.05.2023 20:24 11,1 C 10,6 C 79 % 1015,9 hPa 0,0 l/m 4,4 km/h (1 Bft) W-SW 256 0 min 0,0 UV-I 26 W/m 7,6 C 11,1 C 9,7 km/h (2 Bft)
15.05.2023 20:27 11,1 C 10,6 C 79 % 1016,0 hPa 0,0 l/m 4,3 km/h (1 Bft) W-SW 250 0 min 0,0 UV-I 24 W/m 7,6 C 11,1 C 14,5 km/h (3 Bft)
15.05.2023 20:30 11,1 C 10,6 C 79 % 1015,9 hPa 0,0 l/m 8,3 km/h (2 Bft) W-SW 252 0 min 0,0 UV-I 22 W/m 7,6 C 9,8 C 16,1 km/h (3 Bft)
15.05.2023 20:33 11,0 C 10,6 C 80 % 1015,9 hPa 0,0 l/m 4,1 km/h (1 Bft) W-SW 246 0 min 0,0 UV-I 20 W/m 7,7 C 11,0 C 9,7 km/h (2 Bft)
15.05.2023 20:36 10,9 C 10,6 C 80 % 1016,0 hPa 0,0 l/m 6,3 km/h (2 Bft) W 263 0 min 0,0 UV-I 19 W/m 7,6 C 10,9 C 14,5 km/h (3 Bft)
15.05.2023 20:39 10,9 C 10,6 C 80 % 1016,1 hPa 0,0 l/m 4,4 km/h (1 Bft) SW 220 0 min 0,0 UV-I 15 W/m 7,6 C 10,9 C 12,9 km/h (3 Bft)
15.05.2023 20:42 10,9 C 10,6 C 81 % 1016,2 hPa 0,0 l/m 5,4 km/h (1 Bft) W-SW 248 0 min 0,0 UV-I 10 W/m 7,8 C 10,9 C 17,7 km/h (3 Bft)
15.05.2023 20:45 10,9 C 10,6 C 81 % 1016,2 hPa 0,0 l/m 9,7 km/h (2 Bft) W-SW 253 0 min 0,0 UV-I 6 W/m 7,8 C 8,8 C 20,9 km/h (4 Bft)
15.05.2023 20:48 10,8 C 10,6 C 82 % 1016,2 hPa 0,0 l/m 10,9 km/h (2 Bft) W-SW 256 0 min 0,0 UV-I 5 W/m 7,9 C 8,0 C 17,7 km/h (3 Bft)
15.05.2023 20:51 10,7 C 10,0 C 82 % 1016,3 hPa 0,0 l/m 8,1 km/h (2 Bft) W 271 0 min 0,0 UV-I 5 W/m 7,8 C 9,5 C 19,3 km/h (3 Bft)
15.05.2023 20:54 10,6 C 10,0 C 82 % 1016,4 hPa 0,0 l/m 6,5 km/h (2 Bft) SW 222 0 min 0,0 UV-I 0 W/m 7,7 C 10,6 C 14,5 km/h (3 Bft)
15.05.2023 20:57 10,5 C 10,0 C 83 % 1016,5 hPa 0,0 l/m 6,6 km/h (2 Bft) W-SW 258 0 min 0,0 UV-I 0 W/m 7,7 C 10,4 C 12,9 km/h (3 Bft)
15.05.2023 21:00 10,3 C 10,0 C 84 % 1016,5 hPa 0,0 l/m 9,4 km/h (2 Bft) SW 225 0 min 0,0 UV-I 0 W/m 7,7 C 8,3 C 19,3 km/h (3 Bft)
15.05.2023 21:03 10,1 C 9,4 C 84 % 1016,5 hPa 0,0 l/m 8,0 km/h (2 Bft) W-NW 294 0 min 0,0 UV-I 0 W/m 7,5 C 9,0 C 17,7 km/h (3 Bft)
15.05.2023 21:07 9,9 C 9,4 C 85 % 1016,6 hPa 0,0 l/m 6,5 km/h (2 Bft) W 260 0 min 0,0 UV-I 0 W/m 7,5 C 9,9 C 17,7 km/h (3 Bft)
15.05.2023 21:09 9,9 C 9,4 C 85 % 1016,5 hPa 0,0 l/m 10,1 km/h (2 Bft) SW 215 0 min 0,0 UV-I 0 W/m 7,5 C 7,4 C 16,1 km/h (3 Bft)
15.05.2023 21:14 9,9 C 9,4 C 85 % 1016,5 hPa 0,0 l/m 6,7 km/h (2 Bft) W 267 0 min 0,0 UV-I 0 W/m 7,5 C 9,7 C 12,9 km/h (3 Bft)
15.05.2023 21:15 9,9 C 9,4 C 85 % 1016,5 hPa 0,0 l/m 8,5 km/h (2 Bft) W-SW 244 0 min 0,0 UV-I 0 W/m 7,5 C 8,4 C 19,3 km/h (3 Bft)
15.05.2023 21:16 9,8 C 9,4 C 85 % 1016,5 hPa 0,0 l/m 11,3 km/h (2 Bft) SW 234 0 min 0,0 UV-I 0 W/m 7,4 C 6,6 C 17,7 km/h (3 Bft)
15.05.2023 21:17 9,8 C 9,4 C 85 % 1016,5 hPa 0,0 l/m 6,4 km/h (2 Bft) SW 225 0 min 0,0 UV-I 0 W/m 7,4 C 9,8 C 11,3 km/h (2 Bft)
15.05.2023 21:18 9,8 C 9,4 C 85 % 1016,5 hPa 0,0 l/m 11,3 km/h (2 Bft) W 270 0 min 0,0 UV-I 0 W/m 7,4 C 6,6 C 16,1 km/h (3 Bft)
15.05.2023 21:21 9,8 C 9,4 C 85 % 1016,6 hPa 0,0 l/m 10,0 km/h (2 Bft) W 273 0 min 0,0 UV-I 0 W/m 7,4 C 7,4 C 16,1 km/h (3 Bft)
15.05.2023 21:24 9,8 C 9,4 C 86 % 1016,7 hPa 0,0 l/m 6,1 km/h (2 Bft) W 271 0 min 0,0 UV-I 0 W/m 7,6 C 9,8 C 14,5 km/h (3 Bft)
15.05.2023 21:27 9,8 C 9,4 C 86 % 1016,7 hPa 0,0 l/m 4,4 km/h (1 Bft) W-NW 284 0 min 0,0 UV-I 0 W/m 7,6 C 9,8 C 9,7 km/h (2 Bft)
15.05.2023 21:30 9,7 C 9,4 C 86 % 1016,7 hPa 0,0 l/m 4,8 km/h (1 Bft) W-NW 302 0 min 0,0 UV-I 0 W/m 7,5 C 9,7 C 12,9 km/h (3 Bft)
15.05.2023 21:33 9,7 C 9,4 C 86 % 1016,7 hPa 0,0 l/m 5,8 km/h (2 Bft) W-NW 293 0 min 0,0 UV-I 0 W/m 7,5 C 9,7 C 14,5 km/h (3 Bft)
15.05.2023 21:36 9,7 C 9,4 C 86 % 1016,8 hPa 0,0 l/m 6,5 km/h (2 Bft) W-NW 302 0 min 0,0 UV-I 0 W/m 7,5 C 9,7 C 19,3 km/h (3 Bft)
15.05.2023 21:39 9,6 C 9,4 C 86 % 1016,9 hPa 0,0 l/m 7,3 km/h (2 Bft) W 259 0 min 0,0 UV-I 0 W/m 7,4 C 8,9 C 19,3 km/h (3 Bft)
15.05.2023 21:42 9,5 C 8,9 C 86 % 1016,9 hPa 0,0 l/m 8,1 km/h (2 Bft) W-SW 252 0 min 0,0 UV-I 0 W/m 7,3 C 8,3 C 17,7 km/h (3 Bft)
15.05.2023 21:45 9,4 C 8,9 C 86 % 1016,8 hPa 0,0 l/m 8,7 km/h (2 Bft) W-SW 245 0 min 0,0 UV-I 0 W/m 7,2 C 7,7 C 19,3 km/h (3 Bft)
15.05.2023 21:48 9,4 C 8,9 C 86 % 1016,8 hPa 0,0 l/m 7,9 km/h (2 Bft) W-NW 282 0 min 0,0 UV-I 0 W/m 7,2 C 8,3 C 16,1 km/h (3 Bft)
15.05.2023 21:51 9,3 C 8,9 C 87 % 1016,9 hPa 0,0 l/m 5,9 km/h (2 Bft) W-NW 297 0 min 0,0 UV-I 0 W/m 7,2 C 9,3 C 14,5 km/h (3 Bft)
15.05.2023 21:54 9,3 C 8,9 C 87 % 1016,9 hPa 0,0 l/m 5,5 km/h (1 Bft) W-SW 257 0 min 0,0 UV-I 0 W/m 7,2 C 9,3 C 12,9 km/h (3 Bft)
15.05.2023 21:57 9,3 C 8,9 C 87 % 1016,9 hPa 0,0 l/m 6,1 km/h (2 Bft) W-SW 257 0 min 0,0 UV-I 0 W/m 7,2 C 9,3 C 12,9 km/h (3 Bft)
15.05.2023 22:00 9,2 C 8,9 C 87 % 1017,0 hPa 0,0 l/m 8,0 km/h (2 Bft) W 273 0 min 0,0 UV-I 0 W/m 7,2 C 8,0 C 17,7 km/h (3 Bft)
15.05.2023 22:03 9,1 C 8,9 C 87 % 1016,9 hPa 0,0 l/m 9,1 km/h (2 Bft) W 267 0 min 0,0 UV-I 0 W/m 7,1 C 7,2 C 17,7 km/h (3 Bft)
15.05.2023 22:06 9,0 C 8,9 C 88 % 1017,0 hPa 0,0 l/m 9,4 km/h (2 Bft) W-SW 248 0 min 0,0 UV-I 0 W/m 7,1 C 6,9 C 19,3 km/h (3 Bft)
15.05.2023 22:09 8,9 C 8,9 C 88 % 1016,9 hPa 0,0 l/m 7,6 km/h (2 Bft) W 281 0 min 0,0 UV-I 0 W/m 7,0 C 8,0 C 17,7 km/h (3 Bft)
15.05.2023 22:12 8,9 C 8,3 C 88 % 1016,9 hPa 0,0 l/m 10,5 km/h (2 Bft) W-NW 285 0 min 0,0 UV-I 0 W/m 7,0 C 6,1 C 17,7 km/h (3 Bft)
15.05.2023 22:15 8,9 C 8,3 C 88 % 1017,0 hPa 0,0 l/m 7,4 km/h (2 Bft) SW 228 0 min 0,0 UV-I 0 W/m 7,0 C 8,1 C 16,1 km/h (3 Bft)
15.05.2023 22:18 8,8 C 8,3 C 88 % 1016,9 hPa 0,0 l/m 5,1 km/h (1 Bft) W-SW 254 0 min 0,0 UV-I 0 W/m 6,9 C 8,8 C 12,9 km/h (3 Bft)
15.05.2023 22:21 8,8 C 8,3 C 88 % 1016,9 hPa 0,0 l/m 3,0 km/h (1 Bft) W-NW 299 0 min 0,0 UV-I 0 W/m 6,9 C 8,8 C 4,8 km/h (1 Bft)
15.05.2023 22:24 8,8 C 8,3 C 88 % 1016,9 hPa 0,0 l/m 3,8 km/h (1 Bft) W 274 0 min 0,0 UV-I 0 W/m 6,9 C 8,8 C 9,7 km/h (2 Bft)
15.05.2023 22:27 8,8 C 8,3 C 88 % 1017,0 hPa 0,0 l/m 5,5 km/h (1 Bft) W-SW 243 0 min 0,0 UV-I 0 W/m 6,9 C 8,8 C 11,3 km/h (2 Bft)
15.05.2023 22:30 8,8 C 8,3 C 88 % 1016,9 hPa 0,0 l/m 3,9 km/h (1 Bft) W-SW 246 0 min 0,0 UV-I 0 W/m 6,9 C 8,8 C 9,7 km/h (2 Bft)
15.05.2023 22:33 8,7 C 8,3 C 88 % 1016,9 hPa 0,0 l/m 3,5 km/h (1 Bft) W-NW 284 0 min 0,0 UV-I 0 W/m 6,8 C 8,7 C 9,7 km/h (2 Bft)
15.05.2023 22:36 8,7 C 8,3 C 88 % 1017,0 hPa 0,0 l/m 1,4 km/h (1 Bft) W-NW 284 0 min 0,0 UV-I 0 W/m 6,8 C 8,7 C 3,2 km/h (1 Bft)
15.05.2023 22:39 8,7 C 8,3 C 88 % 1017,0 hPa 0,0 l/m 2,1 km/h (1 Bft) W 264 0 min 0,0 UV-I 0 W/m 6,8 C 8,7 C 4,8 km/h (1 Bft)
15.05.2023 22:42 8,8 C 8,3 C 88 % 1017,0 hPa 0,0 l/m 2,3 km/h (1 Bft) W 276 0 min 0,0 UV-I 0 W/m 6,9 C 8,8 C 4,8 km/h (1 Bft)
15.05.2023 22:45 8,8 C 8,3 C 88 % 1017,0 hPa 0,0 l/m 1,9 km/h (1 Bft) W 272 0 min 0,0 UV-I 0 W/m 6,9 C 8,8 C 4,8 km/h (1 Bft)
15.05.2023 22:48 8,8 C 8,3 C 88 % 1017,0 hPa 0,0 l/m 2,7 km/h (1 Bft) W 271 0 min 0,0 UV-I 0 W/m 6,9 C 8,8 C 6,4 km/h (2 Bft)
15.05.2023 22:51 8,8 C 8,3 C 88 % 1017,0 hPa 0,0 l/m 0,1 km/h (0 Bft) W 271 0 min 0,0 UV-I 0 W/m 6,9 C 8,8 C 1,6 km/h (1 Bft)
15.05.2023 22:54 8,8 C 8,9 C 88 % 1017,1 hPa 0,0 l/m 0,6 km/h (0 Bft) W 271 0 min 0,0 UV-I 0 W/m 6,9 C 8,8 C 3,2 km/h (1 Bft)
15.05.2023 22:57 8,7 C 8,9 C 88 % 1017,1 hPa 0,0 l/m 2,7 km/h (1 Bft) W 275 0 min 0,0 UV-I 0 W/m 6,8 C 8,7 C 4,8 km/h (1 Bft)
15.05.2023 23:00 8,7 C 8,9 C 88 % 1017,0 hPa 0,0 l/m 5,8 km/h (2 Bft) W-SW 258 0 min 0,0 UV-I 0 W/m 6,8 C 8,7 C 14,5 km/h (3 Bft)
15.05.2023 23:03 8,7 C 8,3 C 88 % 1017,0 hPa 0,0 l/m 3,0 km/h (1 Bft) W-SW 257 0 min 0,0 UV-I 0 W/m 6,8 C 8,7 C 6,4 km/h (2 Bft)
15.05.2023 23:06 8,7 C 8,3 C 88 % 1017,0 hPa 0,0 l/m 2,3 km/h (1 Bft) W-SW 257 0 min 0,0 UV-I 0 W/m 6,8 C 8,7 C 4,8 km/h (1 Bft)
15.05.2023 23:09 8,6 C 8,3 C 88 % 1017,1 hPa 0,0 l/m 6,7 km/h (2 Bft) W-NW 289 0 min 0,0 UV-I 0 W/m 6,7 C 8,4 C 14,5 km/h (3 Bft)
15.05.2023 23:12 8,6 C 8,3 C 88 % 1017,1 hPa 0,0 l/m 4,4 km/h (1 Bft) W-SW 257 0 min 0,0 UV-I 0 W/m 6,7 C 8,6 C 6,4 km/h (2 Bft)
15.05.2023 23:15 8,5 C 7,8 C 88 % 1017,1 hPa 0,0 l/m 4,2 km/h (1 Bft) W-SW 242 0 min 0,0 UV-I 0 W/m 6,6 C 8,5 C 9,7 km/h (2 Bft)
15.05.2023 23:18 8,4 C 7,8 C 89 % 1017,1 hPa 0,0 l/m 8,1 km/h (2 Bft) W 276 0 min 0,0 UV-I 0 W/m 6,7 C 7,1 C 12,9 km/h (3 Bft)
15.05.2023 23:21 8,4 C 7,8 C 89 % 1017,1 hPa 0,0 l/m 7,8 km/h (2 Bft) SW 225 0 min 0,0 UV-I 0 W/m 6,7 C 7,3 C 16,1 km/h (3 Bft)
15.05.2023 23:24 8,3 C 7,8 C 89 % 1017,1 hPa 0,0 l/m 7,4 km/h (2 Bft) W 267 0 min 0,0 UV-I 0 W/m 6,6 C 7,5 C 16,1 km/h (3 Bft)
15.05.2023 23:27 8,3 C 7,8 C 89 % 1017,2 hPa 0,0 l/m 6,2 km/h (2 Bft) W 259 0 min 0,0 UV-I 0 W/m 6,6 C 8,3 C 14,5 km/h (3 Bft)
15.05.2023 23:30 8,3 C 7,8 C 89 % 1017,2 hPa 0,0 l/m 4,5 km/h (1 Bft) W 268 0 min 0,0 UV-I 0 W/m 6,6 C 8,3 C 11,3 km/h (2 Bft)
15.05.2023 23:33 8,3 C 7,8 C 89 % 1017,2 hPa 0,0 l/m 6,0 km/h (2 Bft) W-NW 286 0 min 0,0 UV-I 0 W/m 6,6 C 8,3 C 12,9 km/h (3 Bft)
15.05.2023 23:36 8,3 C 7,8 C 89 % 1017,3 hPa 0,0 l/m 5,5 km/h (1 Bft) W-NW 285 0 min 0,0 UV-I 0 W/m 6,6 C 8,3 C 14,5 km/h (3 Bft)
15.05.2023 23:39 8,3 C 7,8 C 89 % 1017,2 hPa 0,0 l/m 4,2 km/h (1 Bft) W 279 0 min 0,0 UV-I 0 W/m 6,6 C 8,3 C 12,9 km/h (3 Bft)
15.05.2023 23:42 8,3 C 7,8 C 89 % 1017,2 hPa 0,0 l/m 4,6 km/h (1 Bft) NW 321 0 min 0,0 UV-I 0 W/m 6,6 C 8,3 C 9,7 km/h (2 Bft)
15.05.2023 23:45 8,2 C 7,8 C 89 % 1017,2 hPa 0,0 l/m 5,7 km/h (1 Bft) N-NW 337 0 min 0,0 UV-I 0 W/m 6,5 C 8,2 C 20,9 km/h (4 Bft)
15.05.2023 23:48 8,2 C 7,8 C 89 % 1017,2 hPa 0,0 l/m 5,5 km/h (1 Bft) W 277 0 min 0,0 UV-I 0 W/m 6,5 C 8,2 C 17,7 km/h (3 Bft)
15.05.2023 23:51 8,3 C 7,8 C 89 % 1017,2 hPa 0,0 l/m 2,7 km/h (1 Bft) W-SW 257 0 min 0,0 UV-I 0 W/m 6,6 C 8,3 C 8,0 km/h (2 Bft)
15.05.2023 23:54 8,3 C 7,8 C 89 % 1017,2 hPa 0,0 l/m 3,6 km/h (1 Bft) NW 306 0 min 0,0 UV-I 0 W/m 6,6 C 8,3 C 11,3 km/h (2 Bft)
15.05.2023 23:57 8,2 C 7,8 C 89 % 1017,2 hPa 0,0 l/m 7,3 km/h (2 Bft) N 355 0 min 0,0 UV-I 0 W/m 6,5 C 7,5 C 14,5 km/h (3 Bft)
15.05.2023 23:58 8,2 C 7,8 C 89 % 1017,2 hPa 0,0 l/m 12,9 km/h (3 Bft) W-NW 292 0 min 0,0 UV-I 0 W/m 6,5 C 4,0 C 20,9 km/h (4 Bft)
15.05.2023 23:59 8,2 C 7,8 C 89 % 1017,2 hPa 0,0 l/m 6,4 km/h (2 Bft) W-NW 292 0 min 0,0 UV-I 0 W/m 6,5 C 8,2 C 11,3 km/h (2 Bft)
_ Min-Zeit 05:49 04:58 16:03 13:54 - 00:00 - - - - - 16:03 23:58 00:33
Minimum _ 6,9 C 5,6 C 41 % 1014,0 hPa - 0,0 km/h (0 Bft) - - - - - 3,7 C 4,0 C 0,0 km/h (0 Bft)
_ Max-Zeit 15:09 15:51 06:26 23:36 00:00 12:18 - - 16:37 14:21 13:18 09:24 15:51 16:54
Maximum _ 17,7 C 27,8 C 94 % 1017,3 hPa 0,0 l/m 15,7 km/h
N-NW (3 Bft)
- - 4 min 5,8 UV-I 1006 W/m 10,9 C 17,6 C 30,6 km/h
NW (5 Bft)
Durchschnitt _ 12,0 C 13,6 C 77 % 1015,4 hPa #0,0 l/m 5,3 km/h (1 Bft) W-SW - #6:24 h 3,0 UV-I 352 W/m 7,8 C 11,5 C 11,0 km/h (2 Bft)